[[{"header":{"parameterUnit":"m.s-1","parameterCategory":1,"la1":30.6,"la2":28.766,"lo1":-90.7593,"lo2":-88.6598,"dy":0.0162,"dx":0.0183,"nx":116,"ny":114,"refTime":"2024-04-02T00:00:00:Z","depth":0,"parameterNumber":2,"parameterNumberName":"U-component_of_WINDS"},"data":[0.0,0.0,0.0,0.0,0.0,0.0,0.0,0.0,0.0,0.0,0.0,0.0,0.0,0.0,0.0,0.0,0.0,0.0,0.0,0.0,0.0,0.0,0.0,0.0,0.0,0.0,0.0,0.0,0.0,0.0,0.0,0.0,0.0,0.0,0.0,0.0,0.0,0.0,0.0,0.0,0.0,0.0,0.0,0.0,0.0,0.0,0.0,0.0,0.0,0.0,0.0,0.0,0.0,0.0,0.0,0.0,0.0,0.0,0.0,0.0,0.0,0.0,0.0,0.0,0.0,0.0,0.0,0.0,0.0,0.0,0.0,0.0,0.0,0.0,0.0,0.0,0.0,0.0,0.0,0.0,0.0,0.0,0.0,0.0,0.0,0.0,0.0,0.0,0.0,0.0,0.0,0.0,0.0,0.0,0.0,0.0,0.0,0.0,0.0,0.0,0.0,0.0,0.0,0.0,0.0,0.0,0.0,0.0,0.0,0.0,0.0,0.0,0.0,0.0,0.0,0.0,0.0,0.0,0.0,0.0,0.0,0.0,0.0,0.0,0.0,0.0,0.0,0.0,0.0,0.0,0.0,0.0,0.0,0.0,0.0,0.0,0.0,0.0,0.0,0.0,0.0,0.0,0.0,0.0,0.0,0.0,0.0,0.0,0.0,0.0,0.0,0.0,0.0,0.0,0.0,0.0,0.0,0.0,0.0,0.0,0.0,0.0,0.0,0.0,0.0,0.0,0.0,0.0,0.0,0.0,0.0,0.0,0.0,0.0,0.0,0.0,0.0,0.0,0.0,0.0,0.0,0.0,0.0,0.0,0.0,0.0,0.0,0.0,0.0,0.0,0.0,0.0,0.0,0.0,0.0,0.0,0.0,0.0,0.0,0.0,0.0,0.0,0.0,0.0,0.0,0.0,0.0,0.0,0.0,0.0,0.0,0.0,0.0,0.0,0.0,0.0,0.0,0.0,0.0,0.0,0.0,0.0,0.0,0.0,0.0,0.0,0.0,0.0,0.0,0.0,0.0,0.0,0.0,0.0,0.0,0.0,0.0,0.0,0.0,0.0,0.0,0.0,0.0,0.0,0.0,0.0,0.0,0.0,0.0,0.0,0.0,0.0,0.0,0.0,0.0,0.0,0.0,0.0,0.0,0.0,0.0,0.0,0.0,0.0,0.0,0.0,0.0,0.0,0.0,0.0,0.0,0.0,0.0,0.0,0.0,0.0,0.0,0.0,0.0,0.0,0.0,0.0,0.0,0.0,0.0,0.0,0.0,0.0,0.0,0.0,0.0,0.0,0.0,0.0,0.0,0.0,0.0,0.0,0.0,0.0,0.0,0.0,0.0,0.0,0.0,0.0,0.0,0.0,0.0,0.0,0.0,0.0,0.0,0.0,0.0,0.0,0.0,0.0,0.0,0.0,0.0,0.0,0.0,0.0,0.0,0.0,0.0,0.0,0.0,0.0,0.0,0.0,0.0,0.0,0.0,0.0,0.0,0.0,0.0,0.0,0.0,0.0,0.0,0.0,0.0,0.0,0.0,0.0,0.0,0.0,0.0,0.0,0.0,0.0,0.0,0.0,0.0,0.0,0.0,0.0,0.0,0.0,0.0,0.0,0.0,0.0,0.0,0.0,0.0,0.0,0.0,0.0,0.0,0.0,0.0,0.0,0.0,0.0,0.0,0.0,0.0,0.0,0.0,0.0,0.0,0.0,0.0,0.0,0.0,0.0,0.0,0.0,0.0,0.0,0.0,0.0,0.0,0.0,0.0,0.0,0.0,0.0,0.0,0.0,0.0,0.0,0.0,0.0,0.0,0.0,0.0,0.0,0.0,0.0,0.0,0.0,0.0,0.0,0.0,0.0,0.0,0.0,0.0,0.0,0.0,0.0,0.0,0.0,0.0,0.0,0.0,0.0,0.0,0.0,0.0,0.0,0.0,0.0,0.0,0.0,0.0,0.0,0.0,0.0,0.0,0.0,0.0,0.0,0.0,0.0,0.0,0.0,0.0,0.0,0.0,0.0,0.0,0.0,0.0,0.0,0.0,0.0,0.0,0.0,0.0,0.0,0.0,0.0,0.0,0.0,0.0,0.0,0.0,0.0,0.0,0.0,0.0,0.0,0.0,0.0,0.0,0.0,0.0,0.0,0.0,0.0,0.0,0.0,0.0,0.0,0.0,0.0,0.0,0.0,0.0,0.0,0.0,0.0,0.0,0.0,0.0,0.0,0.0,0.0,0.0,0.0,0.0,0.0,0.0,0.0,0.0,0.0,0.0,0.0,0.0,0.0,0.0,0.0,0.0,0.0,0.0,0.0,0.0,0.0,0.0,0.0,0.0,0.0,0.0,0.0,0.0,0.0,0.0,0.0,0.0,0.0,0.0,0.0,0.0,0.0,0.0,0.0,0.0,0.0,0.0,0.0,0.0,0.0,0.0,0.0,0.0,0.0,0.0,0.0,0.0,0.0,0.0,0.0,0.0,0.0,0.0,0.0,0.0,0.0,0.0,0.0,0.0,0.0,0.0,0.0,0.0,0.0,0.0,0.0,0.0,0.0,0.0,0.0,0.0,0.0,0.0,0.0,0.0,0.0,0.0,0.0,0.0,0.0,0.0,0.0,0.0,0.0,0.0,0.0,0.0,0.0,0.0,0.0,0.0,0.0,0.0,0.0,0.0,0.0,0.0,0.0,0.0,0.0,0.0,0.0,0.0,0.0,0.0,0.0,0.0,0.0,0.0,0.0,0.0,0.0,0.0,0.0,0.0,0.0,0.0,0.0,0.0,0.0,0.0,0.0,0.0,0.0,0.0,0.0,0.0,0.0,0.0,0.0,0.0,0.0,0.0,0.0,0.0,0.0,0.0,0.0,0.0,0.0,0.0,0.0,0.0,0.0,0.0,0.0,0.0,0.0,0.0,0.0,0.0,0.0,0.0,0.0,0.0,0.0,0.0,0.0,0.0,0.0,0.0,0.0,0.0,0.0,0.0,0.0,0.0,0.0,0.0,0.0,0.0,0.0,0.0,0.0,0.0,0.0,0.0,0.0,0.0,0.0,0.0,0.0,0.0,0.0,0.0,0.0,0.0,0.0,0.0,0.0,0.0,0.0,0.0,0.0,0.0,0.0,0.0,0.0,0.0,0.0,0.0,0.0,0.0,0.0,0.0,0.0,0.0,0.0,0.0,0.0,0.0,0.0,0.0,0.0,0.0,0.0,0.0,0.0,0.0,0.0,0.0,0.0,0.0,0.0,0.0,0.0,0.0,0.0,0.0,0.0,0.0,0.0,0.0,0.0,0.0,0.0,0.0,0.0,0.0,0.0,0.0,0.0,0.0,0.0,0.0,0.0,0.0,0.0,0.0,0.0,0.0,0.0,0.0,0.0,0.0,0.0,0.0,0.0,0.0,0.0,0.0,0.0,0.0,0.0,0.0,0.0,0.0,0.0,0.0,0.0,0.0,0.0,0.0,0.0,0.0,0.0,0.0,0.0,0.0,0.0,0.0,0.0,0.0,0.0,0.0,0.0,0.0,0.0,0.0,0.0,0.0,0.0,0.0,0.0,0.0,0.0,0.0,0.0,0.0,0.0,0.0,0.0,0.0,0.0,0.0,0.0,0.0,0.0,0.0,0.0,0.0,0.0,0.0,0.0,0.0,0.0,0.0,0.0,0.0,0.0,0.0,0.0,0.0,0.0,0.0,0.0,0.0,0.0,0.0,0.0,0.0,0.0,0.0,0.0,0.0,0.0,0.0,0.0,0.0,0.0,0.0,0.0,0.0,0.0,0.0,0.0,0.0,0.0,0.0,0.0,0.0,0.0,0.0,0.0,0.0,0.0,0.0,0.0,0.0,0.0,0.0,0.0,0.0,0.0,0.0,0.0,0.0,0.0,0.0,0.0,0.0,0.0,0.0,0.0,0.0,0.0,0.0,0.0,0.0,0.0,0.0,0.0,0.0,0.0,0.0,0.0,0.0,0.0,0.0,0.0,0.0,0.0,0.0,0.0,0.0,0.0,0.0,0.0,0.0,0.0,0.0,0.0,0.0,0.0,0.0,0.0,0.0,0.0,0.0,0.0,0.0,0.0,0.0,0.0,0.0,0.0,0.0,0.0,0.0,0.0,0.0,0.0,0.0,0.0,0.0,0.0,0.0,0.0,0.0,0.0,0.0,0.0,0.0,0.0,0.0,0.0,0.0,0.0,0.0,0.0,0.0,0.0,0.0,0.0,0.0,0.0,0.0,0.0,0.0,0.0,0.0,0.0,0.0,0.0,0.0,0.0,0.0,0.0,0.0,0.0,0.0,0.0,0.0,0.0,0.0,0.0,0.0,0.0,0.0,0.0,0.0,0.0,0.0,0.0,0.0,0.0,0.0,0.0,0.0,0.0,0.0,0.0,0.0,0.0,0.0,0.0,0.0,0.0,0.0,0.0,0.0,0.0,0.0,0.0,0.0,0.0,0.0,0.0,0.0,0.0,0.0,0.0,0.0,0.0,0.0,0.0,0.0,0.0,0.0,0.0,0.0,0.0,0.0,0.0,0.0,0.0,0.0,0.0,0.0,0.0,0.0,0.0,0.0,0.0,0.0,0.0,0.0,0.0,0.0,0.0,0.0,0.0,0.0,0.0,0.0,0.0,0.0,0.0,0.0,0.0,0.0,0.0,0.0,0.0,0.0,0.0,0.0,0.0,0.0,0.0,0.0,0.0,0.0,0.0,0.0,0.0,0.0,0.0,0.0,0.0,0.0,0.0,0.0,0.0,0.0,0.0,0.0,0.0,0.0,0.0,0.0,0.0,0.0,0.0,0.0,0.0,0.0,0.0,0.0,0.0,0.0,0.0,0.0,0.0,0.0,0.0,0.0,0.0,0.0,0.0,0.0,0.0,0.0,0.0,0.0,0.0,0.0,0.0,0.0,0.0,0.0,0.0,0.0,0.0,0.0,0.0,0.0,0.0,0.0,0.0,0.0,0.0,0.0,0.0,0.0,0.0,0.0,0.0,0.0,0.0,0.0,0.0,0.0,0.0,0.0,0.0,0.0,0.0,0.0,0.0,0.0,0.0,0.0,0.0,0.0,0.0,0.0,0.0,0.0,0.0,0.0,0.0,0.0,0.0,0.0,0.0,0.0,0.0,0.0,0.0,0.0,0.0,0.0,0.0,0.0,0.0,0.0,0.0,0.0,0.0,0.0,0.0,0.0,0.0,0.0,0.0,0.0,0.0,0.0,0.0,0.0,0.0,0.0,0.0,0.0,0.0,0.0,0.0,0.0,0.0,0.0,0.0,0.0,0.0,0.0,0.0,0.0,0.0,0.0,0.0,0.0,0.0,0.0,0.0,0.0,0.0,0.0,0.0,0.0,0.0,0.0,0.0,0.0,0.0,0.0,0.0,0.0,0.0,0.0,0.0,0.0,0.0,0.0,0.0,0.0,0.0,0.0,0.0,0.0,0.0,0.0,0.0,0.0,0.0,0.0,0.0,0.0,0.0,0.0,0.0,0.0,0.0,0.0,0.0,0.0,0.0,0.0,0.0,0.0,0.0,0.0,0.0,0.0,0.0,0.0,0.0,0.0,0.0,0.0,0.0,0.0,0.0,0.0,0.0,0.0,0.0,0.0,0.0,0.0,0.0,0.0,0.0,0.0,0.0,0.0,0.0,0.0,0.0,0.0,0.0,0.0,0.0,0.0,0.0,0.0,0.0,0.0,0.0,0.0,0.0,0.0,0.0,0.0,0.0,0.0,0.0,0.0,0.0,0.0,0.0,0.0,0.0,0.0,0.0,0.0,0.0,0.0,0.0,0.0,0.0,0.0,0.0,0.0,0.0,0.0,0.0,0.0,0.0,0.0,0.0,0.0,0.0,0.0,0.0,0.0,0.0,0.0,0.0,0.0,0.0,0.0,0.0,0.0,0.0,0.0,0.0,0.0,0.0,0.0,0.0,0.0,0.0,0.0,0.0,0.0,0.0,0.0,0.0,0.0,0.0,0.0,0.0,0.0,0.0,0.0,0.0,0.0,0.0,0.0,0.0,0.0,0.0,0.0,0.0,0.0,0.0,0.0,0.0,0.0,0.0,0.0,0.0,0.0,0.0,0.0,0.0,0.0,0.0,0.0,0.0,0.0,0.0,0.5947,0.0,0.0,0.0,0.0,0.0,0.0,0.0,0.0,0.0,0.0,0.0,0.0,0.0,0.0,0.0,0.0,0.0,0.0,0.0,0.0,0.0,0.0,0.0,0.0,-0.2033,-0.1924,-0.1506,-0.1516,-0.1386,-0.101,0.0,0.0,0.0,0.0,0.0,-0.1109,-0.1109,-0.1109,-0.1109,-0.1109,-0.1117,-0.1097,-0.0892,-0.0682,-0.0506,0.0,0.0,0.0,0.0,0.0,0.0,0.0,0.0,0.0,0.0,0.0,0.0,0.0,0.0,0.0,0.0,0.0,0.0,0.0,0.0,0.0,0.0,0.0,0.0,0.0,0.0,0.0,0.0,0.0,0.0,0.0,0.0,0.0,0.0,0.0,0.0,0.0,0.0,0.0,0.0,0.0,0.0,0.0,0.0,0.0,0.0,0.0,0.0,0.0,0.0,0.0,0.0,0.0,0.0,0.0,0.0,0.0,0.0,0.0,0.0,0.0,0.0,0.0,0.0,0.0,0.0,0.0,0.0,0.0,0.0,0.0,0.6139,0.0,0.0,0.0,0.0,0.0,0.0,0.0,0.0,0.0,0.0,0.0,0.0,0.0,0.0,0.0,0.0,0.0,0.0,0.0,0.0,0.0,-0.3462,-0.3243,-0.3339,-0.3155,-0.2449,-0.2388,-0.2105,-0.1526,-0.1525,0.0,0.0,-0.1411,-0.1347,-0.1354,-0.1185,-0.112,-0.1125,-0.1125,-0.1104,-0.1129,-0.1129,-0.0942,-0.0615,0.0,0.0,0.0,0.0,0.0,0.0,0.0,0.0,0.0,0.0,0.0,0.0,0.0,0.0,0.0,0.0,0.0,0.0,0.0,0.0,0.0,0.0,0.0,0.0,0.0,0.0,0.0,0.0,0.0,0.0,0.0,0.0,0.0,0.0,0.0,0.0,0.0,0.0,0.0,0.0,0.0,0.0,0.0,0.0,0.0,0.0,0.0,0.0,0.0,0.0,0.0,0.0,0.0,0.0,0.0,0.0,0.0,0.0,0.0,0.0,0.0,0.0,0.0,0.0,0.5681,0.5822,0.6057,0.6057,0.6069,0.6163,0.6352,0.6461,0.6455,0.0,0.0,0.0,0.0,0.0,0.0,0.0,0.0,0.0,0.0,0.0,0.0,0.0,0.0,0.0,0.0,0.0,0.0,0.0,0.0,-0.4051,-0.3673,-0.3659,-0.36,-0.3505,-0.35,-0.3458,-0.3361,-0.3338,-0.3345,-0.3345,-0.2648,-0.2241,-0.233,-0.1532,-0.1128,-0.1191,-0.1191,-0.1193,-0.1196,-0.1196,-0.1158,-0.1119,-0.1083,0.0,0.0,0.0,0.0,0.0,0.0,0.0,0.0,0.0,0.0,0.0,0.0,0.0,0.0,0.0,0.0,0.0,0.0,0.0,0.0,0.0,0.0,0.0,0.0,0.0,0.0,0.0,0.0,0.0,0.0,0.0,0.0,0.0,0.0,0.0,0.0,0.0,0.0,0.0,0.0,0.0,0.0,0.0,0.3172,0.3056,0.0,0.0,0.0,0.0,0.0,0.0,0.0,0.0,0.0,0.0,0.0,0.0,0.0,0.3451,0.3475,0.3312,0.3696,0.4608,0.4435,0.5018,0.6246,0.6246,0.6399,0.6685,0.6971,0.0,0.6341,0.6545,0.0,0.0,0.0,0.0,0.0,0.0,0.0,0.0,0.0,0.0,0.0,0.0,0.0,0.0,0.0,0.0,0.0,0.0,0.0,0.0,0.0,-0.5028,-0.4886,-0.4365,-0.4315,-0.4146,-0.3711,-0.3801,-0.3869,-0.3869,-0.3615,-0.3488,-0.3528,-0.2785,-0.2229,-0.1857,-0.1857,-0.1761,-0.1527,-0.1527,-0.1426,-0.1255,-0.1255,-0.1191,-0.1039,-0.0859,0.0,0.0,0.0,0.0,0.0,0.0,0.0,0.0,0.0,0.0,0.0,0.0,0.0,0.0,0.0,0.0,0.0,0.0,0.0,0.0,0.0,0.0,0.0,0.0,0.0,0.0,0.0,0.0,0.0,0.0,0.0,0.0,0.0,0.0,0.0,0.0,0.0,0.0,0.0,0.2461,0.24,0.1466,0.2197,0.2533,0.0,0.0,0.0,0.0,0.0,0.0,0.0,0.0,0.0,0.2878,0.2879,0.2908,0.2968,0.2922,0.3073,0.3562,0.3473,0.3768,0.4408,0.5018,0.5373,0.5559,0.6408,0.6608,0.6391,0.6892,0.7078,0.7068,0.0,0.0,0.0,0.0,0.6906,0.6893,0.0,0.0,0.0,0.0,0.0,0.0,0.0,0.0,0.0,0.0,0.0,0.0,-0.6057,-0.6172,-0.598,-0.5282,-0.5216,-0.4994,-0.4492,-0.4617,-0.472,-0.4749,-0.4695,-0.4648,-0.4644,-0.4045,-0.3367,-0.2695,-0.275,-0.2452,-0.1887,-0.1887,-0.1672,-0.1343,-0.1335,-0.1288,-0.1178,-0.0994,-0.0917,0.0,0.0,0.0,0.0,0.0,0.0,0.0,0.0,0.0,0.0,0.0,0.0,0.0,0.0,0.0,0.0,0.0,0.0,0.0,0.0,0.0,0.0,0.0,0.0,0.0,0.0,0.0,0.0,0.0,0.0,0.0,0.0,0.0,0.0,0.0,0.0,0.0,0.0,0.1496,0.1386,0.0168,0.1093,0.1641,0.0,0.0,0.0,0.0,0.0,0.0,0.1866,0.1867,0.1895,0.2001,0.2003,0.2068,0.2155,0.2155,0.2305,0.2557,0.2557,0.2702,0.2991,0.3811,0.4148,0.4244,0.5252,0.5684,0.5769,0.6802,0.7244,0.7234,0.7166,0.7075,0.7033,0.7168,0.7168,0.7107,0.0,0.0,0.0,0.0,0.0,0.0,0.0,0.0,0.0,0.0,0.0,-0.6245,-0.6355,-0.6379,-0.6383,-0.6317,-0.6317,-0.6389,-0.6531,-0.6551,-0.6661,-0.6857,-0.6008,-0.557,-0.5635,-0.4917,-0.4228,-0.3544,-0.3665,-0.3162,-0.2072,-0.2072,-0.1835,-0.1381,-0.1396,-0.1318,-0.1171,-0.0983,-0.0895,-0.0911,0.0,0.0,0.0,0.0,0.0,0.0,0.0,0.0,0.0,0.0,0.0,0.0,0.0,0.0,0.0,0.0,0.0,0.0,0.0,0.0,0.0,0.0,0.0,0.0,0.0,0.0,0.0,0.0,0.0,0.0,0.0,0.0,0.0,0.0,0.0,0.0,0.0,0.0,0.0,0.0,0.0084,0.0,0.0,0.0,0.0,0.0138,0.0141,0.0142,0.0142,0.0142,0.0142,0.0143,0.0143,0.0144,0.0147,0.0147,0.0643,0.1659,0.1659,0.2211,0.3164,0.3265,0.3264,0.3264,0.3612,0.376,0.3899,0.5971,0.6832,0.6876,0.7101,0.7051,0.687,0.7386,0.7433,0.7235,0.0,0.0,0.0,0.0,0.0,-0.5954,-0.6217,-0.6319,-0.6404,-0.6523,-0.6602,-0.6575,-0.6412,-0.6387,-0.6387,-0.6387,-0.6526,-0.6623,-0.668,-0.6907,-0.7066,-0.7127,-0.7044,-0.6889,-0.661,-0.648,-0.6077,-0.5407,-0.5575,-0.5046,-0.3894,-0.3894,-0.3201,-0.1929,-0.1914,-0.1701,-0.1309,-0.1214,-0.1145,-0.1135,-0.0963,-0.0842,0.0,0.0,0.0,0.0,0.0,0.0,0.0,0.0,0.0,0.0,0.0,0.0,0.0,0.0,0.0,0.0,0.0,0.0,0.0,0.0,0.0,0.0,0.0,0.0,0.0,0.0,0.0,0.0,0.0,0.0,0.0,0.0,0.0,0.0,0.0,0.0,0.0,-0.0492,-0.0493,0.0,-0.0507,-0.0512,-0.0515,-0.0519,-0.0332,-0.024,-0.0243,-0.0097,0.0,0.0,0.0,0.0,0.0,0.0,0.0206,0.0575,0.0575,0.0784,0.115,0.188,0.2193,0.2193,0.3023,0.3365,0.3379,0.4192,0.4684,0.502,0.5116,0.5069,0.502,0.5216,0.5214,0.5156,0.0,0.0,0.0,0.0,-0.6457,-0.669,-0.7028,-0.7269,-0.737,-0.7225,-0.7279,-0.7138,-0.6618,-0.6585,-0.661,-0.6701,-0.6691,-0.6839,-0.7153,-0.7249,-0.7366,-0.7446,-0.7776,-0.7827,-0.7522,-0.7737,-0.7545,-0.6893,-0.6992,-0.6364,-0.4979,-0.4902,-0.4053,-0.2525,-0.2553,-0.2221,-0.1751,-0.1658,-0.152,-0.133,-0.1146,-0.1048,-0.1032,0.0,0.0,0.0,0.0,0.0,0.0,0.0,0.0,0.0,0.0,0.0,0.0,0.0,0.0,0.0,0.0,0.0,0.0,0.0,0.0,0.0,0.0,0.0,0.0,0.0,0.0,0.0,0.0,0.0,0.0,0.0,0.0,0.0,0.0,0.0,-0.0731,-0.0792,-0.0795,-0.0799,-0.0809,-0.0816,-0.0819,-0.0819,-0.063,-0.0539,-0.055,-0.04,-0.0252,-0.0154,-0.0154,-0.0104,0.0,0.0,0.0,0.0,0.0,0.0,0.0,0.0746,0.1066,0.1119,0.1808,0.2113,0.2144,0.2144,0.2334,0.2712,0.3534,0.3819,0.3768,0.3917,0.3966,0.386,0.0,0.0,0.0,-0.6669,-0.7019,-0.7465,-0.796,-0.8446,-0.8604,-0.8264,-0.8199,-0.7879,-0.7007,-0.6913,-0.7025,-0.7282,-0.6971,-0.7141,-0.8067,-0.7765,-0.7698,-0.8024,-0.8207,-0.8304,-0.8316,-0.8658,-0.8519,-0.7836,-0.7843,-0.6967,-0.518,-0.4995,-0.4328,-0.3278,-0.3268,-0.2944,-0.2448,-0.2359,-0.1995,-0.1439,-0.1393,-0.1356,-0.1305,0.0,0.0,0.0,0.0,0.0,0.0,0.0,0.0,0.0,0.0,0.0,0.0,0.0,0.0,0.0,0.0,0.0,0.0,0.0,0.0,0.0,0.0,0.0,0.0,0.0,0.0,0.0,0.0,0.0,0.0,0.0,0.0,0.0,-0.0833,-0.0833,-0.084,-0.0809,-0.0811,-0.0812,-0.0813,-0.0827,-0.0836,-0.0837,-0.0801,-0.0867,-0.0935,-0.0884,-0.0733,-0.0426,-0.0427,-0.0267,-0.0053,-0.0053,0.0,0.0,0.0,0.0,0.0,0.0,0.0,0.0,0.0,0.0,0.0,0.0,0.0,0.0213,0.2556,0.3327,0.3177,0.3674,0.3723,0.3522,0.0,0.0,-0.7052,-0.7101,-0.7406,-0.7932,-0.8737,-0.9184,-0.921,-0.8639,-0.8576,-0.8258,-0.7428,-0.733,-0.7414,-0.7657,-0.7706,-0.7987,-0.8561,-0.8795,-0.8959,-0.9143,-0.8746,-0.8613,-0.8869,-0.9092,-0.9159,-0.8969,-0.9052,-0.8575,-0.747,-0.7435,-0.6712,-0.5475,-0.4904,-0.4346,-0.3794,-0.3218,-0.2625,-0.2082,-0.1585,-0.14,-0.1364,0.0,0.0,0.0,0.0,0.0,0.0,0.0,0.0,0.0,0.0,0.0,0.0,0.0,0.0,0.0,0.0,0.0,0.0,0.0,0.0,0.0,0.0,0.0,0.0,0.0,0.0,0.0,0.0,0.0,0.0,0.0,-0.1371,-0.1371,-0.1324,-0.1324,-0.1334,-0.1361,-0.1364,-0.1379,-0.1468,-0.1428,-0.144,-0.1458,-0.1256,-0.1158,-0.1163,-0.1006,-0.0849,-0.0747,-0.0747,-0.0751,-0.0651,-0.0651,-0.0546,-0.0277,-0.0277,-0.0166,0.0,0.0,0.0,0.0,0.0,0.0,0.0,0.0,0.0,0.0053,0.0738,0.0945,0.0893,0.1049,0.104,0.0976,0.0,-0.7563,-0.7591,-0.8048,-0.8463,-0.8997,-0.9806,-1.0251,-1.0186,-0.9354,-0.925,-0.893,-0.8096,-0.7999,-0.8131,-0.8495,-0.8549,-0.8756,-0.9247,-0.9606,-0.9789,-0.988,0.0,-0.9313,-0.9528,-0.9473,-0.947,-0.947,-0.9575,-0.9214,-0.8524,-0.8524,-0.7951,-0.6986,-0.6479,-0.594,-0.5291,-0.4483,-0.3783,-0.3164,-0.244,-0.1846,-0.1426,-0.141,-0.1377,-0.1339,-0.1334,-0.1234,-0.1096,-0.1288,0.0,0.0,0.0,0.0,0.0,0.0,0.0,0.0,0.0,0.0,0.0,0.0,0.0,0.0,0.0,0.0,0.0,0.0,0.0,0.0,0.0,0.0,0.0,0.0,-0.1545,-0.1554,-0.1579,-0.1562,-0.1561,-0.1655,-0.166,-0.1679,-0.1675,-0.168,-0.1686,-0.1703,-0.1544,-0.1496,-0.1507,-0.1356,-0.1203,-0.1101,-0.1109,-0.1063,-0.0959,-0.0959,-0.0851,-0.063,-0.063,-0.0573,-0.0401,-0.0286,-0.0229,0.0,-0.0057,0.0,0.0,0.0,0.0,0.0,0.0,0.0,0.0,0.0,0.0,0.0,-0.7643,-0.7824,-0.8197,-0.911,-0.9649,-1.016,-1.0824,-1.1325,-1.124,-1.0212,-1.0085,-0.9761,-0.893,-0.8888,-0.9069,-0.9511,-0.9515,-0.9685,-1.0136,-1.0328,-1.0407,-1.0455,-1.0304,-1.0218,-1.0241,-0.993,-0.9785,-0.9805,-0.9756,-0.9442,-0.894,-0.8889,-0.8605,-0.8059,-0.7954,-0.7559,-0.6862,-0.6046,-0.5271,-0.4429,-0.383,-0.2883,-0.1816,-0.1672,-0.163,-0.1709,-0.1556,-0.144,-0.1399,-0.1468,0.0,0.0,0.0,0.0,0.0,0.0,0.0,0.0,0.0,0.0,0.0,0.0,0.0,0.0,0.0,0.0,0.0,0.0,0.0,0.0,0.0,0.0,0.0,0.0,-0.1976,-0.2,-0.2073,-0.2075,-0.1957,-0.1712,-0.1719,-0.1678,-0.1707,-0.171,-0.1712,-0.1719,-0.172,-0.1733,-0.1818,0.0,0.0,0.0,0.0,-0.1355,-0.1119,-0.1119,-0.106,-0.106,-0.106,-0.1001,-0.1001,-0.0707,-0.053,-0.053,-0.0236,-0.0118,-0.0059,-0.0058,-0.0058,0.0,0.0,0.0,0.0,0.0,0.0,0.0,-0.7685,-0.7871,-0.8143,-0.8917,-0.9352,-0.9942,-1.0907,-1.1386,-1.1373,-1.0737,-1.0643,-1.0415,-0.9824,-0.9992,-1.0098,-0.9916,-1.0761,-1.1467,-1.1899,-1.1247,-1.1005,-1.1318,-1.0977,-1.0809,-1.0981,-1.093,-1.0978,-1.1139,-1.0687,-1.0535,-1.0569,-1.0103,-0.9864,-0.9686,-0.9055,-0.8602,-0.8248,-0.7479,-0.6337,-0.5079,-0.5577,-0.4997,-0.3721,-0.2571,-0.2795,-0.3586,-0.2385,-0.2,-0.2032,-0.1996,-0.169,-0.1344,-0.1329,0.0,0.0,0.0,0.0,0.0,0.0,0.0,0.0,0.0,0.0,0.0,0.0,0.0,0.0,0.0,0.0,0.0,0.0,0.0,0.0,-0.4387,-0.44,-0.4486,-0.4586,-0.4573,-0.3884,-0.1906,-0.1696,-0.1708,-0.1792,-0.1795,-0.1761,-0.1754,-0.1757,-0.1827,-0.1858,-0.1865,-0.187,-0.1818,-0.1824,-0.1768,-0.1709,-0.1709,-0.1591,-0.1296,0.0,0.0,-0.1001,-0.0942,-0.0884,-0.0884,-0.0825,-0.0648,-0.0412,-0.0411,-0.0235,0.0,0.0,0.0,0.0,0.0,0.0,0.0,-0.8291,-0.8402,-0.873,-0.9638,-1.0091,-1.0553,-1.1237,-1.1489,-1.1404,-1.0863,-1.0807,-1.0706,-1.044,-1.0704,-1.0869,-1.0814,-1.1516,-1.2162,-1.2624,-1.2105,-1.199,-1.2349,-1.1782,-1.1521,-1.1585,-1.1345,-1.1293,-1.1496,-1.1346,-1.1353,-1.1606,-1.1128,-1.0909,-1.0856,-1.0156,-0.9689,-0.94,-0.857,-0.7671,-0.6781,-0.6781,-0.6641,-0.6186,-0.4125,-0.3771,-0.4265,-0.3534,-0.3438,-0.3698,-0.3566,-0.3298,-0.2995,-0.2842,-0.2818,-0.283,0.0,0.0,0.0,0.0,0.0,0.0,0.0,0.0,0.0,0.0,0.0,0.0,0.0,0.0,-0.5807,-0.5118,0.0,-0.511,-0.5109,-0.5158,-0.5221,-0.5315,-0.5433,-0.5058,-0.3662,-0.3502,-0.3537,-0.3684,-0.3692,-0.3731,-0.3826,-0.3196,-0.2801,-0.2824,-0.2256,-0.1909,-0.1909,-0.1923,-0.1931,-0.1931,-0.1931,-0.1871,-0.169,-0.169,-0.1629,-0.1508,-0.1327,-0.1267,-0.1267,-0.1086,-0.0905,-0.0724,-0.0778,-0.0653,-0.047,-0.0289,-0.0172,0.0,0.0,0.0,0.0,-0.9078,-0.9212,-0.9692,-1.0552,-1.0931,-1.1217,-1.1547,-1.1591,-1.1435,-1.1028,-1.0965,-1.0965,-1.0965,-1.1291,-1.1679,-1.2026,-1.2103,-1.2401,0.0,-1.2887,-1.2904,-1.3308,-1.2641,-1.2297,-1.2302,-1.1809,-1.157,-1.1734,-1.1856,-1.2039,-1.2336,-1.1922,-1.1638,-1.1568,-1.1038,-1.0568,-1.016,-0.944,-0.8893,-0.8333,-0.7885,-0.7885,-0.7932,-0.5929,-0.518,-0.5159,-0.4846,-0.507,-0.5403,-0.52,-0.4978,-0.4709,-0.4487,-0.4424,-0.4454,-0.4611,-0.4807,0.0,0.0,0.0,0.0,0.0,0.0,0.0,0.0,0.0,-0.7176,-0.7173,-0.7372,-0.7182,-0.6158,-0.603,-0.6102,-0.5994,-0.6075,-0.617,-0.6172,-0.6419,-0.654,-0.627,-0.5779,-0.5507,-0.5654,-0.5629,-0.5679,-0.5831,-0.4604,-0.3844,-0.3796,-0.2586,-0.194,-0.194,-0.1964,-0.1977,-0.1977,-0.1977,-0.1977,-0.1977,-0.1977,-0.1977,-0.1977,-0.1729,-0.1606,-0.1606,-0.1235,-0.1111,-0.1111,-0.1035,-0.1023,-0.0951,-0.0714,-0.0412,-0.0174,-0.0058,0.0,0.0,0.0,-1.0325,-1.0886,-1.1011,-1.1078,-1.1217,-1.1547,-1.1591,-1.1591,-1.1529,-1.1498,-1.1498,-1.1498,-1.2003,-1.2729,-1.3666,-1.2717,-1.259,-1.3696,-1.3419,-1.3498,-1.4064,-1.3542,-1.3279,-1.3432,-1.2892,-1.2629,-1.2656,-1.2343,-1.2408,-1.2918,-1.2303,-1.1881,-1.1614,-1.133,-1.0869,-1.0204,-0.9934,-0.9245,-0.8432,-0.908,-0.8531,-0.7388,-0.7783,-0.7971,-0.7786,-0.6525,-0.6168,-0.6263,-0.6114,-0.5665,-0.5199,-0.5165,-0.5168,-0.5175,-0.5197,0.0,-0.6741,-0.6915,-0.7625,-0.8379,-0.8651,-0.8552,-0.8252,0.0,0.0,-0.8326,-0.7372,-0.7971,-0.8621,-0.8664,-0.8653,-0.8756,-0.9033,-0.9094,-0.9162,-0.9267,-0.9457,-0.9599,-0.9542,-0.739,-0.5925,-0.5945,-0.586,-0.5835,-0.5868,-0.4621,-0.3865,-0.3914,-0.2704,-0.1971,-0.1971,-0.1975,-0.1977,-0.1977,-0.1977,-0.1977,-0.1977,-0.1977,-0.1977,-0.1977,-0.1977,-0.1915,-0.1915,-0.1606,-0.142,-0.142,-0.1109,-0.0984,-0.0983,-0.0983,-0.0913,-0.0839,-0.0236,0.0,0.0,0.0,-0.991,-1.0564,-1.0863,-1.1171,-1.1437,-1.1569,-1.1591,-1.1591,-1.1591,-1.1591,-1.1591,-1.1591,-1.2138,-1.276,-1.336,-1.3101,-1.3195,-1.3913,-1.3716,-1.3857,-1.4518,-1.4259,-1.4007,-1.3791,-1.3567,-1.3305,-1.2964,-1.2812,-1.2932,-1.3257,-1.2675,-1.2307,-1.2178,-1.1716,-1.1153,-1.0467,-1.0387,-0.9887,-0.913,-0.9476,-0.9179,-0.863,-0.8977,-0.908,-0.897,-0.7904,-0.7774,0.0,0.0,-0.7564,-0.725,-0.7161,-0.7114,-0.7131,-0.7218,-0.7573,0.0,-0.8087,-0.8674,-0.9225,-0.9027,-0.8981,-0.8931,-0.8627,-0.8779,-0.9008,-0.879,-0.9114,-0.9474,-0.9503,-0.9559,-0.9617,0.0,-0.9649,-0.9734,-0.9805,-1.0125,-1.0341,-1.0341,-0.9469,-0.8871,-0.87,-0.8639,-0.8551,-0.844,-0.7236,-0.6404,-0.6261,-0.4981,-0.4246,-0.4246,-0.4246,-0.4246,-0.4246,-0.4246,-0.4246,-0.4246,-0.4246,-0.3879,-0.3081,-0.3081,-0.2714,-0.1977,-0.1853,-0.1791,-0.1791,-0.1667,-0.1606,-0.1544,-0.1359,-0.1292,-0.1221,-0.0781,-0.0594,-0.053,0.0,-0.9543,-1.0117,-1.051,-1.1021,-1.1435,-1.1591,-1.1591,-1.1591,-1.1591,-1.1591,-1.1628,-1.1716,-1.2189,-1.2616,-1.298,-1.3309,-1.3631,-1.396,-1.3906,-1.4179,-1.4949,-1.4767,-1.453,-1.4299,-1.4261,-1.4009,-1.3541,-1.3412,-1.348,-1.3728,-1.3062,-1.2684,-1.2591,-1.2111,-1.1494,-1.0909,-1.0705,-1.0295,-0.9826,-0.9677,-0.9579,-0.9579,-0.9579,-0.9579,-0.9529,-0.8931,-0.9049,0.0,0.0,-0.902,-0.8875,-0.8738,-0.869,-0.8717,-0.8793,-0.8865,-0.8878,-0.8992,-0.9327,-0.9525,-0.9126,-0.9179,-0.9331,-0.9331,-0.9367,-0.9484,-0.9809,-0.9925,-0.9966,-0.9943,-1.002,-1.0065,-0.995,-1.0007,-1.0052,-1.0101,-1.0478,-1.0717,-1.0764,-1.1036,-1.1161,-1.0923,-1.074,-1.0606,-1.0479,-0.9195,-0.8337,-0.8158,-0.6874,-0.6141,-0.6016,-0.6016,-0.6018,-0.5896,-0.5896,-0.5896,-0.5896,-0.5896,-0.5406,-0.4426,-0.4426,-0.3939,-0.3082,-0.3082,-0.2836,-0.253,-0.253,-0.2346,-0.1977,-0.1729,-0.1667,-0.1603,-0.1341,-0.1146,-0.0954,0.0,0.0,-1.0021,-1.0015,-1.0478,-1.0996,-1.1529,-1.1591,-1.1591,-1.1591,-1.1591,-1.1709,-1.1952,-1.2288,-1.2616,-1.298,-1.3309,-1.3631,-1.396,-1.3996,-1.4397,-1.536,-1.5006,-1.497,-1.5373,-1.5152,-1.4924,-1.4663,-1.413,-1.4,-1.4246,-1.3458,-1.289,-1.2581,-1.236,-1.1963,-1.1455,-1.0699,-1.0417,-1.0314,-0.9826,-0.9579,-0.9579,-0.9579,-0.9579,-0.9579,-0.9579,0.0,0.0,0.0,-0.9498,-0.9392,-0.9396,-0.9348,0.0,-0.9352,-0.9478,-0.9571,-0.9579,-0.9579,-0.9579,-0.9579,-0.9579,-0.9579,-0.9579,-0.9758,-0.9876,-0.9884,-1.0077,-1.0209,-1.0338,-1.0379,-1.0435,-1.0655,-1.0688,-1.0753,-1.0936,-1.1106,-1.1223,-1.1464,-1.165,-1.1768,0.0,-1.1152,-1.0781,-1.0789,-0.9559,-0.876,-0.8763,-0.7545,-0.6752,-0.6381,-0.6381,-0.6198,-0.5896,-0.5896,-0.5896,-0.5896,-0.5896,-0.5896,-0.5835,-0.5835,-0.5835,-0.5776,-0.5776,-0.5039,-0.3815,-0.3815,-0.3142,-0.1977,-0.1977,-0.1977,-0.1977,-0.1975,-0.1542,-0.0984,0.0,0.0,0.0,0.0,0.0,-1.0193,-1.0958,-1.1373,-1.1591,-1.1591,-1.1591,0.0,0.0,0.0,0.0,0.0,-1.2987,-1.3309,-1.3638,-1.3895,-1.4223,-1.4772,-1.5043,-1.5127,-1.4986,-1.5308,-1.5186,-1.4631,-1.4681,-1.476,-1.4805,-1.4031,-1.3596,-1.3423,-1.2861,-1.2338,-1.1845,-1.157,-1.1247,-1.09,-1.0708,-1.0462,-1.0154,-1.0321,-1.0224,-0.9986,0.0,0.0,0.0,-0.9579,-0.9587,-0.9535,-0.9535,-0.9535,-0.9535,-0.9535,-0.9579,-0.9579,-0.9579,-0.9579,-0.9579,-0.9579,-0.9713,-0.9799,-0.9799,-0.9937,-1.0103,-1.0225,-1.0298,-1.04,-1.0574,-1.0607,-1.0623,-1.0684,-1.0798,-1.0895,-1.1016,-1.122,-1.1427,-1.1492,-1.1663,0.0,0.0,0.0,0.0,-1.1152,-1.0721,-1.0354,-1.0112,-0.9505,-0.9076,-0.9012,-0.8772,-0.859,-0.8468,-0.8468,-0.8468,-0.8471,-0.7612,-0.7243,-0.7182,-0.6324,-0.5896,-0.5896,-0.5896,-0.5651,-0.5223,-0.5223,-0.4979,-0.4492,-0.3633,-0.3265,-0.3142,-0.2284,-0.1853,-0.1605,0.0,0.0,0.0,0.0,0.0,0.0,0.0,0.0,0.0,0.0,0.0,0.0,0.0,0.0,0.0,0.0,0.0,-1.3097,-1.3309,0.0,-1.3953,-1.432,-1.4801,-1.4979,-1.486,-1.5469,-1.5559,-1.5064,-1.5121,-1.5126,-1.5126,-1.4477,-1.4147,-1.4147,-1.3771,-1.3286,-1.2646,-1.2421,-1.2002,-1.1473,-1.1366,-1.1154,-1.0955,-1.1313,-1.1046,0.0,0.0,0.0,0.0,-1.0043,-0.9776,-0.9673,-1.0158,-1.0306,-1.0355,-1.0645,-1.0453,-1.0256,-1.0596,-1.0694,-1.0761,-1.0883,-1.0993,-1.1006,-1.0671,-1.0794,-1.0813,-1.0461,-1.0485,-1.0562,-1.0672,-1.0692,-1.0692,-1.0692,-1.0846,-1.1049,-1.1049,-1.1313,-1.1524,-1.1589,-1.1703,-1.1776,0.0,0.0,0.0,-1.1549,-1.1549,-1.1516,-1.1333,-1.1152,-1.0968,-1.0848,-1.0602,-1.0413,-1.017,-1.017,-1.0108,-0.9985,-0.906,-0.8664,-0.8602,-0.7691,-0.7304,-0.7304,-0.7304,-0.706,-0.6632,-0.6632,-0.6326,-0.5835,-0.4977,-0.4611,-0.4427,-0.3143,-0.2652,-0.259,0.0,0.0,0.0,0.0,0.0,0.0,0.0,0.0,0.0,0.0,0.0,0.0,0.0,0.0,0.0,0.0,0.0,0.0,0.0,0.0,0.0,-1.3945,-1.4313,-1.4589,-1.4849,-1.5491,-1.587,-1.587,-1.5411,-1.5188,-1.5195,-1.4761,-1.4568,-1.4581,-1.4907,-1.4607,-1.3831,-1.3172,-1.2554,-1.2098,-1.175,-1.1791,-1.2,-1.2396,0.0,0.0,0.0,0.0,0.0,-1.0875,-1.0162,-0.9965,-1.1272,-1.1658,-1.1755,-1.2533,-1.2047,-1.1512,-1.2484,-1.2737,-1.2802,-1.3127,-1.3253,-1.3028,-1.2177,-1.214,-1.1979,-1.0815,-1.0737,-1.0852,0.0,0.0,-1.0798,-1.0798,-1.091,-1.1037,-1.12,-1.139,-1.1577,0.0,0.0,0.0,0.0,0.0,0.0,-1.1978,0.0,-1.2121,-1.23,-1.2304,-1.2115,-1.1802,-1.1799,-1.1486,-1.0848,-1.0788,-1.0661,-1.034,-1.0131,-1.0,-0.9994,-0.991,-0.9842,-0.9842,-0.9836,-0.9095,-0.7989,-0.7983,-0.7243,-0.608,-0.6018,-0.6018,-0.5835,-0.4488,-0.3997,-0.3815,0.0,0.0,0.0,0.0,0.0,0.0,0.0,0.0,0.0,0.0,0.0,0.0,0.0,0.0,0.0,0.0,0.0,0.0,0.0,0.0,0.0,0.0,0.0,0.0,0.0,0.0,0.0,0.0,0.0,-1.5368,-1.5326,-1.467,-1.4366,-1.4379,-1.4078,-1.3886,-1.3668,-1.3758,-1.3674,-1.3539,0.0,-1.3247,-1.2991,0.0,0.0,0.0,0.0,0.0,0.0,-1.2107,-1.1712,-1.1755,-1.2716,-1.2624,-1.229,-1.3054,-1.3097,-1.2952,-1.3247,-1.329,-1.3303,-1.3413,-1.3554,-1.3688,-1.3435,-1.3514,-1.3516,-1.3247,-1.3185,-1.3221,0.0,0.0,0.0,-1.1987,-1.1505,0.0,-1.1216,-1.15,0.0,-1.1768,0.0,-1.1776,-1.1776,-1.1931,0.0,0.0,-1.2235,-1.2259,-1.2304,-1.2055,-1.1862,-1.1799,-1.1549,-1.1355,-1.1169,-1.0915,-1.0788,-1.0661,-1.0366,-1.0222,-1.0219,-1.0181,-1.0164,-1.0158,-1.0042,-0.9741,-0.9484,-0.9374,-0.9143,-0.8714,-0.7734,-0.7368,-0.7243,-0.5896,-0.5406,-0.5223,0.0,0.0,0.0,0.0,0.0,0.0,0.0,0.0,0.0,0.0,0.0,0.0,0.0,0.0,0.0,0.0,0.0,0.0,0.0,0.0,0.0,0.0,0.0,0.0,0.0,0.0,0.0,0.0,0.0,0.0,0.0,-1.4694,-1.4552,-1.4566,-1.4436,-1.4216,-1.3922,0.0,0.0,0.0,0.0,0.0,0.0,0.0,0.0,0.0,0.0,0.0,0.0,-1.4502,-1.4112,-1.3728,-1.4064,-1.3926,-1.3824,-1.4597,-1.4549,-1.4286,-1.4889,-1.4997,-1.498,-1.5219,-1.5405,-1.5401,-1.4878,-1.4952,-1.4888,-1.4239,-1.4078,-1.4078,-1.4078,-1.3166,-1.2575,0.0,0.0,0.0,-1.1901,-1.1892,-1.1776,0.0,-1.1776,0.0,-1.1878,-1.2048,-1.2227,0.0,-1.2422,-1.2454,-1.2536,-1.2347,-1.2218,-1.2218,-1.2089,-1.1895,-1.1766,-1.1379,-1.125,-1.125,-1.0791,-1.0628,-1.0628,-1.0374,-1.028,-1.0276,0.0,-1.0151,-1.0137,-0.9985,-0.9859,-0.9791,-0.9047,-0.8714,-0.8593,-0.7243,-0.6754,-0.6569,0.0,0.0,0.0,0.0,0.0,0.0,0.0,0.0,0.0,0.0,-1.1083,0.0,0.0,0.0,0.0,0.0,0.0,0.0,0.0,0.0,0.0,0.0,0.0,0.0,0.0,0.0,0.0,0.0,0.0,0.0,0.0,0.0,0.0,0.0,0.0,0.0,0.0,0.0,0.0,0.0,0.0,0.0,0.0,0.0,0.0,0.0,0.0,0.0,0.0,-1.6918,-1.6479,-1.546,-1.5371,-1.5419,-1.565,-1.648,-1.6048,-1.5586,-1.6863,-1.7037,-1.7022,-1.7537,-1.7709,-1.743,-1.6402,-1.6346,-1.6133,-1.4835,-1.4567,-1.4567,-1.4567,-1.3652,-1.3166,-1.4191,0.0,-1.1986,-1.3089,-1.251,-1.1985,-1.207,-1.1897,-1.1845,-1.2012,-1.2199,-1.2377,-1.2552,-1.2653,-1.267,-1.2762,-1.277,-1.277,-1.277,-1.277,-1.2638,-1.2375,-1.2045,-1.1846,-1.1846,-1.137,-1.1106,-1.1102,-1.0652,-1.0401,-1.0401,-1.0381,0.0,-1.0297,-1.0144,-1.0017,-1.0004,-0.9934,-0.9869,-0.9666,-0.8558,-0.8177,-0.7978,0.0,0.0,0.0,0.0,0.0,0.0,0.0,0.0,0.0,0.0,-1.0155,-1.1122,0.0,0.0,0.0,0.0,0.0,0.0,0.0,0.0,0.0,0.0,0.0,0.0,0.0,0.0,0.0,0.0,0.0,0.0,0.0,0.0,0.0,0.0,0.0,0.0,0.0,0.0,0.0,0.0,0.0,0.0,0.0,0.0,0.0,0.0,0.0,0.0,0.0,0.0,-1.6543,-1.6136,-1.6709,-1.6513,-1.6231,-1.6951,-1.7044,-1.7015,-1.7536,-1.7679,-1.7775,-1.8151,-1.8267,-1.815,-1.7733,-1.7694,0.0,-1.7094,-1.6988,-1.6988,-1.6988,-1.6074,-1.5375,-1.5535,-1.4593,-1.4014,-1.4488,-1.3659,-1.3063,0.0,-1.2427,-1.1845,-1.2012,-1.2199,0.0,0.0,0.0,-1.2804,-1.277,-1.277,-1.277,-1.277,-1.277,-1.277,-1.2704,-1.2375,-1.2243,-1.2243,-1.1816,-1.167,-1.167,-1.1245,-1.1038,-1.103,-1.064,0.0,-1.0443,-1.03,-1.0239,-1.0239,-1.0212,-1.0124,-0.9947,-0.9695,-0.9555,-0.9268,0.0,0.0,0.0,0.0,0.0,0.0,0.0,-0.7134,-0.7684,-0.8124,-0.8903,-0.9901,-1.1059,-1.1185,-1.131,0.0,0.0,0.0,0.0,0.0,0.0,0.0,0.0,0.0,0.0,0.0,0.0,0.0,0.0,0.0,0.0,0.0,0.0,0.0,0.0,0.0,0.0,0.0,0.0,0.0,0.0,0.0,0.0,0.0,0.0,0.0,0.0,0.0,0.0,0.0,-1.6832,-1.681,-1.7185,-1.7044,-1.6857,-1.7185,-1.7279,-1.7388,-1.7933,-1.7992,-1.8032,-1.8525,-1.8651,-1.8541,-1.8122,-1.8122,-1.8115,-1.7687,-1.7582,-1.7582,-1.7582,-1.6664,-1.6074,-1.667,-1.5435,-1.4695,-1.5665,-1.4312,-1.3316,-1.3641,-1.2608,-1.1882,-1.2146,-1.2251,-1.2418,0.0,0.0,-1.277,-1.277,-1.277,-1.277,-1.277,-1.277,-1.277,-1.277,-1.2638,-1.2572,-1.2572,-1.2243,-1.2045,-1.2045,-1.1446,-1.1181,-1.1178,-1.0774,0.0,-1.0599,-1.0453,-1.0388,-1.0382,-1.031,-1.0236,-1.0158,-1.0017,-0.994,-0.9804,0.0,0.0,0.0,0.0,0.0,0.0,0.0,-0.6618,-0.6975,-0.7451,-0.7749,-0.8522,-1.0066,-1.0478,-1.0832,0.0,0.0,0.0,0.0,0.0,0.0,0.0,0.0,0.0,0.0,0.0,0.0,-1.3492,0.0,0.0,0.0,0.0,0.0,0.0,0.0,0.0,0.0,0.0,0.0,0.0,0.0,0.0,0.0,0.0,0.0,0.0,0.0,0.0,-1.6455,-1.6712,-1.7011,-1.7279,-1.7279,-1.7279,-1.7279,-1.7279,-1.7279,-1.741,-1.8035,-1.8107,-1.8153,-1.8729,-1.8923,-1.8869,-1.8338,-1.8272,-1.8244,-1.7764,-1.7647,-1.7615,-1.7554,-1.6844,-1.6558,-1.747,-1.6204,-1.5516,-1.6845,-1.5015,-1.3669,-1.4054,-1.2724,0.0,-1.2272,-1.2308,0.0,0.0,0.0,0.0,-1.277,-1.277,-1.277,-1.277,-1.277,-1.277,-1.277,-1.277,-1.277,-1.277,-1.2507,-1.2441,-1.2375,-1.171,-1.138,-1.1314,-1.0986,0.0,0.0,-1.0592,-1.0541,-1.0531,-1.0419,-1.0354,-1.031,-1.0188,-1.0041,-0.997,0.0,0.0,0.0,0.0,0.0,0.0,0.0,-0.6416,-0.6581,-0.6909,-0.7012,-0.7396,-0.8328,-0.9416,-1.0281,0.0,0.0,0.0,0.0,0.0,0.0,0.0,0.0,0.0,0.0,0.0,0.0,-1.3492,-1.3492,0.0,0.0,0.0,0.0,0.0,0.0,0.0,0.0,0.0,0.0,0.0,0.0,0.0,0.0,0.0,0.0,0.0,0.0,-1.5855,-1.6419,-1.6448,-1.6821,-1.7279,-1.7279,-1.7279,-1.7279,-1.7279,-1.7279,-1.7359,-1.7765,-1.803,-1.8337,-1.8694,-1.906,-1.9175,-1.8869,-1.8593,-1.8345,-1.8014,-1.7759,-1.7554,-1.7499,-1.7454,-1.7477,-1.7582,-1.7444,-1.7555,-1.8238,-1.6171,-1.4761,-1.5338,0.0,0.0,-1.2272,-1.2308,0.0,0.0,0.0,0.0,-1.277,-1.277,-1.277,-1.277,-1.277,-1.277,-1.277,-1.277,-1.277,-1.277,-1.277,-1.277,-1.277,-1.2375,-1.2045,-1.1714,-1.1317,0.0,0.0,-1.0704,-1.07,-1.0697,-1.0683,-1.0595,-1.047,-1.0456,-1.028,-0.9984,0.0,0.0,0.0,0.0,0.0,0.0,-0.6387,-0.6387,-0.6453,-0.6585,-0.6585,-0.6811,-0.7368,-0.8069,-0.9,-1.0218,0.0,0.0,0.0,0.0,0.0,0.0,0.0,0.0,0.0,0.0,-1.3492,-1.3492,-1.3492,0.0,0.0,0.0,0.0,0.0,0.0,-1.3492,0.0,0.0,0.0,0.0,0.0,0.0,0.0,0.0,0.0,0.0,0.0,0.0,-1.6411,-1.6411,-1.6799,-1.7279,-1.7279,-1.7279,-1.7279,-1.7279,-1.7279,-1.7352,-1.7728,-1.7911,-1.8138,-1.8657,-1.8884,-1.8935,-1.8634,-1.848,-1.8226,-1.7613,-1.7387,-1.7286,-1.7295,-1.7345,-1.7434,-1.7555,0.0,0.0,-1.8404,-1.695,-1.5773,-1.5633,-1.4028,0.0,0.0,0.0,0.0,0.0,0.0,0.0,-1.277,-1.277,-1.277,-1.277,-1.277,-1.277,-1.277,-1.277,-1.277,-1.277,-1.277,-1.277,-1.277,-1.2441,-1.2243,-1.2045,-1.1446,0.0,0.0,-1.0787,-1.0721,-1.0721,-1.0721,-1.0683,-1.0619,-1.0524,-1.0419,-1.0304,0.0,0.0,0.0,0.0,0.0,-0.6387,-0.6387,-0.6387,-0.6387,-0.6387,-0.6387,-0.6486,-0.6716,-0.7007,-0.7744,-0.9154,-0.9799,0.0,0.0,0.0,0.0,0.0,0.0,0.0,0.0,0.0,-1.3492,-1.3492,-1.3492,-1.3492,0.0,0.0,-1.3492,-1.3492,0.0,0.0,0.0,0.0,0.0,0.0,0.0,0.0,0.0,0.0,0.0,0.0,0.0,0.0,0.0,0.0,0.0,-1.7208,-1.725,0.0,0.0,0.0,-1.7279,-1.733,-1.7611,-1.7743,-1.7925,-1.8386,-1.8577,-1.8599,-1.8398,-1.8304,-1.8067,-1.735,-1.7177,-1.7191,-1.7154,-1.7264,-1.7393,0.0,0.0,-1.7796,-1.8404,-1.7402,-1.6517,-1.6222,0.0,-1.3957,0.0,-1.2588,0.0,0.0,0.0,0.0,-1.277,-1.277,-1.277,-1.277,-1.277,-1.277,-1.277,-1.277,-1.277,-1.277,-1.277,-1.277,-1.277,-1.2572,-1.2375,-1.2243,-1.178,0.0,0.0,-1.092,-1.0787,-1.0721,-1.0721,-1.0721,-1.0707,-1.0599,-1.0531,-1.0477,0.0,0.0,0.0,0.0,0.0,0.0,-0.6387,-0.6387,-0.6387,-0.6387,-0.6387,-0.6387,-0.642,-0.642,-0.6708,-0.7456,-0.8941,0.0,0.0,0.0,0.0,0.0,0.0,0.0,0.0,0.0,-1.3492,-1.3492,-1.3492,-1.3492,-1.3492,-1.3492,-1.3492,-1.3492,0.0,0.0,0.0,0.0,0.0,0.0,0.0,0.0,0.0,0.0,0.0,0.0,0.0,0.0,0.0,0.0,0.0,0.0,0.0,-1.7279,-1.7279,0.0,-1.7279,-1.7279,-1.7286,-1.7567,-1.7816,-1.7823,-1.8064,-1.8306,-1.8306,-1.8115,-1.7831,-1.7468,-1.7448,-1.7418,-1.7132,-1.7349,-1.7582,-1.7582,-1.7582,0.0,-1.8404,-1.7402,-1.68,0.0,0.0,-1.5523,-1.4323,-1.3324,0.0,0.0,0.0,0.0,-1.277,-1.277,-1.277,-1.277,-1.277,-1.277,-1.277,-1.277,-1.277,-1.277,-1.277,-1.277,-1.277,-1.277,-1.2638,0.0,0.0,0.0,0.0,-1.1181,-1.0982,-1.0721,-1.0721,-1.0721,-1.0721,-1.0717,-1.0622,-1.049,0.0,0.0,0.0,0.0,0.0,0.0,0.0,-0.6387,-0.6387,-0.6387,-0.6387,-0.6387,-0.6387,-0.6387,-0.6482,-0.6745,-0.7739,0.0,0.0,0.0,0.0,0.0,0.0,0.0,0.0,0.0,-1.3346,-1.3492,-1.3346,-1.3382,-1.3492,-1.3492,-1.3492,-1.3492,-1.3492,-1.3492,0.0,0.0,0.0,0.0,0.0,0.0,0.0,0.0,0.0,0.0,0.0,0.0,0.0,0.0,0.0,0.0,0.0,0.0,0.0,-1.7279,-1.7279,-1.7279,-1.7279,-1.7359,-1.749,-1.7757,-1.7889,-1.7969,-1.7969,-1.7872,-1.764,-1.6989,-1.7002,-1.7076,-1.6887,-1.7079,-1.7407,-1.7549,-1.7582,0.0,0.0,0.0,0.0,-1.634,-1.4587,-1.3292,0.0,0.0,0.0,0.0,0.0,0.0,-1.277,-1.277,-1.277,-1.277,-1.277,-1.277,-1.277,-1.277,-1.277,-1.277,-1.277,-1.277,-1.277,-1.277,-1.277,0.0,0.0,0.0,0.0,-1.1314,-1.0982,-1.0721,-1.0721,-1.0721,-1.0721,-1.0721,-1.069,-1.0649,0.0,0.0,0.0,0.0,0.0,0.0,0.0,-0.6387,-0.6387,-0.6387,-0.6387,-0.6387,-0.6387,-0.6387,-0.6387,-0.6387,-0.6905,0.0,0.0,0.0,0.0,0.0,0.0,0.0,-1.2383,-1.2906,-1.3229,-1.3273,-1.3163,-1.3163,-1.3273,-1.3346,-1.3382,-1.3382,-1.3455,-1.3492,0.0,0.0,0.0,0.0,0.0,0.0,-1.3404,0.0,0.0,0.0,0.0,0.0,0.0,0.0,0.0,0.0,0.0,0.0,0.0,0.0,-1.7279,-1.7279,-1.7279,-1.7239,-1.725,-1.7446,-1.7497,-1.7497,-1.7497,-1.7538,-1.7468,-1.6866,-1.7001,-1.7112,-1.6921,-1.7166,-1.7427,-1.7555,-1.7582,-1.7796,0.0,0.0,0.0,-1.6642,0.0,0.0,0.0,0.0,0.0,0.0,0.0,0.0,-1.277,-1.277,-1.277,-1.277,-1.277,-1.277,-1.277,-1.277,-1.277,-1.277,-1.277,-1.277,-1.277,-1.277,-1.2704,0.0,0.0,0.0,0.0,-1.1516,-1.1181,-1.085,-1.0721,-1.0721,-1.0721,-1.0721,-1.0721,-1.0721,0.0,0.0,0.0,0.0,0.0,0.0,0.0,-0.6387,-0.6387,-0.6387,-0.6387,-0.6387,-0.6387,-0.6387,-0.6387,-0.6387,0.0,0.0,0.0,0.0,0.0,0.0,0.0,0.0,-1.2208,-1.2771,-1.301,-1.29,-1.29,-1.29,-1.29,-1.3083,-1.32,-1.3193,-1.3382,-1.3499,-1.3499,0.0,0.0,0.0,-1.3382,-1.3382,0.0,0.0,0.0,0.0,0.0,0.0,0.0,0.0,0.0,0.0,0.0,0.0,0.0,0.0,0.0,0.0,0.0,-1.7153,-1.7026,-1.7026,-1.7026,-1.7026,-1.7026,-1.7153,0.0,-1.7022,-1.7239,-1.7403,-1.7248,-1.744,-1.7582,-1.7582,-1.7582,-1.7796,0.0,-1.8468,0.0,0.0,-1.5811,0.0,-1.4567,0.0,0.0,0.0,0.0,0.0,-1.277,-1.277,-1.277,-1.277,-1.277,-1.277,-1.277,-1.277,-1.277,-1.277,-1.277,-1.277,-1.277,-1.277,-1.2638,0.0,0.0,0.0,0.0,-1.178,-1.1512,-1.1185,-1.085,-1.0721,-1.0721,-1.0721,-1.0721,-1.0721,0.0,0.0,0.0,0.0,0.0,0.0,0.0,0.0,0.0,0.0,-0.6387,-0.6387,-0.6387,-0.6387,-0.6387,0.0,0.0,0.0,0.0,0.0,0.0,0.0,0.0,0.0,-1.2319,-1.2002,-1.2187,-1.29,-1.2746,-1.2746,-1.29,-1.2936,-1.2973,-1.2973,-1.32,-1.3273,-1.3273,-1.3273,0.0,0.0,-1.3193,-1.3236,0.0,0.0,0.0,0.0,-1.4544,-1.5153,0.0,0.0,0.0,0.0,0.0,0.0,0.0,0.0,-1.7279,-1.7286,-1.7113,0.0,-1.7239,-1.7239,-1.7239,-1.7239,0.0,-1.7153,-1.7058,-1.7022,-1.7092,-1.7209,-1.7197,-1.744,-1.7582,-1.7582,-1.7582,-1.7796,-1.8404,-1.8058,0.0,-1.7918,-1.6669,-1.5482,-1.4695,0.0,0.0,0.0,0.0,-1.277,-1.277,-1.277,-1.277,-1.277,-1.277,-1.277,-1.277,-1.277,-1.277,-1.277,-1.277,-1.277,-1.277,-1.277,-1.277,0.0,0.0,0.0,-1.2111,-1.1578,-1.1317,-1.1185,-1.085,-1.0721,-1.0721,-1.0721,-1.0721,-1.0721,0.0,0.0,0.0,0.0,0.0,0.0,0.0,0.0,0.0,0.0,0.0,-0.6387,-0.6387,-0.6387,0.0,0.0,0.0,0.0,0.0,0.0,0.0,0.0,0.0,-1.1028,-1.1708,-1.1524,-1.1781,-1.2636,-1.2526,-1.2526,-1.2636,-1.2709,-1.2826,-1.29,-1.3119,-1.3163,-1.3046,-1.3046,-1.301,-1.2936,-1.3119,0.0,0.0,0.0,0.0,0.0,-1.4512,-1.5134,0.0,-1.6153,-1.6586,-1.7026,0.0,0.0,0.0,0.0,-1.7239,-1.716,-1.7026,-1.6972,-1.6958,-1.6958,-1.6958,-1.7005,-1.7153,-1.7174,-1.7184,-1.7239,-1.7256,-1.7313,-1.7347,-1.7475,-1.7582,-1.7582,-1.7702,0.0,0.0,0.0,-1.7562,-1.7707,-1.6907,-1.6064,0.0,0.0,0.0,0.0,0.0,-1.3486,-1.2836,-1.277,-1.277,-1.277,-1.277,-1.277,-1.277,-1.277,-1.277,-1.277,-1.277,-1.277,-1.277,-1.277,-1.2704,0.0,0.0,0.0,-1.2045,-1.1449,-1.1181,-1.1185,-1.085,-1.0721,-1.0721,-1.0721,-1.0721,-1.0721,0.0,0.0,0.0,0.0,0.0,0.0,0.0,0.0,0.0,0.0,0.0,0.0,0.0,0.0,0.0,0.0,0.0,0.0,0.0,0.0,0.0,0.0,-0.9624,-1.0701,-1.0918,-1.1101,-1.1552,-1.2305,-1.2305,-1.2305,-1.2305,-1.2489,-1.2673,-1.2856,-1.3046,-1.301,-1.2856,-1.29,-1.2863,-1.2863,-1.3169,0.0,0.0,0.0,0.0,0.0,0.0,0.0,0.0,-1.604,-1.6493,-1.7026,-1.72,0.0,0.0,0.0,0.0,0.0,-1.6885,-1.6737,-1.6636,-1.6636,-1.6683,-1.6744,-1.6989,-1.7156,-1.735,-1.7456,-1.7482,-1.7499,-1.7581,-1.7582,-1.7582,-1.7582,0.0,0.0,-1.8844,-1.8231,-1.7824,-1.7867,-1.7274,0.0,0.0,0.0,0.0,0.0,0.0,-1.4263,-1.2902,-1.277,-1.277,-1.277,-1.277,-1.277,-1.277,-1.277,-1.277,-1.277,-1.277,-1.277,-1.277,-1.277,-1.2638,-1.2375,0.0,0.0,-1.1846,-1.1317,-1.1181,-1.1185,-1.085,-1.0721,-1.0721,-1.0721,-1.0721,-1.0721,0.0,0.0,0.0,0.0,0.0,0.0,0.0,0.0,0.0,0.0,0.0,0.0,0.0,0.0,0.0,0.0,0.0,0.0,0.0,0.0,0.0,-0.7363,-0.8217,-0.9469,-1.1045,-1.0441,-1.0832,-1.2305,-1.2305,-1.2305,-1.2305,-1.2342,-1.2452,-1.2636,-1.2673,-1.2673,-1.2673,-1.282,-1.2783,-1.2693,-1.3374,0.0,0.0,0.0,0.0,0.0,0.0,0.0,0.0,-1.6342,-1.6671,-1.7026,-1.7026,0.0,0.0,0.0,0.0,0.0,-1.6461,-1.6454,-1.6636,-1.6878,-1.6932,-1.6996,-1.7261,-1.7071,-1.6931,-1.738,-1.7371,-1.7338,-1.7581,-1.7582,-1.7582,-1.7582,0.0,-1.8537,0.0,0.0,-1.9219,-1.9397,0.0,0.0,0.0,0.0,0.0,0.0,0.0,-1.4263,-1.2902,-1.277,-1.277,-1.277,-1.277,-1.277,-1.277,-1.277,-1.277,-1.277,-1.277,-1.277,-1.277,-1.277,-1.277,-1.2704,0.0,-1.1978,-1.2177,-1.1185,-1.0916,-1.1185,-1.085,-1.0721,-1.0721,-1.0721,-1.0721,-1.0721,0.0,0.0,0.0,0.0,0.0,0.0,0.0,0.0,0.0,0.0,0.0,0.0,0.0,0.0,0.0,0.0,0.0,0.0,0.0,0.0,-0.7814,-0.7999,-0.8337,-0.9125,-1.0421,-1.0501,-1.1136,-1.2305,-1.1965,-1.208,-1.2583,-1.2651,-1.2814,-1.3078,-1.2914,-1.2934,-1.3085,-1.306,-1.3054,-1.3137,0.0,0.0,0.0,0.0,0.0,0.0,0.0,0.0,0.0,0.0,-1.6575,-1.7106,-1.6878,0.0,0.0,0.0,0.0,0.0,-1.6501,-1.6407,-1.6543,-1.7092,-1.723,-1.7273,-1.7361,-1.7415,-1.7431,-1.7503,-1.7482,-1.7474,-1.7555,-1.7582,-1.7689,-1.8016,0.0,-1.8824,-1.9125,-1.9279,-1.9477,0.0,0.0,0.0,0.0,0.0,0.0,0.0,0.0,0.0,-1.4002,-1.3227,-1.277,-1.277,-1.277,-1.277,-1.277,-1.277,-1.277,-1.277,-1.277,-1.277,-1.277,-1.277,-1.277,-1.277,0.0,-1.1912,-1.1978,-1.1052,-1.0787,-1.092,-1.0787,-1.0721,-1.0721,-1.0721,-1.0721,-1.0721,0.0,0.0,0.0,0.0,0.0,0.0,0.0,0.0,0.0,0.0,0.0,0.0,0.0,0.0,0.0,0.0,0.0,0.0,0.0,-0.7591,-0.7681,-0.8656,-0.8889,-0.9258,-0.9895,-1.0689,-1.1515,-1.2405,-1.1936,-1.2119,-1.2891,-1.3006,-1.3167,-1.3416,-1.314,-1.3206,-1.3502,-1.3397,-1.3476,-1.3666,0.0,0.0,0.0,0.0,0.0,0.0,0.0,0.0,0.0,0.0,0.0,0.0,0.0,0.0,0.0,-1.6683,-1.6541,-1.6581,-1.6447,-1.636,-1.6477,-1.7098,-1.73,-1.7383,-1.7533,-1.7732,-1.7835,-1.7602,-1.7533,-1.7582,-1.7582,-1.7642,0.0,-1.8497,-1.8778,-1.9025,-1.9325,-1.9424,-1.9424,-1.9424,0.0,0.0,0.0,0.0,0.0,0.0,0.0,0.0,-1.4973,-1.3547,-1.277,-1.277,-1.277,-1.277,-1.277,-1.277,-1.277,-1.277,-1.277,-1.277,-1.277,-1.277,-1.277,-1.277,-1.2111,-1.178,-1.1714,-1.0982,-1.0721,-1.0721,-1.0721,-1.0721,-1.0721,-1.0721,-1.0721,-1.0721,0.0,0.0,0.0,0.0,0.0,0.0,0.0,0.0,0.0,0.0,0.0,0.0,0.0,0.0,0.0,0.0,0.0,0.0,-0.7294,-0.7412,-0.7851,-0.8665,-0.941,-0.9857,-0.9895,-1.0689,-1.1646,-1.275,-1.2732,-1.2854,-1.318,-1.3173,-1.3186,-1.3206,-1.3186,-1.3298,-1.3502,-1.3699,-1.3902,-1.4173,-1.4627,0.0,0.0,0.0,0.0,0.0,0.0,0.0,0.0,0.0,0.0,0.0,0.0,0.0,-1.7145,-1.6454,-1.6407,-1.6487,-1.5974,-1.6231,-1.6697,-1.6724,-1.696,-1.7246,-1.7822,-1.7793,-1.7596,-1.7607,-1.7621,-1.7582,-1.7582,-1.7816,-1.8149,-1.8798,-1.8911,-1.9025,-1.9325,0.0,-1.9424,0.0,0.0,0.0,0.0,0.0,0.0,0.0,0.0,0.0,-1.4973,-1.3547,-1.277,-1.277,-1.277,-1.277,-1.277,-1.277,-1.277,-1.277,-1.277,-1.277,-1.277,-1.277,-1.277,-1.277,-1.2111,-1.178,-1.1714,-1.0982,-1.0721,-1.0721,-1.0721,-1.0721,-1.0721,-1.0721,-1.0721,-1.0721,0.0,0.0,0.0,0.0,0.0,0.0,0.0,0.0,0.0,0.0,0.0,0.0,0.0,0.0,0.0,0.0,0.0,0.0,-0.7378,-0.7939,-0.8399,-0.8699,-0.9485,-1.0192,-1.0883,-1.1527,-1.1884,-1.2005,-1.2883,-1.3171,-1.2908,-1.3432,-1.3851,-1.4145,-1.3959,-1.4101,-1.4479,-1.4391,-1.4432,-1.4542,-1.4943,-1.5113,0.0,0.0,0.0,0.0,0.0,0.0,0.0,0.0,-1.7012,-1.7239,-1.6871,-1.6925,-1.7019,-1.6595,-1.6541,-1.6541,-1.6346,-1.6484,-1.6773,-1.7099,-1.7285,-1.7486,-1.7918,-1.7915,-1.7828,-1.7832,-1.7747,-1.7642,-1.7836,0.0,-1.8608,-1.8885,-1.9078,-1.9239,-1.9352,-1.9424,0.0,0.0,0.0,0.0,0.0,0.0,0.0,0.0,0.0,0.0,-1.6203,-1.4067,-1.277,-1.277,-1.277,-1.277,-1.277,-1.277,-1.277,-1.277,-1.277,-1.277,-1.277,-1.277,-1.277,-1.277,-1.2309,-1.1978,-1.178,-1.1251,-1.0916,-1.0721,-1.0721,-1.0721,-1.0721,-1.0721,-1.0721,-1.0721,0.0,0.0,0.0,0.0,0.0,0.0,0.0,0.0,0.0,0.0,0.0,0.0,0.0,0.0,0.0,0.0,0.0,0.0,-0.7855,-0.8399,-0.8927,-0.942,-1.0084,-1.0739,-1.1498,-1.2221,-1.2458,-1.2151,-1.3335,-1.372,-1.3427,-1.3917,-1.4392,-1.474,-1.4476,-1.4642,-1.5148,-1.5022,-1.5071,-1.5255,-1.5475,-1.5654,0.0,0.0,0.0,0.0,0.0,0.0,0.0,0.0,-1.7044,-1.7232,-1.6911,-1.6965,-1.7066,-1.6777,-1.673,-1.6751,-1.6755,-1.6773,-1.6937,-1.7525,-1.7636,-1.7709,-1.8063,-1.8074,-1.7964,-1.7911,-1.7828,-1.7849,-1.8195,0.0,0.0,0.0,-1.9232,-1.9424,-1.9424,-1.9424,0.0,0.0,0.0,0.0,0.0,0.0,0.0,0.0,0.0,0.0,0.0,-1.4782,-1.3293,-1.2836,-1.277,-1.277,-1.277,-1.277,-1.277,-1.277,-1.277,-1.277,-1.277,-1.277,-1.277,-1.277,-1.2309,-1.1978,-1.178,-1.1251,-1.092,-1.0721,-1.0721,-1.0721,-1.0721,-1.0721,-1.0721,-1.0721,0.0,0.0,0.0,0.0,0.0,0.0,0.0,0.0,-0.6988,-0.6992,-0.6992,0.0,0.0,0.0,0.0,0.0,-0.7522,-0.7863,-0.8661,-0.8703,-0.942,-1.1037,-1.1365,-1.1504,-1.151,-1.2622,-1.336,-1.36,-1.4186,-1.4646,-1.4893,-1.4646,-1.4646,-1.4886,-1.4584,-1.4697,-1.5246,-1.5476,-1.5915,-1.6411,-1.6419,-1.6249,-1.6063,0.0,0.0,0.0,0.0,0.0,0.0,0.0,-1.7279,-1.7279,-1.7279,-1.7279,-1.7239,-1.7066,-1.6979,-1.7004,-1.7063,-1.7134,-1.7239,-1.784,-1.7784,-1.774,-1.8265,-1.8167,-1.7911,-1.7648,-1.7842,-1.8175,-1.8818,-1.8925,0.0,-1.9377,-1.9424,-1.9424,-1.9424,0.0,0.0,0.0,0.0,0.0,0.0,0.0,0.0,0.0,0.0,0.0,0.0,-1.5619,-1.4263,-1.2836,-1.277,-1.277,-1.277,-1.277,-1.277,-1.277,-1.277,-1.277,-1.277,-1.277,-1.277,-1.277,-1.2111,-1.178,-1.1714,-1.0982,-1.0721,-1.0721,-1.0721,-1.0721,-1.0721,-1.0721,-1.0721,-1.0721,0.0,0.0,0.0,0.0,0.0,0.0,0.0,0.0,-0.7037,-0.7127,-0.7253,0.0,0.0,0.0,0.0,0.0,0.0,-0.8432,-0.8699,-0.9221,-1.0089,-1.1339,-1.091,-1.1398,-1.2959,-1.3551,-1.3768,-1.36,-1.4186,-1.4559,-1.4646,-1.5126,-1.5399,-1.548,-1.5689,-1.5915,-1.6053,-1.614,-1.6243,-1.6433,-1.6668,-1.6711,-1.6657,0.0,0.0,0.0,0.0,0.0,0.0,0.0,0.0,0.0,-1.7279,-1.7192,-1.7113,-1.72,-1.7113,-1.7051,-1.7262,-1.7478,-1.7739,-1.7948,-1.8095,-1.8213,-1.837,-1.8174,-1.8023,-1.8176,-1.8457,-1.8718,-1.8891,-1.9092,0.0,-1.9352,-1.9424,-1.9424,-1.9424,0.0,0.0,0.0,0.0,0.0,0.0,0.0,0.0,0.0,0.0,0.0,0.0,-1.4572,-1.3227,-1.2836,-1.277,-1.277,-1.277,-1.277,-1.277,-1.277,-1.277,-1.277,-1.277,-1.277,-1.277,-1.277,-1.2309,-1.2045,-1.1714,-1.0982,-1.0721,-1.0721,-1.0721,-1.0721,-1.0721,-1.0721,-1.0721,-1.0721,0.0,0.0,0.0,0.0,0.0,0.0,0.0,0.0,-0.7241,-0.7313,-0.7419,-0.7484,0.0,0.0,0.0,0.0,-0.8131,-0.8508,-0.915,-0.972,-1.0483,-1.1459,-1.1579,-1.2305,-1.3766,-1.3995,-1.4001,-1.378,-1.4409,-1.4784,-1.5004,-1.549,-1.5854,-1.6027,-1.6166,-1.6314,-1.643,-1.6565,-1.6675,-1.6769,-1.6967,-1.7047,-1.7062,0.0,0.0,0.0,0.0,0.0,0.0,0.0,0.0,0.0,-1.7279,-1.72,-1.7153,-1.7286,-1.7334,-1.7366,-1.769,-1.7909,-1.8182,-1.8438,-1.8445,-1.8433,-1.8577,-1.8373,-1.8272,-1.8577,-1.8804,-1.8958,-1.9078,-1.9245,0.0,-1.9424,-1.9424,-1.9424,-1.9424,0.0,0.0,0.0,0.0,0.0,0.0,0.0,0.0,0.0,0.0,0.0,0.0,-1.4969,-1.3706,-1.2625,-1.2625,-1.2625,-1.2625,-1.2625,-1.2625,-1.2625,-1.2625,-1.2661,-1.2731,-1.2804,-1.277,-1.277,-1.2309,-1.1912,-1.1516,-1.092,-1.0721,-1.0721,-1.0721,-1.0721,-1.0721,-1.0721,-1.0721,-1.0721,0.0,0.0,-0.7484,-0.7484,0.0,0.0,0.0,0.0,-0.7484,-0.7484,-0.7484,-0.7484,0.0,0.0,0.0,0.0,-0.8081,-0.8388,-0.9884,-1.0197,-1.0757,-1.1654,-1.2932,-1.3808,-1.4082,-1.4088,-1.4102,-1.4128,-1.4733,-1.527,-1.5672,-1.5839,-1.6137,-1.6535,-1.6242,-1.6278,-1.6588,-1.681,-1.7062,-1.7279,-1.7279,-1.7279,-1.7279,-1.7279,0.0,0.0,0.0,0.0,0.0,0.0,0.0,0.0,-1.7279,-1.7279,-1.7333,-1.7315,-1.7582,-1.7889,-1.8247,-1.8369,-1.857,-1.9147,-1.8921,-1.8625,-1.8892,-1.8782,-1.8666,-1.8901,-1.8965,-1.9045,-1.9319,-1.9424,-1.9424,-1.9424,-1.9424,-1.9424,-1.9424,0.0,0.0,0.0,0.0,0.0,0.0,0.0,0.0,0.0,0.0,0.0,0.0,-1.6186,-1.4965,-1.2367,-1.2308,-1.2308,-1.2308,-1.2308,-1.2308,-1.2308,-1.2308,-1.2389,-1.2612,-1.2731,-1.2754,-1.2704,-1.2111,-1.1582,-1.1185,-1.0853,-1.0721,-1.0721,-1.0721,-1.0721,-1.0721,-1.0721,-1.0721,-1.0721,0.0,0.0,-0.7484,-0.7484,0.0,0.0,0.0,0.0,0.0,-0.7484,0.0,0.0,0.0,0.0,0.0,0.0,-0.8984,-0.987,-1.0404,-1.0498,-1.1301,-1.3071,-1.367,-1.4021,-1.4088,-1.4088,-1.4202,-1.4429,-1.4953,-1.5301,-1.5397,-1.6331,-1.6786,-1.6919,-1.6979,-1.7072,-1.7137,-1.7177,-1.7267,-1.7279,-1.7279,-1.7279,-1.7279,-1.7279,-1.7279,0.0,0.0,0.0,0.0,0.0,0.0,0.0,-1.7279,-1.7279,-1.733,-1.764,-1.7757,-1.794,-1.8525,-1.8687,-1.8818,-1.9199,-1.9417,-1.9548,-1.9612,-1.9549,-1.95,-1.9307,-1.9272,-1.9292,-1.9417,-1.9424,-1.9424,-1.9424,-1.9424,-1.9424,0.0,0.0,0.0,0.0,0.0,0.0,0.0,0.0,0.0,0.0,0.0,0.0,-1.5984,-1.5113,-1.3913,-1.2367,-1.2308,-1.2308,-1.2308,-1.2308,-1.2308,0.0,-1.2308,-1.2324,-1.2369,-1.2544,-1.2572,-1.2375,-1.1978,-1.1582,-1.1185,-1.0853,-1.0721,-1.0721,-1.0721,-1.0721,-1.0721,-1.0721,-1.0721,-1.0721,0.0,0.0,0.0,0.0,0.0,0.0,0.0,0.0,0.0,0.0,0.0,0.0,0.0,-0.8313,0.0,0.0,-0.9552,-1.0037,-1.056,-1.112,-1.2169,-1.3758,-1.4008,-1.4088,-1.4088,-1.4343,-1.4527,-1.4683,-1.539,-1.5746,-1.5753,-1.6604,-1.7073,-1.7153,-1.7239,-1.7279,-1.7279,-1.7279,-1.7279,-1.7279,-1.7279,-1.7279,-1.7279,-1.7279,-1.7279,0.0,-1.7279,0.0,0.0,0.0,0.0,0.0,0.0,0.0,-1.7625,-1.7955,-1.816,-1.8357,-1.8694,-1.8906,-1.9067,-1.9235,-1.9415,-1.9581,-1.9735,-1.9821,-1.9786,-1.9811,-1.9591,-1.9424,-1.9424,-1.9424,-1.9424,-1.9424,-1.9424,-1.9424,0.0,0.0,0.0,0.0,0.0,0.0,0.0,0.0,0.0,0.0,0.0,-1.7666,-1.5807,-1.52,-1.3996,-1.2114,-1.2052,-1.2052,-1.2052,-1.2052,-1.2052,-1.2052,-1.2052,-1.2093,-1.2182,-1.2357,-1.2471,-1.238,-1.1919,-1.1571,-1.1449,-1.092,-1.0721,-1.0721,-1.0721,-1.0721,-1.0721,-1.0721,-1.0721,-1.0721,0.0,0.0,0.0,0.0,0.0,0.0,0.0,0.0,0.0,0.0,0.0,0.0,0.0,-0.8491,-0.88,0.0,0.0,0.0,-1.0893,-1.2034,-1.3102,-1.4075,-1.4135,-1.4162,-1.4162,-1.4659,-1.4959,-1.5007,-1.5784,-1.6207,-1.6264,-1.6764,-1.7113,-1.7279,-1.7279,-1.7279,-1.7279,-1.7279,-1.7315,-1.7366,-1.7366,-1.7395,-1.7447,0.0,0.0,0.0,0.0,-1.7447,-1.7447,-1.7447,0.0,0.0,0.0,0.0,-1.7962,-1.8291,-1.8577,-1.8803,-1.8855,-1.9067,-1.9279,-1.9279,-1.9406,-1.9539,-1.9804,-1.9919,-2.0012,-2.0279,-1.9873,-1.9482,-1.9482,-1.9424,-1.9424,-1.9424,-1.9424,-1.9424,0.0,0.0,0.0,0.0,0.0,0.0,0.0,0.0,0.0,0.0,0.0,-1.8298,-1.5752,-1.5575,-1.4446,-1.1897,-1.1776,-1.1776,-1.1776,-1.1776,-1.1776,-1.1776,-1.1776,-1.1849,-1.1991,-1.2146,-1.2328,-1.2519,-1.1839,-1.167,-1.1673,-1.1038,-1.0721,-1.0721,-1.0721,-1.0721,-1.0721,-1.0721,-1.0721,-1.0721,0.0,0.0,0.0,0.0,0.0,0.0,0.0,0.0,0.0,0.0,-0.7963,-0.802,-0.8139,-0.8692,-0.9265,-0.9777,-1.034,-1.1177,-1.2324,0.0,0.0,-1.4088,-1.4329,-1.4462,-1.4462,-1.4794,-1.5113,-1.5323,-1.5908,-1.6313,-1.6572,-1.6864,-1.7113,-1.7279,-1.7279,-1.7279,-1.7279,-1.7279,-1.7494,-1.775,-1.775,-1.7918,0.0,0.0,0.0,0.0,0.0,0.0,-1.8174,-1.8174,-1.8174,0.0,0.0,0.0,-1.8299,-1.8628,-1.8752,-1.8847,-1.9133,-1.9294,-1.9279,-1.9279,-1.9672,-2.007,-2.0121,-2.0355,-2.0558,0.0,-1.9989,-1.9758,-1.9758,-1.9533,-1.9424,-1.9424,-1.9424,0.0,0.0,0.0,0.0,0.0,0.0,0.0,0.0,0.0,0.0,0.0,-1.9424,-1.8298,-1.5752,-1.5575,-1.4446,-1.1897,-1.1776,-1.1776,-1.1776,-1.1776,-1.1776,-1.1776,-1.1776,-1.1788,-1.1809,-1.1837,-1.2028,-1.2349,-1.2046,-1.1797,-1.1507,-1.1256,-1.0986,-1.0721,-1.0721,-1.0721,-1.0721,-1.0721,-1.0721,-1.0721,0.0,0.0,0.0,0.0,0.0,0.0,0.0,0.0,0.0,0.0,0.0,-0.8376,-0.891,-0.9344,-0.9875,-1.0522,-1.1383,-1.2367,-1.3428,-1.4022,-1.4329,-1.4329,-1.4609,-1.477,-1.477,-1.5244,-1.5545,-1.5805,-1.6077,-1.6371,-1.6754,-1.6971,-1.7137,-1.7286,-1.7523,-1.7604,-1.7611,-1.7794,-1.7955,-1.8086,-1.8086,0.0,0.0,0.0,0.0,0.0,0.0,0.0,0.0,-1.8299,-1.8299,-1.8335,-1.8518,0.0,0.0,0.0,-1.906,-1.9096,-1.9235,-1.9279,-1.9279,-1.9279,-1.9762,-2.0183,-2.0183,-2.0623,-2.0902,-2.0608,-2.027,-1.9989,-1.9649,-1.9482,-1.9424,-1.9424,-1.9424,0.0,0.0,0.0,0.0,0.0,0.0,0.0,0.0,0.0,0.0,0.0,-1.9424,-1.8298,-1.5752,-1.5575,-1.4446,-1.1897,-1.1776,-1.1776,-1.1776,-1.1776,-1.1776,-1.1776,-1.1776,-1.1776,-1.1776,-1.1776,-1.1914,-1.2096,-1.1854,-1.161,-1.1466,-1.1214,-1.0906,-1.0721,-1.0721,-1.0721,-1.0721,-1.0721,-1.0721,-1.0721,0.0,0.0,0.0,0.0,0.0,0.0,0.0,0.0,0.0,0.0,0.0,-0.9332,-1.0045,0.0,0.0,0.0,-1.2414,-1.3225,-1.4259,-1.4516,-1.4629,-1.4629,-1.4917,-1.5115,-1.5115,-1.5548,-1.5882,-1.6008,-1.6195,-1.6511,-1.6975,-1.7168,-1.74,-1.7589,-1.783,-1.794,-1.7955,-1.8196,-1.835,-1.8423,-1.8423,0.0,0.0,0.0,0.0,0.0,0.0,0.0,0.0,0.0,-1.8547,-1.8591,-1.884,-1.8913,0.0,0.0,0.0,-1.9279,-1.9279,-1.9279,-1.9279,-1.9279,-1.9762,-2.0183,-2.0183,-2.0742,-2.1089,0.0,-2.0443,-2.0104,-1.954,-1.9424,-1.9424,-1.9424,-1.9424,0.0,0.0,0.0,0.0,0.0,0.0,0.0,0.0,0.0,0.0,0.0,-1.9424,-1.8415,-1.622,-1.5806,-1.4565,-1.2371,-1.1953,-1.1776,-1.1776,-1.1776,-1.1776,-1.1776,-1.1776,-1.1776,-1.1776,-1.1776,-1.1845,-1.1967,-1.1699,-1.1553,-1.1343,-1.1171,-1.095,-1.0666,-1.0704,-1.0721,-1.0721,-1.0721,-1.0721,-1.0721,0.0,0.0,0.0,0.0,0.0,0.0,0.0,0.0,0.0,0.0,0.0,-1.1176,-1.1219,-1.123,-1.1717,-1.2923,-1.3029,-1.3629,-1.4852,-1.4975,-1.4988,-1.4988,-1.5217,0.0,-1.5378,-1.5658,-1.5805,-1.5805,-1.6339,-1.6728,-1.7098,-1.7561,-1.7921,-1.8255,-1.8269,-1.8277,-1.8277,-1.8291,-1.8482,-1.8767,-1.8767,-1.895,0.0,0.0,0.0,0.0,0.0,0.0,0.0,0.0,0.0,-1.9228,-1.9294,-1.925,-1.9257,0.0,0.0,0.0,-1.9279,-1.9279,-1.9279,-1.9279,-1.9762,-2.0183,-2.0183,0.0,-2.1031,-2.0443,-2.0328,-2.0104,-1.954,-1.9424,-1.9424,-1.9424,-1.9424,0.0,0.0,0.0,0.0,0.0,0.0,0.0,0.0,0.0,0.0,0.0,-1.9424,-1.8829,-1.7455,-1.6279,-1.4976,-1.3665,-1.2427,-1.1776,-1.1776,-1.1776,-1.1776,-1.1776,-1.1776,-1.1776,-1.1776,-1.1776,-1.178,-1.1801,-1.1959,-1.1607,-1.1025,-1.1336,-1.1077,-1.0517,-1.0663,-1.0721,-1.0721,-1.0721,-1.0721,-1.0721,0.0,0.0,0.0,0.0,0.0,0.0,0.0,0.0,0.0,0.0,0.0,0.0,0.0,-1.2655,-1.328,-1.3817,-1.4421,-1.4963,-1.5435,-1.5506,-1.5524,-1.5524,-1.5617,-1.5725,-1.592,-1.5826,-1.6062,-1.6587,-1.6649,-1.6897,-1.7307,-1.7909,-1.8245,-1.8313,-1.8518,-1.8613,-1.8628,-1.884,-1.8994,-1.9103,-1.9103,-1.9169,-1.9279,0.0,0.0,0.0,0.0,0.0,0.0,0.0,0.0,-1.9279,-1.9279,-1.9279,-1.9279,-1.9279,-1.9279,-1.9279,-1.9279,-1.9279,-1.9279,-1.9279,-1.9762,-2.0183,-2.0183,-2.0742,-2.1089,-2.0673,-2.0443,-2.0162,-1.9764,-1.954,-1.9424,-1.9424,-1.9424,0.0,0.0,0.0,0.0,0.0,0.0,0.0,0.0,0.0,0.0,0.0,0.0,-1.8829,-1.7572,-1.6279,-1.5035,-1.3725,-1.2487,-1.1776,-1.1776,-1.1776,-1.1776,-1.1776,-1.1776,-1.1776,-1.1776,-1.1776,-1.1776,-1.178,-1.1841,-1.1682,-1.1305,-1.1281,-1.1113,-1.0832,-1.0726,-1.0721,-1.0721,-1.0721,-1.0721,-1.0721,0.0,0.0,0.0,0.0,0.0,-1.186,-1.186,-1.2309,-1.264,-1.264,0.0,0.0,0.0,0.0,-1.4649,-1.4935,-1.5586,-1.6025,-1.6025,-1.6038,-1.6023,-1.593,-1.6014,-1.6116,-1.6225,-1.6123,-1.6402,-1.7051,-1.6961,-1.7218,-1.7774,-1.829,-1.8586,-1.8642,-1.8855,-1.895,-1.8964,-1.9236,-1.9279,-1.9279,-1.9279,-1.9279,-1.9279,0.0,0.0,0.0,0.0,0.0,0.0,0.0,0.0,0.0,-1.9279,-1.9279,-1.9279,-1.9279,-1.9279,-1.9279,-1.9279,-1.9279,-1.9279,-1.9279,-1.9681,-2.0106,-2.0161,-2.0655,-2.0958,-2.0759,-2.0551,-2.0328,-1.9873,-1.9642,-1.9482,-1.9424,-1.9424,0.0,0.0,0.0,0.0,0.0,0.0,0.0,0.0,0.0,0.0,0.0,0.0,0.0,-1.8169,-1.6514,-1.4803,-1.314,-1.2251,-1.1776,-1.1776,-1.1776,-1.1776,-1.1776,-1.1776,-1.1776,-1.1776,-1.1776,-1.1712,-1.1647,-1.1647,-1.1468,-1.1275,-1.1198,-1.0986,-1.0758,-1.0651,-1.0673,-1.0721,-1.0721,-1.0721,-1.0721,0.0,0.0,-1.2689,-1.2916,-1.3012,-1.3064,-1.3064,-1.38,-1.4347,-1.4347,0.0,0.0,0.0,0.0,0.0,-1.6225,-1.6474,-1.665,-1.6657,-1.6664,-1.6522,-1.6252,-1.6475,-1.6518,-1.6328,-1.6532,-1.6821,-1.7134,-1.733,-1.7795,-1.8411,-1.8709,-1.8972,-1.9279,-1.9279,-1.9279,-1.9279,-1.9279,-1.9279,-1.9279,-1.9279,-1.9279,-1.9279,0.0,0.0,0.0,-1.9279,-1.9279,0.0,-1.9279,0.0,0.0,-1.9279,-1.9279,-1.9279,-1.9279,-1.9279,0.0,0.0,0.0,0.0,-1.9279,-1.952,-1.985,-2.0164,-2.0431,-2.0696,-2.0716,-2.0716,-2.0493,-1.9931,-1.9815,-1.97,-1.9424,-1.9424,0.0,0.0,0.0,0.0,0.0,0.0,0.0,0.0,0.0,0.0,0.0,-1.9424,-1.9424,-1.9424,-1.6991,-1.4446,-1.1957,-1.1837,-1.1776,-1.1776,-1.1776,-1.1776,-1.1776,-1.1776,-1.1776,-1.1776,-1.1776,-1.1647,-1.1273,-1.1273,-1.1091,-1.08,-1.0906,-1.0701,-1.0357,-1.0436,-1.0585,-1.0721,-1.0721,-1.0721,-1.0721,0.0,-1.342,-1.3832,-1.3923,-1.4475,-1.493,-1.493,-1.5343,-1.5668,0.0,0.0,0.0,0.0,0.0,-1.7008,-1.7334,-1.7442,-1.7594,-1.7826,-1.7652,-1.7513,-1.7415,-1.7358,-1.7352,-1.7436,-1.7352,-1.7556,-1.8058,-1.8124,-1.8339,0.0,0.0,-1.9191,-1.9279,-1.9279,-1.9279,-1.9279,-1.9279,-1.9279,-1.9279,-1.9279,-1.9279,-1.9279,0.0,0.0,0.0,0.0,-1.9279,-1.9279,0.0,-1.9279,-1.9279,0.0,0.0,-1.9279,-1.9279,-1.9279,0.0,-1.9279,0.0,0.0,0.0,0.0,0.0,-2.0055,-2.0313,-2.052,-2.0959,-2.073,-2.0385,-2.0213,-1.9815,-1.9482,-1.9424,0.0,0.0,0.0,0.0,0.0,0.0,0.0,0.0,0.0,0.0,0.0,0.0,-1.9424,-1.9424,-1.9424,-1.6991,-1.4857,-1.3255,-1.2251,-1.1776,-1.1776,-1.1776,-1.1776,-1.1776,-1.1776,-1.1776,-1.1776,-1.1776,-1.1647,-1.1273,-1.1273,-1.097,-1.044,-1.0602,-1.0642,-1.0675,-1.0565,-1.0585,-1.0721,-1.0721,-1.0721,-1.0721,-1.4064,-1.4655,-1.5105,-1.5361,-1.5847,-1.6263,-1.634,-1.6518,-1.669,0.0,0.0,0.0,0.0,0.0,0.0,-1.7999,-1.8021,-1.8101,-1.8291,-1.8158,-1.8016,-1.7917,-1.791,-1.7924,-1.7953,-1.7932,-1.8132,0.0,0.0,0.0,0.0,0.0,0.0,-1.9279,-1.9279,-1.9279,-1.9279,-1.9279,-1.9279,-1.9279,-1.9279,-1.9279,-1.9279,-1.9279,-1.9279,0.0,0.0,0.0,-1.9529,-1.9529,-1.9441,0.0,0.0,0.0,0.0,0.0,0.0,0.0,0.0,0.0,0.0,0.0,0.0,0.0,-2.0026,-2.0149,-2.0298,0.0,-2.0917,-2.0622,-2.0328,-1.9989,-1.9707,-1.9424,0.0,0.0,0.0,0.0,0.0,0.0,0.0,0.0,0.0,-1.9424,-1.9424,-1.9424,-1.9424,-1.9185,-1.8648,-1.7226,-1.5564,-1.3784,-1.296,-1.2367,-1.1837,-1.1776,-1.1776,-1.1776,-1.1776,-1.1776,-1.1776,-1.1776,-1.1526,-1.1091,-1.1091,-1.0728,-1.0129,-1.0162,-1.0291,-1.0451,-1.0408,-1.0493,-1.0633,-1.0697,-1.0721,-1.0721,0.0,-1.6163,-1.6361,-1.6916,-1.7035,-1.716,-1.7344,-1.7388,-1.7538,0.0,-1.7867,0.0,0.0,0.0,0.0,0.0,-1.8357,-1.8372,-1.8408,-1.8408,-1.8316,-1.8074,-1.8266,-1.8347,-1.817,-1.8304,0.0,0.0,0.0,0.0,0.0,0.0,0.0,0.0,-1.9279,-1.9279,-1.9279,-1.9279,-1.9294,-1.933,-1.9294,-1.9294,-1.9382,0.0,-1.9352,-1.9418,-1.9764,-1.9813,-1.9813,-1.9813,-1.9623,0.0,0.0,0.0,0.0,0.0,-1.9382,0.0,0.0,0.0,0.0,0.0,-1.9078,0.0,-1.9885,-1.9873,-1.995,-2.085,-2.1067,-2.0859,-2.0335,-2.0213,-2.0046,-1.9482,0.0,0.0,0.0,0.0,0.0,0.0,0.0,0.0,-1.9424,-1.9424,-1.9424,-1.9424,-1.9424,-1.8887,-1.7753,-1.7455,-1.6273,-1.3963,-1.3665,-1.296,-1.1837,-1.1776,-1.1776,-1.1776,-1.1776,-1.1776,-1.1776,-1.1776,-1.1405,-1.0789,-1.0789,-1.0425,-0.9822,-0.9822,-0.9849,-1.0004,-1.0219,-1.0368,-1.051,-1.0663,-1.0721,-1.0721,-1.6865,-1.7261,-1.7512,-1.7618,-1.7845,-1.8043,-1.8101,-1.8108,-1.8138,-1.8196,-1.8211,0.0,0.0,0.0,0.0,0.0,-1.8694,-1.8803,-1.9067,-1.9081,-1.9089,-1.9037,-1.9089,-1.9118,-1.9073,-1.9066,-1.9147,0.0,0.0,0.0,0.0,0.0,0.0,0.0,-1.9279,-1.9279,-1.9279,-1.9279,-1.9478,-1.9698,-1.9434,-1.9433,-1.972,-1.972,-1.9828,-2.0055,-2.012,-2.0142,-2.0142,-2.0142,-2.0098,-1.9993,0.0,0.0,0.0,-1.9747,0.0,0.0,0.0,0.0,0.0,0.0,0.0,0.0,-1.9052,-1.9117,-1.9292,0.0,-2.0045,-2.0046,-1.9931,-1.9707,-1.954,-1.9424,0.0,0.0,0.0,0.0,0.0,0.0,0.0,0.0,-1.9424,-1.9424,-1.9424,-1.9424,-1.9424,-1.9307,-1.9062,-1.7109,-1.5747,-1.5213,-1.326,-1.2074,-1.1776,-1.1776,-1.1776,-1.1776,-1.1776,-1.1776,-1.1776,-1.1776,-1.1405,-1.0789,-1.0789,-1.0425,-0.9822,-0.9822,-0.9849,-1.0004,-1.0219,-1.0368,-1.051,-1.0663,-1.0721,-1.0721,-1.7232,-1.7457,-1.7625,-1.7786,-1.7947,-1.8116,-1.8277,-1.8299,-1.8357,-1.8525,-1.8686,0.0,0.0,0.0,0.0,0.0,0.0,0.0,0.0,0.0,-1.9279,-1.9279,-1.9279,-1.9279,-1.9279,-1.9279,-1.9279,0.0,0.0,0.0,0.0,0.0,0.0,0.0,-1.9279,-1.9279,-1.9286,-1.95,-1.9669,-1.9801,-1.9639,-1.9711,-1.9996,-1.9996,-2.0098,-2.0205,-2.0365,-2.0424,-2.0424,-2.0424,-2.0314,0.0,-2.0183,-2.0183,-2.0146,0.0,-1.9996,-1.9959,0.0,0.0,0.0,-1.9395,0.0,0.0,0.0,-1.9251,-1.9339,-1.9919,-2.005,-1.9989,-1.9815,0.0,-1.9533,-1.9424,-1.9424,0.0,0.0,0.0,0.0,0.0,0.0,0.0,-1.9424,-1.9424,-1.9424,-1.9424,-1.9424,-1.9424,-1.9424,-1.7584,-1.6279,-1.5628,-1.3734,-1.2427,-1.1837,-1.1776,-1.1776,-1.1776,-1.1776,-1.1776,-1.1776,-1.1776,-1.1526,-1.1031,-1.0849,-1.0486,-1.0061,-0.9883,-0.9849,-1.0004,-1.0219,-1.0324,-1.0415,-1.0636,-1.0721,-1.0721,-1.7538,-1.752,-1.7691,-1.7955,-1.8057,-1.8182,-1.8445,-1.8489,-1.8584,-1.8847,-1.9111,-1.9279,-1.9279,-1.9279,-1.9279,0.0,0.0,0.0,0.0,0.0,-1.9279,-1.9279,-1.9279,-1.9279,-1.9279,-1.9279,-1.9279,-1.9279,0.0,0.0,0.0,0.0,0.0,0.0,0.0,-1.9368,-1.9389,-1.9705,-1.9889,-1.9945,-1.9945,-2.0098,-2.0278,-2.0278,-2.0314,-2.0402,-2.072,-2.0815,-2.0815,-2.0815,-2.064,-2.0365,-2.0365,-2.0365,0.0,0.0,0.0,0.0,0.0,0.0,0.0,0.0,0.0,-1.9036,0.0,0.0,0.0,0.0,0.0,0.0,0.0,0.0,0.0,0.0,0.0,0.0,0.0,0.0,0.0,0.0,0.0,0.0,-1.9424,-1.9424,-1.9424,-1.9424,-1.9424,-1.9424,-1.9424,-1.7935,-1.6685,-1.5634,-1.4147,-1.284,-1.1837,-1.1776,-1.1776,-1.1776,-1.1776,-1.1776,-1.1776,-1.1776,-1.1647,-1.1273,-1.097,-1.0607,-1.0308,-0.9974,-0.9876,-1.0004,-1.0219,-1.0297,-1.0354,-1.0622,-1.0721,-1.0721,-1.8306,-1.8423,-1.8635,-1.8672,-1.8921,-1.9118,-1.9162,-1.9169,-1.9177,-1.9213,-1.9302,-1.9279,-1.9279,-1.9279,-1.9279,-1.9279,0.0,0.0,-1.9279,0.0,0.0,-1.9279,-1.9279,-1.9279,-1.9279,-1.9279,-1.9279,-1.9279,0.0,0.0,0.0,0.0,0.0,0.0,-1.9279,-1.9492,-1.9764,-1.9801,-2.0091,-2.0618,-2.0618,-2.0633,0.0,-2.0669,-2.0852,-2.1101,-2.1137,-2.1152,-2.1152,0.0,-2.113,-2.1101,0.0,-2.1101,-2.1042,-2.075,0.0,0.0,0.0,0.0,0.0,0.0,-1.9195,0.0,0.0,0.0,-1.8988,-1.9022,0.0,0.0,0.0,0.0,0.0,0.0,0.0,0.0,-1.9011,0.0,0.0,0.0,0.0,0.0,0.0,-1.9424,-1.9424,-1.9424,-1.9424,-1.9424,-1.9424,-1.7114,-1.5747,-1.5575,-1.326,-1.1953,-1.1776,-1.1776,-1.1776,-1.1776,-1.1776,-1.1776,-1.1776,-1.1776,-1.1647,-1.1273,-1.097,-1.0607,-1.0254,-1.0091,-0.997,-1.0004,-1.0219,-1.0358,-1.0487,-1.0656,-1.0721,-1.0721,-1.8921,-1.8979,-1.9074,-1.9074,-1.9184,-1.9279,-1.9279,-1.9279,-1.9279,-1.9279,-1.9279,-1.9279,-1.9279,-1.9279,-1.9279,-1.9279,-1.9279,-1.9279,-1.9279,0.0,0.0,-1.9279,-1.9279,-1.9279,-1.9279,-1.9279,-1.9279,-1.9279,-1.9279,0.0,0.0,0.0,0.0,0.0,-1.961,-1.9733,-2.0047,-2.0237,-2.0472,-2.0742,-2.0933,-2.1006,0.0,-2.1006,-2.1094,-2.1211,-2.1211,-2.1211,-2.1211,0.0,-2.1211,0.0,0.0,0.0,0.0,0.0,0.0,0.0,0.0,0.0,0.0,0.0,0.0,0.0,-1.9055,0.0,-1.9185,0.0,0.0,0.0,0.0,0.0,0.0,0.0,-1.9285,0.0,0.0,0.0,0.0,0.0,0.0,0.0,0.0,0.0,0.0,0.0,-1.9424,-1.9424,-1.9424,-1.6991,-1.5575,-1.5575,-1.3144,-1.1776,-1.1776,-1.1776,-1.1776,-1.1776,-1.1776,-1.1776,-1.1776,-1.1776,-1.1712,-1.1587,-1.1035,-1.0784,-1.0692,-1.0208,-1.0088,-1.0314,-1.0378,-1.0439,-1.051,-1.0663,-1.0721,-1.0721,-1.9279,-1.9279,-1.9279,-1.9279,-1.9279,-1.9279,-1.9279,-1.9279,-1.9279,-1.9279,-1.9404,-1.9463,-1.9463,-1.9491,-1.9542,-1.9542,-1.9542,-1.9542,-1.9542,-1.9542,-1.9542,-1.9542,-1.9455,-1.9463,-1.9463,-1.9375,-1.9279,-1.9279,-1.9279,0.0,0.0,0.0,0.0,0.0,0.0,-2.0069,-2.0329,-2.0625,-2.0772,-2.0874,-2.1115,-2.1262,-2.1342,-2.1342,-2.1401,-2.1474,-2.1474,-2.1474,-2.1474,-2.1474,-2.1415,0.0,-2.1342,0.0,0.0,0.0,0.0,0.0,-2.1089,0.0,0.0,0.0,0.0,0.0,0.0,0.0,0.0,0.0,0.0,0.0,0.0,0.0,0.0,0.0,0.0,-1.9397,0.0,0.0,0.0,0.0,0.0,0.0,0.0,0.0,0.0,-1.9424,-1.9424,-1.9424,-1.9424,-1.6991,-1.5575,-1.5575,-1.3144,-1.1776,-1.1776,-1.1776,-1.1776,-1.1776,-1.1776,-1.1776,-1.1776,-1.1776,-1.1801,-1.1845,-1.1225,-1.1014,-1.1051,-1.0531,-1.036,-1.0493,-1.0538,-1.0555,-1.0568,-1.068,-1.0721,-1.0721,-1.9279,-1.9279,-1.9279,-1.9279,-1.9279,-1.9279,-1.9279,-1.9279,-1.9279,-1.9279,-1.9603,-1.9801,-1.9801,-2.0025,-2.0146,-2.0146,-2.0146,-2.0146,-2.0146,-2.0146,-2.0146,0.0,0.0,-1.9801,-1.9801,-1.9492,-1.9279,-1.9279,-1.9279,0.0,0.0,0.0,0.0,0.0,-2.0168,-2.0343,-2.0706,-2.072,-2.0903,-2.1196,-2.1203,-2.1401,-2.1679,0.0,-2.1876,-2.2154,-2.2154,0.0,0.0,-2.2154,-2.1942,0.0,0.0,0.0,0.0,0.0,0.0,0.0,0.0,0.0,0.0,-1.9982,0.0,0.0,0.0,0.0,-1.9424,0.0,0.0,0.0,0.0,0.0,0.0,0.0,0.0,0.0,0.0,0.0,0.0,0.0,0.0,0.0,0.0,0.0,-1.9424,-1.9424,-1.9424,-1.9424,-1.9424,-1.6991,-1.5575,-1.5575,-1.3144,-1.1776,-1.1776,-1.1776,-1.1776,-1.1776,-1.1776,-1.1776,-1.1776,-1.1776,-1.1866,-1.1962,-1.1649,-1.144,-1.1296,-1.1063,-1.0804,-1.0507,-1.0656,-1.0714,-1.0714,-1.0717,-1.0721,-1.0721,-1.9279,-1.9279,-1.9279,-1.9279,-1.9279,-1.9279,-1.9279,-1.9514,-1.9647,-1.9647,-1.9872,-2.0077,-2.0077,-2.0172,-2.0183,-2.0183,-2.0183,-2.0183,-2.0183,-2.0183,-2.055,-2.1341,-2.0554,-2.044,0.0,0.0,-1.9916,0.0,0.0,0.0,0.0,0.0,0.0,0.0,0.0,-2.0742,-2.1042,-2.1042,-2.1233,0.0,0.0,-2.2037,-2.2286,0.0,-2.2089,-2.2184,-2.2184,-2.2184,0.0,-2.2184,-2.2111,-2.2015,-2.2015,-2.1942,-2.1811,-2.1598,-2.1533,0.0,0.0,0.0,-2.091,-2.027,0.0,0.0,0.0,0.0,0.0,0.0,0.0,0.0,0.0,0.0,0.0,0.0,0.0,0.0,0.0,0.0,0.0,0.0,0.0,0.0,0.0,0.0,0.0,-1.9424,-1.9424,-1.9424,-1.9424,-1.776,-1.6455,-1.5634,-1.3968,-1.2664,-1.1837,-1.1776,-1.1776,-1.1776,-1.1776,-1.1837,-1.1943,-1.1943,-1.2044,-1.2148,-1.1834,-1.1616,-1.1388,-1.1117,-1.0877,-1.0649,-1.07,-1.0721,-1.0721,-1.0721,-1.0721,-1.0721,-1.9279,-1.9279,-1.9279,-1.9279,-1.9426,-1.95,-1.95,-1.9725,-1.993,-1.993,-2.0582,-2.0831,-2.0406,-2.0888,-2.101,-2.0581,-2.0581,-2.0633,-2.075,-2.0647,-2.0959,-2.1827,-2.0903,-2.0728,0.0,0.0,0.0,0.0,0.0,-2.0241,0.0,0.0,0.0,0.0,0.0,-2.1013,-2.1218,-2.1335,-2.1503,0.0,0.0,-2.2454,0.0,0.0,-2.2513,-2.2513,0.0,-2.2513,-2.2513,-2.2513,-2.244,-2.2337,-2.2337,-2.2264,-2.214,-2.1935,-2.1869,-2.1796,-2.1343,-2.1321,0.0,-2.0478,-2.027,0.0,-1.9649,0.0,0.0,0.0,0.0,0.0,0.0,0.0,0.0,0.0,0.0,0.0,0.0,-1.9424,0.0,0.0,0.0,0.0,0.0,0.0,-1.9424,-1.9424,-1.9424,-1.9424,0.0,0.0,-1.7103,-1.6279,-1.4614,-1.331,-1.2487,-1.2014,-1.1776,-1.1776,-1.1837,-1.1922,-1.197,-1.2097,-1.2227,-1.2398,-1.2207,-1.1982,-1.1747,-1.1421,-1.1089,-1.0853,-1.0721,-1.0721,-1.0721,-1.0721,-1.0721,-1.0721,-1.9323,-1.9323,-1.9323,-1.9323,-1.9632,-1.9837,-1.9837,-2.0055,-2.0212,-2.0227,-2.1532,-2.2071,-2.0954,-2.2173,-2.2642,-2.1534,-2.1419,-2.1559,-2.1869,-2.1596,0.0,0.0,-2.1343,-2.1003,-2.1044,0.0,0.0,0.0,0.0,0.0,0.0,0.0,0.0,0.0,-2.1225,0.0,-2.1254,-2.1584,-2.173,-2.1796,-2.2403,-2.2645,-2.2681,-2.2988,-2.3106,-2.3106,-2.3106,-2.3106,-2.3106,-2.3106,-2.2901,-2.2645,-2.2645,-2.2454,-2.2228,-2.2213,-2.2206,-2.2065,-2.1428,-2.1466,-2.1518,-2.0607,-2.0349,0.0,0.0,0.0,-1.9482,0.0,0.0,0.0,0.0,0.0,0.0,0.0,0.0,0.0,0.0,0.0,0.0,0.0,0.0,0.0,0.0,-1.9424,-1.9424,-1.9424,-1.9424,-1.9424,0.0,0.0,-1.7572,-1.7513,-1.5084,-1.3784,-1.3725,-1.2427,-1.178,-1.1792,-1.1951,-1.2036,-1.206,-1.2239,-1.2414,-1.2641,-1.2641,-1.2478,-1.2243,-1.1912,-1.1582,-1.1185,-1.085,-1.0721,-1.0721,-1.0721,-1.0721,-1.0721,-1.9989,-1.9989,-1.9989,-1.9989,-2.0055,-2.0113,-2.0113,-2.0391,-2.0684,-2.0933,-2.1519,-2.2263,-2.3131,-2.3581,-2.4093,-2.473,-2.4787,-2.4771,-2.487,0.0,0.0,-2.6188,-2.5205,-2.492,-2.5538,-2.3698,-2.2572,-2.2266,0.0,0.0,-2.1086,0.0,0.0,0.0,0.0,-2.1569,-2.1591,-2.192,-2.2184,-2.2418,-2.282,-2.2981,-2.2988,0.0,-2.3106,-2.3106,-2.3106,-2.3106,-2.3106,-2.3106,-2.3054,-2.2981,-2.2981,-2.293,-2.282,-2.2579,-2.2513,-2.2447,-2.2013,-2.2,-2.1912,-2.116,-2.0847,-2.0499,0.0,0.0,0.0,0.0,0.0,0.0,0.0,0.0,0.0,0.0,0.0,0.0,0.0,0.0,0.0,-1.9424,0.0,0.0,-1.9424,-1.9424,-1.9424,-1.9424,-1.9424,0.0,0.0,0.0,0.0,-1.7513,-1.5978,-1.4679,-1.3725,-1.2427,-1.1841,-1.1963,-1.2008,-1.217,-1.243,-1.2475,-1.2596,-1.2767,-1.2767,-1.2594,-1.2243,-1.1912,-1.1582,-1.1185,-1.085,-1.0721,-1.0721,-1.0721,-1.0721,-1.0721,-2.0869,-2.1213,-2.1418,-2.1418,-2.1709,-2.18,-2.1503,-2.1755,-2.204,-2.2432,-2.3096,-2.3684,-2.405,-2.5061,-2.5808,-2.5998,-2.5998,0.0,-2.6231,0.0,0.0,-2.6405,-2.6142,-2.5953,-2.5851,-2.4524,0.0,-2.3492,0.0,0.0,-2.1423,0.0,0.0,0.0,0.0,-2.1906,-2.1935,-2.2242,-2.255,-2.2849,-2.3032,-2.3106,0.0,-2.3106,-2.3106,-2.3106,-2.3106,-2.3106,-2.3106,-2.3106,-2.3106,-2.3106,-2.3106,-2.3106,-2.3069,-2.2886,-2.2835,-2.2769,-2.2462,-2.2253,-2.206,-2.1734,-2.1292,-2.0858,-2.0485,-2.0072,-1.9811,0.0,-1.9597,-1.9424,0.0,0.0,0.0,0.0,0.0,0.0,0.0,0.0,0.0,0.0,-1.9424,0.0,-1.9424,-1.9424,-1.9424,-1.9424,-1.9424,0.0,0.0,0.0,0.0,-1.835,-1.7103,-1.6096,-1.5381,-1.355,-1.2699,-1.2825,-1.2358,-1.2296,-1.2628,-1.2645,-1.2739,-1.277,-1.277,-1.2704,-1.2507,-1.1978,-1.1648,-1.1383,-1.092,-1.0721,-1.0721,-1.0721,-1.0721,-1.0721,-2.2188,-2.2863,-2.3287,-2.3392,-2.4072,-2.4398,-2.3869,-2.3796,-2.3979,-2.4392,-2.5361,-2.5669,-2.485,-2.6658,-2.7607,-2.6795,-2.6693,-2.6775,-2.7101,-2.6828,-2.6291,-2.5436,-2.6199,-2.6119,-2.4893,-2.4717,-2.4584,0.0,0.0,0.0,0.0,0.0,0.0,0.0,0.0,0.0,0.0,-2.2579,-2.2849,-2.3106,-2.3106,-2.3106,-2.3106,-2.3106,-2.3106,-2.3106,-2.3106,-2.3106,-2.3106,-2.3106,-2.3106,-2.3106,-2.3106,-2.3106,-2.3106,-2.3106,-2.3106,-2.3047,-2.2762,-2.2436,-2.2249,-2.2195,-2.1747,-2.1233,-2.1206,-2.0736,-2.0358,-2.028,-1.9877,-1.958,0.0,0.0,0.0,0.0,0.0,0.0,0.0,0.0,0.0,0.0,0.0,0.0,-1.9424,-1.9424,-1.9424,-1.9424,0.0,0.0,0.0,0.0,0.0,-1.9424,-1.8169,-1.7513,-1.7513,0.0,-1.3992,-1.3901,-1.3059,-1.2617,-1.2605,-1.2763,-1.277,-1.277,-1.277,-1.277,-1.277,-1.2111,-1.178,-1.1648,-1.0986,-1.0721,-1.0721,-1.0721,-1.0721,-1.0721,-2.4359,-2.4631,-2.4895,-2.5398,-2.6421,-2.7203,-2.744,-2.6388,-2.5685,-2.6058,-2.6286,-2.6811,-2.7955,-2.8464,-2.9211,-3.0415,-3.0255,0.0,0.0,0.0,0.0,-2.9808,-2.9976,-2.9766,-2.9145,-2.8147,-2.699,0.0,0.0,0.0,0.0,0.0,0.0,0.0,0.0,0.0,-2.2952,-2.3003,0.0,-2.3106,-2.3106,-2.3106,-2.3106,-2.3106,-2.3106,-2.3106,-2.3106,-2.3106,-2.3106,-2.3106,-2.3106,-2.3106,-2.3106,-2.3106,-2.3106,-2.3106,-2.3106,-2.3098,-2.304,-2.2963,-2.2759,-2.2256,-2.1878,-2.1556,-2.124,-2.087,-2.0547,-2.0371,-2.025,-1.9999,-1.9522,0.0,0.0,0.0,0.0,0.0,0.0,0.0,0.0,0.0,0.0,-1.9424,0.0,-1.9424,0.0,0.0,0.0,0.0,0.0,0.0,0.0,0.0,-1.8169,0.0,0.0,0.0,-1.512,-1.417,-1.4187,-1.3693,-1.2791,-1.2824,-1.277,-1.277,-1.277,-1.277,-1.277,-1.2375,-1.1843,-1.1247,-1.0853,-1.0721,-1.0721,-1.0721,-1.0721,-1.0721,-2.6857,-2.6947,-2.7031,-2.7378,-2.7964,-2.8538,-2.8943,-2.891,-2.8678,-2.8146,-2.8113,-2.8496,-2.9498,-3.0227,-3.0942,-3.1776,-3.167,-3.1641,-3.1846,-3.167,-3.1235,-3.0547,-3.0963,-3.0809,-2.9912,-2.909,-2.7939,-2.6456,0.0,0.0,0.0,0.0,0.0,-2.2425,0.0,-2.357,0.0,0.0,0.0,-2.3106,-2.3106,-2.3106,-2.3106,-2.3106,-2.3106,-2.3106,-2.3106,-2.3106,-2.3106,-2.3106,-2.3106,-2.3106,-2.3106,-2.3106,-2.3106,-2.3106,-2.3106,-2.3106,-2.3106,-2.2981,-2.2757,-2.242,-2.2136,-2.181,-2.1495,-2.1188,-2.0862,-2.0561,-2.0257,-1.989,-1.9477,-1.9424,0.0,0.0,0.0,0.0,0.0,0.0,0.0,0.0,0.0,0.0,0.0,0.0,0.0,0.0,0.0,0.0,0.0,0.0,0.0,0.0,0.0,0.0,0.0,0.0,0.0,-1.6447,-1.5169,-1.4382,-1.3875,-1.3161,-1.277,-1.277,-1.277,-1.277,-1.277,-1.2243,-1.1714,-1.1185,-1.085,-1.0721,-1.0721,-1.0721,-1.0721,-1.0721,-2.8909,-2.8964,-2.9053,-2.9254,-2.9369,-2.9614,-3.0093,-3.1031,-3.1281,-3.0279,-3.0158,-3.027,-3.0596,-3.1591,-3.2207,-3.2295,-3.2217,-3.2268,-3.2295,-3.2217,-3.1713,-3.0695,-3.1264,-3.1161,-3.0158,-2.9688,-2.8819,0.0,0.0,0.0,0.0,0.0,0.0,0.0,0.0,0.0,0.0,0.0,-2.4131,-2.3215,-2.3215,-2.3252,-2.3318,-2.3318,-2.3318,-2.3318,-2.3318,-2.3318,-2.3318,-2.3318,-2.3223,-2.3106,-2.3106,-2.3106,-2.3106,-2.3106,-2.3106,-2.3106,-2.3106,-2.2926,-2.2668,-2.2606,-2.2362,-2.2041,-2.1796,-2.15,-2.1177,-2.0869,-2.0334,-1.9806,-1.9512,-1.9459,0.0,0.0,0.0,0.0,0.0,0.0,0.0,0.0,0.0,0.0,-1.9424,0.0,0.0,0.0,0.0,0.0,-1.9424,0.0,0.0,0.0,0.0,-1.9506,-1.98,0.0,-1.8478,-1.8581,-1.6223,-1.5064,-1.4842,-1.342,-1.277,-1.277,-1.277,-1.277,-1.277,-1.2177,-1.1648,-1.1317,-1.0916,-1.0787,-1.0721,-1.0721,-1.0721,-1.0721,-2.9606,-2.9768,-3.0097,-3.1081,-3.1238,-3.1412,-3.1849,-3.2039,-3.2109,-3.1978,-3.1978,-3.1998,-3.2037,-3.2097,-3.2324,-3.2705,-3.2393,-3.2324,-3.2715,-3.2383,-3.2168,-3.2037,-3.2058,-3.21,-3.1978,-3.149,-3.0651,0.0,0.0,-2.6147,0.0,0.0,0.0,0.0,0.0,0.0,0.0,-2.323,-2.3407,-2.3552,-2.3552,-2.3727,-2.3991,-2.3991,-2.3991,-2.3991,-2.3991,-2.3991,-2.3991,-2.3991,-2.3596,-2.3106,-2.3106,-2.3106,-2.3106,-2.3106,-2.3106,-2.3106,-2.3106,-2.3113,-2.2988,-2.2675,-2.2362,-2.2104,-2.2069,-2.1818,-2.1484,-2.1183,-2.0639,-2.01,-1.9813,-1.976,-1.9673,0.0,0.0,0.0,0.0,0.0,-1.9424,-1.9424,0.0,0.0,0.0,-1.9424,0.0,0.0,-1.9424,0.0,0.0,0.0,0.0,-1.9424,0.0,-1.9506,-1.98,-1.9933,-1.954,-1.8587,-1.7352,-1.6118,-1.4842,-1.342,-1.277,-1.277,-1.277,-1.277,-1.277,-1.2375,-1.2045,-1.1714,-1.1314,-1.0986,-1.0721,-1.0721,-1.0721,-1.0721,-3.1722,-3.1691,-3.168,-3.2096,-3.2025,0.0,0.0,-3.2549,-3.2637,-3.2891,-3.2705,-3.2637,-3.2891,-3.292,-3.2988,-3.3154,-3.3018,-3.2998,-3.3164,-3.3008,-3.292,-3.292,-3.2685,-3.2549,-3.2549,-3.2129,-3.128,0.0,0.0,0.0,0.0,0.0,0.0,0.0,0.0,-2.5691,-2.4941,-2.4878,-2.4461,-2.3888,-2.3888,-2.3962,-2.4086,-2.4086,-2.4086,-2.4086,-2.4086,-2.4086,-2.4086,-2.4086,-2.391,-2.3662,-2.3464,-2.3398,-2.3362,-2.3164,-2.3106,-2.3106,-2.3106,-2.2918,-2.2731,-2.2362,-2.2174,-2.1985,-2.1607,-2.1544,-2.151,-2.1206,-2.0826,-2.0408,-2.0114,-1.992,-1.976,-1.9646,0.0,0.0,0.0,0.0,0.0,0.0,0.0,-1.9424,0.0,0.0,0.0,0.0,0.0,0.0,0.0,0.0,0.0,-1.9424,0.0,-1.9766,-2.0054,-2.0354,-2.0394,-2.0105,-1.8796,-1.749,-1.6138,-1.4716,-1.3613,-1.277,-1.2572,-1.2507,-1.2441,-1.1912,-1.1582,-1.1383,-1.1049,-1.0853,-1.0721,-1.0721,-1.0721,-1.0721,-3.2744,0.0,-3.2491,0.0,-3.2527,-3.249,-3.291,-3.2978,-3.3086,-3.3379,-3.3164,-3.3086,-3.3389,-3.3418,-3.3418,-3.3418,-3.3418,-3.3418,-3.3418,-3.3418,-3.3418,-3.3418,-3.3135,0.0,-3.2978,-3.2568,-3.1896,-3.0934,-3.0433,0.0,0.0,0.0,0.0,0.0,-2.8197,-2.763,-2.6806,-2.6304,-2.5855,-2.5439,-2.4609,-2.4538,-2.494,-2.4561,-2.4371,-2.4371,-2.4371,-2.4371,-2.4371,-2.4371,-2.4371,-2.4291,-2.3874,-2.3735,-2.3676,-2.3347,-2.3252,-2.323,-2.3135,-2.2926,-2.2668,-2.2362,-2.2174,-2.1985,-2.1481,-2.1418,-2.1362,-2.1172,-2.0949,-2.0715,-2.0421,-2.0194,-2.0027,-1.994,0.0,0.0,0.0,0.0,0.0,0.0,-1.9424,-1.9424,-1.9424,-1.9424,0.0,0.0,0.0,0.0,0.0,0.0,0.0,0.0,0.0,0.0,-2.0361,-2.0575,-2.0822,-2.1109,-1.9297,-1.8133,-1.7555,-1.5749,-1.4132,-1.277,-1.2441,-1.2309,-1.2243,-1.1644,-1.1314,-1.1181,-1.0916,-1.0787,-1.0721,-1.0721,-1.0721,-1.0721,-3.2229,-3.2229,-3.2305,-3.2715,-3.2793,-3.293,-3.335,-3.3418,-3.3418,-3.3418,-3.3418,-3.3418,-3.3418,-3.3418,-3.3418,-3.3418,-3.3418,-3.3418,-3.3418,-3.3418,-3.3418,0.0,0.0,-3.3418,-3.3418,-3.2998,-3.2783,-3.2783,0.0,0.0,-3.0174,0.0,-2.8323,-2.8323,-2.8323,-2.826,-2.8197,-2.6806,-2.7202,-2.8507,-2.5727,-2.5595,-2.6945,-2.5569,-2.5112,-2.5112,-2.5112,-2.5112,-2.5112,-2.5112,-2.5112,-2.4995,-2.4284,-2.4079,-2.4013,-2.3684,-2.3588,-2.3515,-2.3201,-2.3106,-2.2981,-2.2675,-2.2355,-2.2111,-2.2111,-2.1607,-2.1109,-2.1109,-2.1109,-2.1015,-2.0722,-2.0668,-2.0568,-2.0274,0.0,0.0,0.0,0.0,0.0,-1.9424,-1.9424,-1.9424,-1.9424,-1.9424,0.0,0.0,0.0,0.0,0.0,0.0,0.0,-1.9786,-1.98,0.0,-2.0668,-2.0675,-2.0822,-2.1046,-1.8332,-1.7683,-1.8908,-1.6138,-1.4132,-1.277,-1.2441,-1.2309,-1.2243,-1.1912,-1.1582,-1.1181,-1.1181,-1.0982,-1.0721,-1.0721,-1.0721,-1.0721,-3.2969,-3.3027,-3.3066,-3.3203,-3.3223,-3.3271,-3.3398,-3.3418,-3.3418,-3.3418,-3.3418,-3.3418,-3.3418,-3.3418,-3.3418,0.0,-3.3418,-3.3418,0.0,-3.3418,-3.3418,-3.3418,-3.3418,-3.3418,-3.3418,-3.3291,-3.3223,-3.3223,0.0,0.0,0.0,-3.1702,-3.1524,-3.1725,-3.0747,-3.0365,-3.0228,-2.8823,-2.8576,-2.9011,-2.8097,-2.8032,-2.8403,-2.7028,-2.6501,-2.6368,-2.545,-2.5127,-2.5127,-2.5127,-2.5127,-2.509,-2.4877,-2.4591,-2.4349,-2.402,-2.3771,-2.3574,-2.3471,-2.3085,-2.2675,-2.2355,-2.2174,-2.1985,-2.1544,-2.1235,-2.1109,-2.1109,-2.1109,-2.1082,-2.0989,-2.0808,-2.0648,-2.0548,-2.0287,0.0,0.0,0.0,0.0,0.0,-1.9486,-1.9424,-1.9424,-1.9424,0.0,0.0,0.0,0.0,0.0,0.0,0.0,0.0,-2.0294,0.0,-2.0675,-2.0869,-2.0498,-1.968,-1.878,-1.7619,-1.6138,-1.4329,-1.3227,-1.277,-1.2441,-1.2177,-1.1912,-1.1582,-1.1185,-1.0853,-1.0853,-1.0787,-1.0721,-1.0721,-1.0721,-1.0721,-3.3369,-3.3418,-3.3418,-3.3418,-3.3418,-3.3418,-3.3418,-3.3418,-3.3418,-3.3418,-3.3418,-3.3418,-3.3418,-3.3418,0.0,-3.3418,-3.3418,-3.3418,-3.3418,-3.3418,-3.3418,-3.3418,-3.3418,-3.3418,-3.3418,-3.3418,0.0,-3.3418,-3.3418,-3.3418,-3.3418,-3.3154,-3.3174,-3.3355,-3.2502,-3.21,-3.1973,-3.0604,-3.029,-3.0687,-2.9648,-2.9509,-2.9826,-2.8468,-2.7618,-2.702,-2.6167,-2.5517,-2.5127,-2.5127,-2.5127,-2.5127,-2.5127,-2.4987,-2.4686,-2.4364,-2.4123,-2.394,-2.3808,-2.341,-2.2918,-2.2532,-2.2258,-2.1922,-2.1235,-2.1172,-2.1235,-2.1109,-2.1109,-2.1109,-2.1109,-2.0962,-2.0842,-2.0842,-2.0595,-2.0401,-2.0401,0.0,0.0,0.0,0.0,0.0,0.0,-1.9693,-1.9693,0.0,0.0,0.0,0.0,0.0,0.0,-2.0394,-2.0581,-2.0728,-2.0842,-2.1022,-2.0659,-1.975,-1.9234,-1.7297,-1.4067,-1.3744,-1.3293,-1.277,-1.2441,-1.2111,-1.178,-1.138,-1.0982,-1.0721,-1.0721,-1.0721,-1.0721,-1.0721,-1.0721,-1.0721,-3.3418,-3.3418,-3.3418,0.0,-3.3418,-3.3418,-3.3418,-3.3418,-3.3418,-3.3418,-3.3418,-3.3418,-3.3418,-3.3418,-3.3418,-3.3418,0.0,0.0,-3.3418,-3.3418,-3.3418,-3.3418,-3.3418,-3.3418,-3.3418,-3.3418,-3.3418,-3.3418,-3.3418,-3.3418,-3.3418,-3.3418,-3.3418,-3.3418,-3.3418,-3.3418,-3.3292,-3.1973,-3.2174,-3.3155,-3.0558,-3.0281,-3.1249,-2.977,-2.8403,-2.7211,-2.702,-2.6167,-2.5127,-2.5127,-2.5127,-2.5127,-2.5127,-2.5127,-2.5061,-2.476,-2.465,-2.4503,-2.4203,-2.3881,-2.3561,-2.322,-2.2589,-2.1922,-2.1299,-2.1362,-2.1488,-2.1172,-2.1109,-2.1109,-2.1109,-2.1109,-2.1109,-2.1109,-2.0882,-2.0708,-2.0708,0.0,0.0,0.0,0.0,0.0,-2.0173,-2.0173,-2.0173,0.0,0.0,0.0,0.0,0.0,-2.0421,-2.0702,-2.0708,-2.0835,-2.1109,-2.1109,-2.0982,-2.0786,-1.9361,-1.6651,-1.2836,-1.4132,-1.4067,-1.277,-1.2441,-1.2111,-1.178,-1.1383,-1.1052,-1.0721,-1.0721,-1.0721,-1.0721,-1.0721,-1.0721,-1.0721,0.0,0.0,-3.3418,-3.3418,-3.3418,-3.3418,-3.3418,-3.3418,-3.3418,-3.3418,-3.3418,-3.3418,-3.3418,-3.3418,-3.3418,-3.3418,-3.3418,-3.3418,-3.3418,-3.3418,-3.3418,-3.3418,-3.3418,-3.3418,-3.3418,-3.3418,-3.3418,-3.3418,-3.3418,-3.3418,-3.3418,-3.3418,-3.3418,-3.3418,-3.3418,-3.3418,-3.3355,-3.3029,-3.3092,-3.3355,-3.2702,-3.2638,-3.2629,-3.016,-2.8986,-2.8403,-2.6308,-2.539,-2.5127,-2.5127,-2.5127,-2.5127,-2.5127,-2.5127,-2.5105,-2.5031,-2.4833,-2.4554,-2.4474,-2.4218,-2.3846,-2.3278,-2.2398,-2.167,-2.1544,-2.1362,-2.1172,-2.1109,-2.1109,-2.1109,-2.1109,-2.1109,-2.1109,-2.1109,-2.1049,-2.1009,-2.1009,-2.0755,0.0,0.0,-2.0368,-2.0173,-2.0173,-2.0173,-2.0173,0.0,0.0,0.0,-2.0675,-2.0822,-2.0935,-2.1002,-2.1009,-2.1042,-2.1109,-2.1109,-2.0075,-1.7946,-1.6522,-1.4782,-1.2836,-1.3161,-1.3095,-1.277,-1.2704,-1.2375,-1.178,-1.1714,-1.1251,-1.0721,-1.0721,-1.0721,-1.0721,-1.0721,-1.0721,-1.0721,-3.3418,-3.3418,-3.3418,-3.3418,-3.3418,-3.3418,-3.3418,-3.3418,-3.3418,-3.3418,-3.3418,-3.3418,-3.3418,-3.3418,-3.3418,-3.3418,-3.3418,-3.3418,-3.3418,-3.3418,-3.3418,-3.3418,-3.3418,-3.3418,-3.3418,-3.3418,-3.3418,-3.3418,-3.3418,-3.3418,-3.3418,-3.3418,-3.3418,-3.3418,-3.3418,-3.3418,-3.3418,-3.3418,-3.3029,-3.2438,-3.2438,-3.2046,-3.1332,-2.977,-2.8789,-2.8065,-2.6561,-2.5644,-2.5127,-2.5127,-2.5127,-2.5127,-2.5127,-2.5127,-2.5127,-2.5127,-2.4995,-2.4863,-2.4863,-2.4554,-2.416,-2.3515,-2.2808,-2.2194,-2.1883,-2.1583,-2.1299,-2.1109,-2.1109,-2.1109,-2.1109,-2.1109,-2.1109,-2.1109,-2.1109,-2.1109,-2.1109,-2.0969,-2.0875,-2.0875,-2.0728,-2.0635,-2.0635,-2.0635,-2.0635,-2.0635,-2.0782,0.0,-2.0875,-2.1022,-2.1109,-2.1109,-2.1109,-2.1109,-2.1109,-2.1109,-2.0011,-1.7876,-1.6522,-1.5103,-1.3744,-1.3095,-1.277,-1.277,-1.277,-1.2507,-1.2045,-1.1846,-1.1449,-1.092,-1.0787,-1.0721,-1.0721,-1.0721,-1.0721,-1.0721,-3.3418,-3.3418,-3.3418,-3.3418,-3.3418,-3.3418,-3.3418,-3.3418,-3.3418,-3.3418,-3.3418,-3.3418,-3.3418,-3.3418,-3.3418,-3.3418,-3.3418,-3.3418,-3.3418,-3.3418,-3.3418,-3.3418,-3.3418,-3.3418,-3.3418,-3.3418,-3.3418,-3.3418,-3.3418,-3.3418,-3.3418,-3.3418,-3.3418,-3.3418,-3.3418,-3.3418,-3.3418,-3.3418,-3.2702,-3.1643,-3.1643,-3.0798,-2.9509,-2.9248,-2.8337,-2.7078,-2.6886,-2.604,-2.5127,-2.5127,-2.5127,-2.5127,-2.5127,-2.5127,-2.5127,-2.5127,-2.5127,-2.5127,-2.5127,-2.4885,-2.4437,-2.3898,-2.3458,-2.3014,-2.233,-2.1931,-2.1599,-2.1179,-2.1109,-2.1109,-2.1109,-2.1109,-2.1109,-2.1109,-2.1109,-2.1109,-2.1109,0.0,-2.1109,-2.1109,-2.1109,-2.1109,-2.1109,-2.1109,-2.1109,-2.1109,-2.1109,-2.1109,-2.1109,-2.1109,-2.1109,-2.1109,-2.1109,-2.1109,-2.1109,-2.1109,-2.0392,-1.8972,-1.7882,-1.6457,-1.4842,-1.3678,-1.303,-1.277,-1.277,-1.2638,-1.2243,-1.1912,-1.1582,-1.1185,-1.085,-1.0721,-1.0721,-1.0721,-1.0721,-1.0721,-3.3418,-3.3418,-3.3418,-3.3418,-3.3418,-3.3418,-3.3418,-3.3418,-3.3418,-3.3418,-3.3418,-3.3418,-3.3418,-3.3418,-3.3418,-3.3418,-3.3418,-3.3418,-3.3418,-3.3418,-3.3418,-3.3418,-3.3418,-3.3418,-3.3418,-3.3418,-3.3418,-3.3418,-3.3418,-3.3418,-3.3418,-3.3418,-3.3418,-3.3418,-3.3418,-3.3418,-3.3418,-3.3418,-3.3292,-3.3092,-3.3092,-3.2237,-3.0863,-2.9639,-2.8337,-2.6953,-2.5846,-2.5255,-2.5127,-2.5127,-2.5127,-2.5127,-2.5127,-2.5127,-2.5127,-2.5127,-2.5127,-2.5127,-2.5127,-2.4885,-2.4562,-2.4437,-2.3985,-2.3357,-2.27,-2.2282,-2.1858,-2.1226,-2.1109,-2.1109,-2.1109,-2.1109,-2.1109,-2.1109,-2.1109,-2.1109,-2.1109,0.0,-2.1109,-2.1109,-2.1109,-2.1109,-2.1109,-2.1109,-2.1109,-2.1109,-2.1109,-2.1109,-2.1109,-2.1109,-2.1109,-2.1109,-2.1109,-2.1109,-2.1109,-2.1109,-2.0392,-1.8972,-1.878,-1.7361,-1.4907,-1.4651,-1.394,-1.277,-1.277,-1.2638,-1.2243,-1.1912,-1.1582,-1.1185,-1.085,-1.0721,-1.0721,-1.0721,-1.0721,-1.0721,-3.3418,-3.3418,-3.3418,-3.3418,-3.3418,-3.3418,-3.3418,-3.3418,-3.3418,-3.3418,-3.3418,-3.3418,-3.3418,-3.3418,-3.3418,-3.3418,-3.3418,-3.3418,-3.3418,-3.3418,-3.3418,-3.3418,-3.3418,-3.3418,-3.3418,-3.3418,-3.3418,-3.3418,-3.3418,-3.3418,-3.3418,-3.3418,-3.3418,-3.3418,-3.3418,-3.3418,-3.3418,-3.3418,-3.2965,-3.2301,-3.2301,-3.0992,-2.8977,-2.8328,-2.7219,-2.5906,-2.5322,-2.5127,-2.5127,-2.5127,-2.5127,-2.5127,-2.5127,-2.5127,-2.5127,-2.5127,-2.5127,-2.5127,-2.5127,-2.5017,-2.4832,-2.4624,-2.4318,-2.3977,-2.3236,-2.2813,-2.2411,-2.1794,-2.1477,-2.1296,-2.1136,-2.1109,-2.1109,-2.1109,-2.1109,0.0,-2.1109,-2.1109,-2.1109,-2.1109,-2.1109,-2.1109,-2.1109,-2.1109,-2.1109,-2.1109,-2.1109,-2.1109,-2.1109,-2.1109,-2.1109,-2.1109,-2.1109,-2.1109,-2.1109,-2.1109,-2.0786,-2.0138,-1.9361,-1.7941,-1.6009,-1.5233,-1.4132,-1.277,-1.277,-1.2704,-1.2572,-1.2243,-1.1846,-1.1516,-1.1115,-1.0853,-1.0721,-1.0721,-1.0721,-1.0721,-3.3418,-3.3418,-3.3418,-3.3418,-3.3418,-3.3418,-3.3418,-3.3418,-3.3418,-3.3418,-3.3418,-3.3418,-3.3418,-3.3418,-3.3418,-3.3418,-3.3418,-3.3418,-3.3418,-3.3418,-3.3418,-3.3418,-3.3418,-3.3418,-3.3418,-3.3418,-3.3418,-3.3418,-3.3418,-3.3418,-3.3418,-3.3418,-3.3418,-3.3418,-3.3418,-3.3418,-3.3418,-3.3418,-3.2765,-3.1781,-3.1781,-3.0077,-2.761,-2.761,-2.6561,-2.5127,-2.5127,-2.5127,-2.5127,-2.5127,-2.5127,-2.5127,-2.5127,-2.5127,-2.5127,-2.5127,-2.5127,-2.5127,-2.5127,-2.5052,-2.4916,-2.457,-2.4458,-2.4257,-2.3644,-2.3308,-2.2918,-2.2295,-2.192,-2.1612,-2.1256,-2.1156,-2.1109,-2.1109,0.0,-2.1109,0.0,-2.1109,-2.1109,-2.1109,-2.1109,-2.1109,-2.1109,-2.1109,-2.1109,-2.1109,-2.1109,-2.1109,-2.1109,-2.1109,-2.1109,-2.1109,-2.1109,-2.1109,-2.1109,-2.1109,-2.1109,-2.1109,-2.0005,-1.8588,-1.6974,-1.5879,-1.4455,-1.277,-1.277,-1.277,-1.277,-1.2441,-1.2111,-1.178,-1.138,-1.0982,-1.0721,-1.0721,-1.0721,-1.0721,-3.3418,-3.3418,-3.3418,-3.3418,-3.3418,-3.3418,-3.3418,-3.3418,-3.3418,-3.3418,-3.3418,-3.3418,-3.3418,-3.3418,-3.3418,-3.3418,-3.3418,-3.3418,-3.3418,-3.3418,-3.3418,-3.3418,-3.3418,-3.3418,-3.3418,-3.3418,-3.3418,-3.3418,-3.3418,-3.3418,-3.3418,-3.3418,-3.3418,-3.3418,-3.3418,-3.3418,-3.3418,-3.3418,-3.3355,-3.3228,-3.3228,-3.1534,-2.9051,-2.9051,-2.7419,-2.5127,-2.5127,-2.5127,-2.5127,-2.5127,-2.5127,-2.5127,-2.5127,-2.5127,-2.5127,-2.5127,-2.5127,-2.5127,-2.5127,-2.4849,-2.457,-2.4503,-2.4278,-2.3915,-2.356,-2.3476,-2.3238,-2.2603,-2.2257,-2.193,-2.1588,-2.1296,-2.1109,-2.1109,0.0,0.0,-2.1109,-2.1109,-2.1109,-2.1109,-2.1109,-2.1109,-2.1109,-2.1109,-2.1109,-2.1109,-2.1109,-2.1109,-2.1109,-2.1109,-2.1109,-2.1109,-2.1109,-2.1109,-2.1109,-2.1109,-2.1109,-2.1109,-2.0982,-1.9559,-1.698,-1.691,-1.5364,-1.277,-1.277,-1.277,-1.277,-1.2441,-1.2111,-1.178,-1.138,-1.0982,-1.0721,-1.0721,-1.0721,-1.0721,-3.3418,-3.3418,-3.3418,-3.3418,-3.3418,-3.3418,-3.3418,-3.3418,-3.3418,-3.3418,-3.3418,-3.3418,-3.3418,-3.3418,-3.3418,-3.3418,-3.3418,-3.3418,-3.3418,-3.3418,-3.3418,-3.3418,-3.3418,-3.3418,-3.3418,-3.3418,-3.3418,-3.3418,-3.3418,-3.3418,-3.3418,-3.3418,-3.3418,-3.3418,-3.3418,-3.3418,-3.3418,-3.3418,-3.3418,-3.3418,-3.3418,-3.2247,-3.041,-2.9509,-2.8007,-2.6234,-2.5382,-2.5127,-2.5127,-2.5127,-2.5127,-2.5127,-2.5127,-2.5127,-2.5127,-2.5127,-2.5127,-2.5127,-2.5127,-2.4781,-2.4435,-2.4231,-2.4095,-2.3924,-2.3534,-2.3439,-2.3349,-2.2919,-2.2496,-2.2236,-2.1923,-2.1583,-2.1383,-2.1383,0.0,-2.1109,-2.1109,-2.1109,-2.1109,-2.1109,-2.1109,-2.1109,-2.1109,-2.1109,-2.1109,-2.1109,-2.1109,-2.1109,-2.1109,-2.1109,-2.1109,-2.1109,-2.1109,-2.1109,-2.1109,-2.1109,-2.1109,-2.1109,-2.1109,-2.0227,-1.8499,-1.7587,-1.6161,-1.4504,-1.357,-1.3169,-1.3169,-1.3034,-1.2624,-1.2082,-1.1946,-1.1536,-1.0995,-1.0995,-1.0995,-1.0995,-3.3418,-3.3418,-3.3418,-3.3418,-3.3418,-3.3418,-3.3418,-3.3418,-3.3418,-3.3418,-3.3418,-3.3418,-3.3418,-3.3418,-3.3418,-3.3418,-3.3418,-3.3418,-3.3418,-3.3418,-3.3418,-3.3418,-3.3418,-3.3418,-3.3418,-3.3418,-3.3418,-3.3418,-3.3418,-3.3418,-3.3418,-3.3418,-3.3418,-3.3418,-3.3418,-3.3418,-3.3418,-3.3418,-3.3418,-3.3418,-3.3418,-3.2565,-3.112,-2.977,-2.8337,-2.6886,-2.5584,-2.5127,-2.5127,-2.5127,-2.5127,-2.5127,-2.5127,-2.5127,-2.5127,-2.5127,-2.5127,-2.5059,-2.4916,-2.4638,-2.4299,-2.4027,-2.3823,-2.3618,-2.3406,-2.3406,-2.3345,-2.314,-2.2822,-2.2492,-2.2158,-2.1884,-2.1755,-2.1755,-2.1516,-2.1383,-2.1383,-2.1309,-2.1249,-2.1249,-2.1162,-2.1109,-2.1109,-2.1109,-2.1109,-2.1109,-2.1109,-2.1109,-2.1109,-2.1109,-2.1156,-2.1243,-2.1249,-2.1296,-2.1383,-2.1296,-2.1296,-2.1383,-2.1383,-2.0767,-1.9561,-1.8039,-1.6737,-1.5536,-1.4049,-1.3372,-1.3372,-1.3372,-1.2956,-1.2268,-1.2268,-1.1851,-1.1231,-1.1231,-1.1231,-1.1231,-3.3418,-3.3418,-3.3418,-3.3418,-3.3418,-3.3418,-3.3418,-3.3418,-3.3418,-3.3418,-3.3418,-3.3418,-3.3418,-3.3418,-3.3418,-3.3418,-3.3418,-3.3418,-3.3418,-3.3418,-3.3418,-3.3418,-3.3418,-3.3418,-3.3418,-3.3418,-3.3418,-3.3418,-3.3418,-3.3418,-3.3418,-3.3418,-3.3418,-3.3418,-3.3418,-3.3418,-3.3418,-3.3418,-3.3418,-3.3418,-3.3418,-3.2565,-3.1185,-2.977,-2.8328,-2.6953,-2.5584,-2.5127,-2.5127,-2.5127,-2.5127,-2.5127,-2.5127,-2.5127,-2.5127,-2.5127,-2.5127,-2.4984,-2.4638,-2.4231,-2.4027,-2.4027,-2.3406,-2.3003,-2.3338,-2.3406,-2.3406,-2.3406,-2.3174,-2.2895,-2.2485,-2.2184,-2.1991,-2.1991,-2.1984,-2.1984,-2.1984,-2.1802,-2.1621,-2.1621,-2.1296,-2.1109,-2.1109,-2.1109,-2.1109,-2.1109,-2.1109,-2.1109,-2.1109,-2.1109,-2.1249,-2.1608,-2.1621,-2.1762,-2.1984,-2.1769,-2.1769,-2.1984,-2.1984,-2.1245,-1.9899,-1.8362,-1.6954,-1.5541,-1.4053,-1.3445,-1.3376,-1.3376,-1.296,-1.2272,-1.2272,-1.1855,-1.1165,-1.1165,-1.1165,-1.1165,-3.3418,-3.3418,-3.3418,-3.3418,-3.3418,-3.3418,-3.3418,-3.3418,-3.3418,-3.3418,-3.3418,-3.3418,-3.3418,-3.3418,-3.3418,-3.3418,-3.3418,-3.3418,-3.3418,-3.3418,-3.3418,-3.3418,-3.3418,-3.3418,-3.3418,-3.3418,-3.3418,-3.3418,-3.3418,-3.3418,-3.3418,-3.3418,-3.3418,-3.3418,-3.3418,-3.3418,-3.3418,-3.3418,-3.3418,-3.3418,-3.3418,-3.3155,-3.2502,-3.0095,-2.892,-2.8271,-2.5913,-2.5127,-2.5127,-2.5127,-2.5127,-2.5127,-2.5127,-2.5127,-2.5127,-2.5127,-2.5127,-2.4984,-2.4638,-2.4231,-2.3959,-2.3679,-2.327,-2.2934,-2.2996,-2.3065,-2.3065,-2.3065,-2.2997,-2.2868,-2.2794,-2.2485,-2.2291,-2.2291,-2.2118,-2.1984,-2.1984,-2.1911,-2.1857,-2.1857,-2.1597,-2.1423,-2.1423,-2.1229,-2.1109,-2.1109,-2.1109,-2.1203,-2.141,-2.1423,-2.1557,-2.185,-2.1857,-2.1997,-2.2285,-2.1997,-2.1897,-2.1984,-2.1984,-2.1886,-2.1603,-2.0116,-1.8777,-1.7488,-1.5966,-1.4719,-1.3742,-1.3742,-1.3318,-1.2678,-1.2678,-1.2186,-1.1484,-1.1484,-1.1484,-1.1484,-3.3418,-3.3418,-3.3418,-3.3418,-3.3418,-3.3418,-3.3418,-3.3418,-3.3418,-3.3418,-3.3418,-3.3418,-3.3418,-3.3418,-3.3418,-3.3418,-3.3418,-3.3418,-3.3418,-3.3418,-3.3418,-3.3418,-3.3418,-3.3418,-3.3418,-3.3418,-3.3418,-3.3418,-3.3418,-3.3418,-3.3418,-3.3418,-3.3418,-3.3418,-3.3418,-3.3418,-3.3418,-3.3418,-3.3418,-3.3418,-3.3418,-3.3418,-3.3092,-3.029,-2.9182,-2.8863,-2.6107,-2.5127,-2.5127,-2.5127,-2.5127,-2.5127,-2.5127,-2.5127,-2.5127,-2.5127,-2.5127,-2.4984,-2.4435,-2.4163,-2.3891,-2.3338,-2.3065,-2.2928,-2.2928,-2.2928,-2.2928,-2.2928,-2.2928,-2.2928,-2.2928,-2.2712,-2.2592,-2.2592,-2.2445,-2.2331,-2.2331,-2.2231,-2.2158,-2.2158,-2.1897,-2.1789,-2.1789,-2.1557,-2.1456,-2.1456,-2.1456,-2.1537,-2.1782,-2.1789,-2.1857,-2.2151,-2.2158,-2.2298,-2.2592,-2.2418,-2.2331,-2.2331,-2.2331,-2.2425,-2.2524,-2.1009,-1.9991,-1.9153,-1.6992,-1.5589,-1.4746,-1.411,-1.3472,-1.2824,-1.2824,-1.2327,-1.1619,-1.1619,-1.1619,-1.1619,-3.3418,-3.3418,-3.3418,-3.3418,-3.3418,-3.3418,-3.3418,-3.3418,-3.3418,-3.3418,-3.3418,-3.3418,-3.3418,-3.3418,-3.3418,-3.3418,-3.3418,-3.3418,-3.3418,-3.3418,-3.3418,-3.3418,-3.3418,-3.3418,-3.3418,-3.3418,-3.3418,-3.3418,-3.3418,-3.3418,-3.3418,-3.3418,-3.3418,-3.3418,-3.3418,-3.3418,-3.3418,-3.3418,-3.3418,-3.3418,-3.3418,-3.3418,-3.3092,-3.029,-2.9182,-2.8863,-2.6107,-2.5127,-2.5127,-2.5127,-2.5127,-2.5127,-2.5127,-2.5127,-2.5127,-2.5127,-2.5127,-2.4916,-2.4231,-2.4027,-2.3823,-2.3065,-2.2928,-2.2928,-2.2928,-2.2928,-2.2928,-2.2928,-2.2928,-2.2928,-2.2928,-2.2928,-2.2928,-2.2928,-2.2928,-2.2928,-2.2928,-2.2632,-2.2458,-2.2458,-2.2205,-2.2024,-2.2024,-2.1997,-2.1984,-2.1984,-2.1984,-2.1997,-2.2024,-2.2024,-2.2158,-2.2452,-2.2458,-2.2585,-2.2928,-2.2928,-2.2928,-2.2928,-2.2928,-2.2928,-2.2859,-2.1465,-2.0698,-2.0421,-1.7695,-1.6433,-1.6155,-1.4675,-1.3611,-1.2896,-1.2824,-1.2259,-1.1619,-1.1619,-1.1619,-1.1619,-3.3418,-3.3418,-3.3418,-3.3418,-3.3418,-3.3418,-3.3418,-3.3418,-3.3418,-3.3418,-3.3418,-3.3418,-3.3418,-3.3418,-3.3418,-3.3418,-3.3418,-3.3418,-3.3418,-3.3418,-3.3418,-3.3418,-3.3418,-3.3418,-3.3418,-3.3418,-3.3418,-3.3418,-3.3418,-3.3418,-3.3418,-3.3418,-3.3418,-3.3418,-3.3418,-3.3418,-3.3418,-3.3418,-3.3418,-3.3418,-3.3418,-3.3418,-3.3092,-3.029,-2.9182,-2.8863,-2.6107,-2.5127,-2.5127,-2.5127,-2.5127,-2.5127,-2.5127,-2.5127,-2.5127,-2.5127,-2.5127,-2.4916,-2.4231,-2.4027,-2.3823,-2.3065,-2.2928,-2.2928,-2.2928,-2.2928,-2.2928,-2.2928,-2.2928,-2.2928,-2.2928,-2.2928,-2.2928,-2.2928,-2.2928,-2.2928,-2.2928,-2.2806,-2.2766,-2.2766,-2.2505,-2.2325,-2.2325,-2.2118,-2.1984,-2.1984,-2.1984,-2.2084,-2.2311,-2.2325,-2.2458,-2.2752,-2.2766,-2.2799,-2.2928,-2.2928,-2.2928,-2.2928,-2.2928,-2.2928,-2.2859,-2.2585,-2.1747,-2.056,-1.993,-1.8809,-1.7338,-1.5863,-1.4738,-1.3959,-1.2757,-1.2051,-1.1619,-1.1619,-1.1619,-1.1619,-3.3418,-3.3418,-3.3418,-3.3418,-3.3418,-3.3418,-3.3418,-3.3418,-3.3418,-3.3418,-3.3418,-3.3418,-3.3418,-3.3418,-3.3418,-3.3418,-3.3418,-3.3418,-3.3418,-3.3418,-3.3418,-3.3418,-3.3418,-3.3418,-3.3418,-3.3418,-3.3418,-3.3418,-3.3418,-3.3418,-3.3418,-3.3418,-3.3418,-3.3418,-3.3418,-3.3418,-3.3418,-3.3418,-3.3418,-3.3418,-3.3418,-3.3418,-3.3165,-3.1001,-2.9761,-2.892,-2.6828,-2.5644,-2.5127,-2.5127,-2.5127,-2.5127,-2.5127,-2.5127,-2.5127,-2.5127,-2.4984,-2.4713,-2.4163,-2.3891,-2.3611,-2.3071,-2.2928,-2.2928,-2.2928,-2.2928,-2.2928,-2.2928,-2.2928,-2.2928,-2.2928,-2.2928,-2.2928,-2.2928,-2.2928,-2.2928,-2.2928,-2.2928,-2.2928,-2.2928,-2.2726,-2.2632,-2.2632,-2.2492,-2.2405,-2.2405,-2.2405,-2.2472,-2.2619,-2.2632,-2.2706,-2.2859,-2.2928,-2.2928,-2.2928,-2.2928,-2.2928,-2.2928,-2.2928,-2.2928,-2.2928,-2.2928,-2.2441,-2.1678,-2.0906,-2.0069,-1.9019,-1.7338,-1.5858,-1.4587,-1.3607,-1.2542,-1.1619,-1.1619,-1.1619,-1.1619,-3.3418,-3.3418,-3.3418,-3.3418,-3.3418,-3.3418,-3.3418,-3.3418,-3.3418,-3.3418,-3.3418,-3.3418,-3.3418,-3.3418,-3.3418,-3.3418,-3.3418,-3.3418,-3.3418,-3.3418,-3.3418,-3.3418,-3.3418,-3.3418,-3.3418,-3.3418,-3.3418,-3.3418,-3.3418,-3.3418,-3.3418,-3.3418,-3.3418,-3.3418,-3.3418,-3.3418,-3.3418,-3.3418,-3.3418,-3.3418,-3.3418,-3.3418,-3.3228,-3.1835,-3.0604,-2.9313,-2.7668,-2.6234,-2.5127,-2.5127,-2.5127,-2.5127,-2.5127,-2.5127,-2.5127,-2.5127,-2.4849,-2.4435,-2.4095,-2.3686,-2.3338,-2.2996,-2.2928,-2.2928,-2.2928,-2.2928,-2.2928,-2.2928,-2.2928,-2.2928,-2.2928,-2.2928,-2.2928,-2.2928,-2.2928,-2.2928,-2.2928,-2.2928,-2.2928,-2.2928,-2.2928,-2.2928,-2.2928,-2.2928,-2.2928,-2.2928,-2.2928,-2.2928,-2.2928,-2.2928,-2.2928,-2.2928,-2.2928,-2.2928,-2.2928,-2.2928,-2.2928,-2.2928,-2.2928,-2.2928,-2.2928,-2.2928,-2.2928,-2.2859,-2.1534,-2.0975,-2.0768,-1.8879,-1.7122,-1.5571,-1.4662,-1.3389,-1.1975,-1.1688,-1.1619,-1.1619,-3.3418,-3.3418,-3.3418,-3.3418,-3.3418,-3.3418,-3.3418,-3.3418,-3.3418,-3.3418,-3.3418,-3.3418,-3.3418,-3.3418,-3.3418,-3.3418,-3.3418,-3.3418,-3.3418,-3.3418,-3.3418,-3.3418,-3.3418,-3.3418,-3.3418,-3.3418,-3.3418,-3.3418,-3.3418,-3.3418,-3.3418,-3.3418,-3.3418,-3.3418,-3.3418,-3.3418,-3.3418,-3.3418,-3.3418,-3.3418,-3.3418,-3.3418,-3.3228,-3.1835,-3.1185,-3.0669,-2.8065,-2.6234,-2.5127,-2.5127,-2.5127,-2.5127,-2.5127,-2.5127,-2.5127,-2.5127,-2.4849,-2.4435,-2.4095,-2.3686,-2.3338,-2.2996,-2.2928,-2.2928,-2.2928,-2.2928,-2.2928,-2.2928,-2.2928,-2.2928,-2.2928,-2.2928,-2.2928,-2.2928,-2.2928,-2.2928,-2.2928,-2.2928,-2.2928,-2.2928,-2.2928,-2.2928,-2.2928,-2.2928,-2.2928,-2.2928,-2.2928,-2.2928,-2.2928,-2.2928,-2.2928,-2.2928,-2.2928,-2.2928,-2.2928,-2.2928,-2.2928,-2.2928,-2.2928,-2.2928,-2.2928,-2.2928,-2.2928,-2.2859,-2.2654,-2.2372,-2.1891,-2.0069,-1.8949,-1.8185,-1.5155,-1.3812,-1.3456,-1.2115,-1.1619,-1.1619,-3.3418,-3.3418,-3.3418,-3.3418,-3.3418,-3.3418,-3.3418,-3.3418,-3.3418,-3.3418,-3.3418,-3.3418,-3.3418,-3.3418,-3.3418,-3.3418,-3.3643,-3.3779,-3.3779,-3.4004,-3.4141,-3.4141,-3.4141,-3.4141,-3.4141,-3.3906,-3.3779,-3.3779,-3.3545,-3.3418,-3.3418,-3.3418,-3.3418,-3.3418,-3.3418,-3.3418,-3.3418,-3.3418,-3.3418,-3.3418,-3.3418,-3.3418,-3.3355,-3.2702,-3.1524,-2.9761,-2.6953,-2.5584,-2.5127,-2.5127,-2.4916,-2.4774,-2.4774,-2.4645,-2.451,-2.4706,-2.4367,-2.3884,-2.3959,-2.3543,-2.3065,-2.2934,-2.2928,-2.2928,-2.2928,-2.2928,-2.2928,-2.2928,-2.2928,-2.2928,-2.2928,-2.2928,-2.2928,-2.2928,-2.2928,-2.2928,-2.2928,-2.2928,-2.2928,-2.2928,-2.2928,-2.2928,-2.2928,-2.2928,-2.2928,-2.2928,-2.2928,-2.2928,-2.2928,-2.2928,-2.2928,-2.2928,-2.2928,-2.2928,-2.2928,-2.2928,-2.2928,-2.2928,-2.2928,-2.2928,-2.2928,-2.2928,-2.2928,-2.2928,-2.2928,-2.2791,-2.2516,-2.1333,-2.0213,-1.9094,-1.7127,-1.5367,-1.3741,-1.2187,-1.1619,-1.1619]},{"header":{"parameterUnit":"m.s-1","parameterCategory":1,"la1":30.6,"la2":28.766,"lo1":-90.7593,"lo2":-88.6598,"dy":0.0162,"dx":0.0183,"nx":116,"ny":114,"refTime":"2024-04-02T00:00:00:Z","depth":0,"parameterNumber":3,"parameterNumberName":"V-component_of_WINDS"},"data":[0.0,0.0,0.0,0.0,0.0,0.0,0.0,0.0,0.0,0.0,0.0,0.0,0.0,0.0,0.0,0.0,0.0,0.0,0.0,0.0,0.0,0.0,0.0,0.0,0.0,0.0,0.0,0.0,0.0,0.0,0.0,0.0,0.0,0.0,0.0,0.0,0.0,0.0,0.0,0.0,0.0,0.0,0.0,0.0,0.0,0.0,0.0,0.0,0.0,0.0,0.0,0.0,0.0,0.0,0.0,0.0,0.0,0.0,0.0,0.0,0.0,0.0,0.0,0.0,0.0,0.0,0.0,0.0,0.0,0.0,0.0,0.0,0.0,0.0,0.0,0.0,0.0,0.0,0.0,0.0,0.0,0.0,0.0,0.0,0.0,0.0,0.0,0.0,0.0,0.0,0.0,0.0,0.0,0.0,0.0,0.0,0.0,0.0,0.0,0.0,0.0,0.0,0.0,0.0,0.0,0.0,0.0,0.0,0.0,0.0,0.0,0.0,0.0,0.0,0.0,0.0,0.0,0.0,0.0,0.0,0.0,0.0,0.0,0.0,0.0,0.0,0.0,0.0,0.0,0.0,0.0,0.0,0.0,0.0,0.0,0.0,0.0,0.0,0.0,0.0,0.0,0.0,0.0,0.0,0.0,0.0,0.0,0.0,0.0,0.0,0.0,0.0,0.0,0.0,0.0,0.0,0.0,0.0,0.0,0.0,0.0,0.0,0.0,0.0,0.0,0.0,0.0,0.0,0.0,0.0,0.0,0.0,0.0,0.0,0.0,0.0,0.0,0.0,0.0,0.0,0.0,0.0,0.0,0.0,0.0,0.0,0.0,0.0,0.0,0.0,0.0,0.0,0.0,0.0,0.0,0.0,0.0,0.0,0.0,0.0,0.0,0.0,0.0,0.0,0.0,0.0,0.0,0.0,0.0,0.0,0.0,0.0,0.0,0.0,0.0,0.0,0.0,0.0,0.0,0.0,0.0,0.0,0.0,0.0,0.0,0.0,0.0,0.0,0.0,0.0,0.0,0.0,0.0,0.0,0.0,0.0,0.0,0.0,0.0,0.0,0.0,0.0,0.0,0.0,0.0,0.0,0.0,0.0,0.0,0.0,0.0,0.0,0.0,0.0,0.0,0.0,0.0,0.0,0.0,0.0,0.0,0.0,0.0,0.0,0.0,0.0,0.0,0.0,0.0,0.0,0.0,0.0,0.0,0.0,0.0,0.0,0.0,0.0,0.0,0.0,0.0,0.0,0.0,0.0,0.0,0.0,0.0,0.0,0.0,0.0,0.0,0.0,0.0,0.0,0.0,0.0,0.0,0.0,0.0,0.0,0.0,0.0,0.0,0.0,0.0,0.0,0.0,0.0,0.0,0.0,0.0,0.0,0.0,0.0,0.0,0.0,0.0,0.0,0.0,0.0,0.0,0.0,0.0,0.0,0.0,0.0,0.0,0.0,0.0,0.0,0.0,0.0,0.0,0.0,0.0,0.0,0.0,0.0,0.0,0.0,0.0,0.0,0.0,0.0,0.0,0.0,0.0,0.0,0.0,0.0,0.0,0.0,0.0,0.0,0.0,0.0,0.0,0.0,0.0,0.0,0.0,0.0,0.0,0.0,0.0,0.0,0.0,0.0,0.0,0.0,0.0,0.0,0.0,0.0,0.0,0.0,0.0,0.0,0.0,0.0,0.0,0.0,0.0,0.0,0.0,0.0,0.0,0.0,0.0,0.0,0.0,0.0,0.0,0.0,0.0,0.0,0.0,0.0,0.0,0.0,0.0,0.0,0.0,0.0,0.0,0.0,0.0,0.0,0.0,0.0,0.0,0.0,0.0,0.0,0.0,0.0,0.0,0.0,0.0,0.0,0.0,0.0,0.0,0.0,0.0,0.0,0.0,0.0,0.0,0.0,0.0,0.0,0.0,0.0,0.0,0.0,0.0,0.0,0.0,0.0,0.0,0.0,0.0,0.0,0.0,0.0,0.0,0.0,0.0,0.0,0.0,0.0,0.0,0.0,0.0,0.0,0.0,0.0,0.0,0.0,0.0,0.0,0.0,0.0,0.0,0.0,0.0,0.0,0.0,0.0,0.0,0.0,0.0,0.0,0.0,0.0,0.0,0.0,0.0,0.0,0.0,0.0,0.0,0.0,0.0,0.0,0.0,0.0,0.0,0.0,0.0,0.0,0.0,0.0,0.0,0.0,0.0,0.0,0.0,0.0,0.0,0.0,0.0,0.0,0.0,0.0,0.0,0.0,0.0,0.0,0.0,0.0,0.0,0.0,0.0,0.0,0.0,0.0,0.0,0.0,0.0,0.0,0.0,0.0,0.0,0.0,0.0,0.0,0.0,0.0,0.0,0.0,0.0,0.0,0.0,0.0,0.0,0.0,0.0,0.0,0.0,0.0,0.0,0.0,0.0,0.0,0.0,0.0,0.0,0.0,0.0,0.0,0.0,0.0,0.0,0.0,0.0,0.0,0.0,0.0,0.0,0.0,0.0,0.0,0.0,0.0,0.0,0.0,0.0,0.0,0.0,0.0,0.0,0.0,0.0,0.0,0.0,0.0,0.0,0.0,0.0,0.0,0.0,0.0,0.0,0.0,0.0,0.0,0.0,0.0,0.0,0.0,0.0,0.0,0.0,0.0,0.0,0.0,0.0,0.0,0.0,0.0,0.0,0.0,0.0,0.0,0.0,0.0,0.0,0.0,0.0,0.0,0.0,0.0,0.0,0.0,0.0,0.0,0.0,0.0,0.0,0.0,0.0,0.0,0.0,0.0,0.0,0.0,0.0,0.0,0.0,0.0,0.0,0.0,0.0,0.0,0.0,0.0,0.0,0.0,0.0,0.0,0.0,0.0,0.0,0.0,0.0,0.0,0.0,0.0,0.0,0.0,0.0,0.0,0.0,0.0,0.0,0.0,0.0,0.0,0.0,0.0,0.0,0.0,0.0,0.0,0.0,0.0,0.0,0.0,0.0,0.0,0.0,0.0,0.0,0.0,0.0,0.0,0.0,0.0,0.0,0.0,0.0,0.0,0.0,0.0,0.0,0.0,0.0,0.0,0.0,0.0,0.0,0.0,0.0,0.0,0.0,0.0,0.0,0.0,0.0,0.0,0.0,0.0,0.0,0.0,0.0,0.0,0.0,0.0,0.0,0.0,0.0,0.0,0.0,0.0,0.0,0.0,0.0,0.0,0.0,0.0,0.0,0.0,0.0,0.0,0.0,0.0,0.0,0.0,0.0,0.0,0.0,0.0,0.0,0.0,0.0,0.0,0.0,0.0,0.0,0.0,0.0,0.0,0.0,0.0,0.0,0.0,0.0,0.0,0.0,0.0,0.0,0.0,0.0,0.0,0.0,0.0,0.0,0.0,0.0,0.0,0.0,0.0,0.0,0.0,0.0,0.0,0.0,0.0,0.0,0.0,0.0,0.0,0.0,0.0,0.0,0.0,0.0,0.0,0.0,0.0,0.0,0.0,0.0,0.0,0.0,0.0,0.0,0.0,0.0,0.0,0.0,0.0,0.0,0.0,0.0,0.0,0.0,0.0,0.0,0.0,0.0,0.0,0.0,0.0,0.0,0.0,0.0,0.0,0.0,0.0,0.0,0.0,0.0,0.0,0.0,0.0,0.0,0.0,0.0,0.0,0.0,0.0,0.0,0.0,0.0,0.0,0.0,0.0,0.0,0.0,0.0,0.0,0.0,0.0,0.0,0.0,0.0,0.0,0.0,0.0,0.0,0.0,0.0,0.0,0.0,0.0,0.0,0.0,0.0,0.0,0.0,0.0,0.0,0.0,0.0,0.0,0.0,0.0,0.0,0.0,0.0,0.0,0.0,0.0,0.0,0.0,0.0,0.0,0.0,0.0,0.0,0.0,0.0,0.0,0.0,0.0,0.0,0.0,0.0,0.0,0.0,0.0,0.0,0.0,0.0,0.0,0.0,0.0,0.0,0.0,0.0,0.0,0.0,0.0,0.0,0.0,0.0,0.0,0.0,0.0,0.0,0.0,0.0,0.0,0.0,0.0,0.0,0.0,0.0,0.0,0.0,0.0,0.0,0.0,0.0,0.0,0.0,0.0,0.0,0.0,0.0,0.0,0.0,0.0,0.0,0.0,0.0,0.0,0.0,0.0,0.0,0.0,0.0,0.0,0.0,0.0,0.0,0.0,0.0,0.0,0.0,0.0,0.0,0.0,0.0,0.0,0.0,0.0,0.0,0.0,0.0,0.0,0.0,0.0,0.0,0.0,0.0,0.0,0.0,0.0,0.0,0.0,0.0,0.0,0.0,0.0,0.0,0.0,0.0,0.0,0.0,0.0,0.0,0.0,0.0,0.0,0.0,0.0,0.0,0.0,0.0,0.0,0.0,0.0,0.0,0.0,0.0,0.0,0.0,0.0,0.0,0.0,0.0,0.0,0.0,0.0,0.0,0.0,0.0,0.0,0.0,0.0,0.0,0.0,0.0,0.0,0.0,0.0,0.0,0.0,0.0,0.0,0.0,0.0,0.0,0.0,0.0,0.0,0.0,0.0,0.0,0.0,0.0,0.0,0.0,0.0,0.0,0.0,0.0,0.0,0.0,0.0,0.0,0.0,0.0,0.0,0.0,0.0,0.0,0.0,0.0,0.0,0.0,0.0,0.0,0.0,0.0,0.0,0.0,0.0,0.0,0.0,0.0,0.0,0.0,0.0,0.0,0.0,0.0,0.0,0.0,0.0,0.0,0.0,0.0,0.0,0.0,0.0,0.0,0.0,0.0,0.0,0.0,0.0,0.0,0.0,0.0,0.0,0.0,0.0,0.0,0.0,0.0,0.0,0.0,0.0,0.0,0.0,0.0,0.0,0.0,0.0,0.0,0.0,0.0,0.0,0.0,0.0,0.0,0.0,0.0,0.0,0.0,0.0,0.0,0.0,0.0,0.0,0.0,0.0,0.0,0.0,0.0,0.0,0.0,0.0,0.0,0.0,0.0,0.0,0.0,0.0,0.0,0.0,0.0,0.0,0.0,0.0,0.0,0.0,0.0,0.0,0.0,0.0,0.0,0.0,0.0,0.0,0.0,0.0,0.0,0.0,0.0,0.0,0.0,0.0,0.0,0.0,0.0,0.0,0.0,0.0,0.0,0.0,0.0,0.0,0.0,0.0,0.0,0.0,0.0,0.0,0.0,0.0,0.0,0.0,0.0,0.0,0.0,0.0,0.0,0.0,0.0,0.0,0.0,0.0,0.0,0.0,0.0,0.0,0.0,0.0,0.0,0.0,0.0,0.0,0.0,0.0,0.0,0.0,0.0,0.0,0.0,0.0,0.0,0.0,0.0,0.0,0.0,0.0,0.0,0.0,0.0,0.0,0.0,0.0,0.0,0.0,0.0,0.0,0.0,0.0,0.0,0.0,0.0,0.0,0.0,0.0,0.0,0.0,0.0,0.0,0.0,0.0,0.0,0.0,0.0,0.0,0.0,0.0,0.0,0.0,0.0,0.0,0.0,0.0,0.0,0.0,0.0,0.0,0.0,0.0,0.0,0.0,0.0,0.0,0.0,0.0,0.0,0.0,0.0,0.0,0.0,0.0,0.0,0.0,0.0,0.0,0.0,0.0,0.0,0.0,0.0,0.0,0.0,0.0,0.0,0.0,0.0,0.0,0.0,0.0,0.0,0.0,0.0,0.0,0.0,0.0,0.0,0.0,0.0,0.0,0.0,0.0,0.0,0.0,0.0,0.0,0.0,0.0,0.0,0.0,0.0,0.0,0.0,0.0,0.0,0.0,0.0,0.0,0.0,0.0,0.0,0.0,0.0,0.0,0.0,0.0,0.0,0.0,0.0,0.0,0.0,0.0,0.0,0.0,0.0,0.0,0.0,0.0,0.0,0.0,0.0,0.0,0.0,0.0,0.0,0.0,0.0,0.0,0.0,0.0,0.0,0.0,0.0,0.0,0.0,0.0,0.0,0.0,0.0,0.0,0.0,0.0,0.0,0.0,0.0,0.0,0.0,0.0,0.0,0.0,0.0,0.0,0.0,0.0,0.0,0.0,0.0,0.0,0.0,0.0,0.0,0.0,0.0,0.0,0.0,0.0,0.0,0.0,0.0,0.0,0.0,0.0,0.0,0.0,0.0,0.0,3.3301,0.0,0.0,0.0,0.0,0.0,0.0,0.0,0.0,0.0,0.0,0.0,0.0,0.0,0.0,0.0,0.0,0.0,0.0,0.0,0.0,0.0,0.0,0.0,0.0,2.6955,2.7511,2.7576,2.8338,2.8853,2.8928,0.0,0.0,0.0,0.0,0.0,3.0781,3.08,3.08,3.08,3.08,3.1015,3.1426,3.1452,3.1262,3.0894,0.0,0.0,0.0,0.0,0.0,0.0,0.0,0.0,0.0,0.0,0.0,0.0,0.0,0.0,0.0,0.0,0.0,0.0,0.0,0.0,0.0,0.0,0.0,0.0,0.0,0.0,0.0,0.0,0.0,0.0,0.0,0.0,0.0,0.0,0.0,0.0,0.0,0.0,0.0,0.0,0.0,0.0,0.0,0.0,0.0,0.0,0.0,0.0,0.0,0.0,0.0,0.0,0.0,0.0,0.0,0.0,0.0,0.0,0.0,0.0,0.0,0.0,0.0,0.0,0.0,0.0,0.0,0.0,0.0,0.0,0.0,3.4378,0.0,0.0,0.0,0.0,0.0,0.0,0.0,0.0,0.0,0.0,0.0,0.0,0.0,0.0,0.0,0.0,0.0,0.0,0.0,0.0,0.0,2.6749,2.6895,2.769,2.8242,2.8351,2.9121,2.9632,2.9746,3.0372,0.0,0.0,3.0768,3.0849,3.1006,3.1012,3.1093,3.1249,3.1249,3.1621,3.2324,3.2324,3.1978,3.1342,0.0,0.0,0.0,0.0,0.0,0.0,0.0,0.0,0.0,0.0,0.0,0.0,0.0,0.0,0.0,0.0,0.0,0.0,0.0,0.0,0.0,0.0,0.0,0.0,0.0,0.0,0.0,0.0,0.0,0.0,0.0,0.0,0.0,0.0,0.0,0.0,0.0,0.0,0.0,0.0,0.0,0.0,0.0,0.0,0.0,0.0,0.0,0.0,0.0,0.0,0.0,0.0,0.0,0.0,0.0,0.0,0.0,0.0,0.0,0.0,0.0,0.0,0.0,0.0,3.8588,3.8666,3.8788,3.8788,3.8865,3.8909,3.7453,3.688,3.6841,0.0,0.0,0.0,0.0,0.0,0.0,0.0,0.0,0.0,0.0,0.0,0.0,0.0,0.0,0.0,0.0,0.0,0.0,0.0,0.0,2.6904,2.7667,2.8516,2.9055,2.9067,2.9854,3.035,3.0381,3.0482,3.054,3.054,3.0647,3.1072,3.1829,3.1897,3.2304,3.3064,3.3064,3.3123,3.3221,3.3221,3.3163,3.3067,3.3068,0.0,0.0,0.0,0.0,0.0,0.0,0.0,0.0,0.0,0.0,0.0,0.0,0.0,0.0,0.0,0.0,0.0,0.0,0.0,0.0,0.0,0.0,0.0,0.0,0.0,0.0,0.0,0.0,0.0,0.0,0.0,0.0,0.0,0.0,0.0,0.0,0.0,0.0,0.0,0.0,0.0,0.0,0.0,3.5366,3.5376,0.0,0.0,0.0,0.0,0.0,0.0,0.0,0.0,0.0,0.0,0.0,0.0,0.0,3.8478,3.9221,3.9333,3.975,4.0441,4.05,4.0865,4.1485,4.1485,4.1877,4.2505,4.2221,0.0,3.7891,3.7599,0.0,0.0,0.0,0.0,0.0,0.0,0.0,0.0,0.0,0.0,0.0,0.0,0.0,0.0,0.0,0.0,0.0,0.0,0.0,0.0,0.0,2.9259,2.9797,2.9878,3.0221,3.0461,3.0498,3.0959,3.1226,3.1226,3.1728,3.2175,3.2544,3.2655,3.2913,3.3347,3.3347,3.3606,3.4126,3.4126,3.4384,3.486,3.486,3.41,3.2835,3.2821,0.0,0.0,0.0,0.0,0.0,0.0,0.0,0.0,0.0,0.0,0.0,0.0,0.0,0.0,0.0,0.0,0.0,0.0,0.0,0.0,0.0,0.0,0.0,0.0,0.0,0.0,0.0,0.0,0.0,0.0,0.0,0.0,0.0,0.0,0.0,0.0,0.0,0.0,0.0,3.693,3.7247,3.7315,3.7259,3.7395,0.0,0.0,0.0,0.0,0.0,0.0,0.0,0.0,0.0,4.0523,4.0542,4.0951,4.1789,4.1792,4.1977,4.2311,4.2358,4.2529,4.284,4.2793,4.2986,4.3317,4.3199,4.2319,4.093,4.0373,4.0142,4.0085,0.0,0.0,0.0,0.0,3.9419,3.9342,0.0,0.0,0.0,0.0,0.0,0.0,0.0,0.0,0.0,0.0,0.0,0.0,2.9282,2.9837,3.0235,3.0344,3.0356,3.0453,3.0748,3.1361,3.182,3.2013,3.2633,3.3073,3.3311,3.3861,3.419,3.4249,3.4461,3.5071,3.6005,3.6005,3.6466,3.73,3.7066,3.5778,3.3729,3.3735,3.3601,0.0,0.0,0.0,0.0,0.0,0.0,0.0,0.0,0.0,0.0,0.0,0.0,0.0,0.0,0.0,0.0,0.0,0.0,0.0,0.0,0.0,0.0,0.0,0.0,0.0,0.0,0.0,0.0,0.0,0.0,0.0,0.0,0.0,0.0,0.0,0.0,0.0,0.0,3.8076,3.8491,3.8593,3.852,3.8559,0.0,0.0,0.0,0.0,0.0,0.0,4.0699,4.0719,4.1324,4.2629,4.2668,4.3056,4.3873,4.3873,4.3983,4.4184,4.4184,4.4175,4.4157,4.4113,4.4083,4.4073,4.3965,4.3911,4.3821,4.2644,4.2156,4.2098,4.1436,4.1174,4.1201,4.1178,4.1178,4.1089,0.0,0.0,0.0,0.0,0.0,0.0,0.0,0.0,0.0,0.0,0.0,2.9223,3.0058,3.0173,3.0192,3.0206,3.0206,3.055,3.1398,3.1494,3.185,3.2607,3.2814,3.3287,3.4128,3.5836,3.675,3.6802,3.7634,3.8562,3.9535,3.9535,4.0016,4.0816,3.9976,3.775,3.4629,3.4634,3.4168,3.3405,0.0,0.0,0.0,0.0,0.0,0.0,0.0,0.0,0.0,0.0,0.0,0.0,0.0,0.0,0.0,0.0,0.0,0.0,0.0,0.0,0.0,0.0,0.0,0.0,0.0,0.0,0.0,0.0,0.0,0.0,0.0,0.0,0.0,0.0,0.0,0.0,0.0,0.0,0.0,3.8594,3.8594,0.0,0.0,0.0,0.0,4.2148,4.2968,4.3457,4.3496,4.3496,4.3535,4.3632,4.3632,4.4043,4.4922,4.4922,4.5308,4.6064,4.6064,4.6021,4.5965,4.5978,4.5958,4.5958,4.5893,4.5862,4.5713,4.3873,4.3134,4.3107,4.3011,4.3,4.3069,4.2983,4.2975,4.2949,0.0,0.0,0.0,0.0,0.0,2.5285,2.6146,2.6704,2.7466,2.8682,2.9325,2.9811,3.0166,3.0211,3.0211,3.0211,3.0701,3.1159,3.1427,3.2497,3.3242,3.3528,3.4623,3.5649,3.6555,3.7709,3.8369,3.847,3.9353,4.0015,4.0438,4.0438,4.0675,4.1087,4.0775,3.9964,3.8708,3.707,3.6193,3.5861,3.5299,3.5068,0.0,0.0,0.0,0.0,0.0,0.0,0.0,0.0,0.0,0.0,0.0,0.0,0.0,0.0,0.0,0.0,0.0,0.0,0.0,0.0,0.0,0.0,0.0,0.0,0.0,0.0,0.0,0.0,0.0,0.0,0.0,0.0,0.0,0.0,0.0,0.0,0.0,4.0974,4.1052,0.0,4.2262,4.2634,4.2926,4.3219,4.3514,4.3945,4.4511,4.4531,4.4785,4.5351,4.5371,4.5781,4.666,4.668,4.7109,4.7946,4.7946,4.7923,4.7896,4.7854,4.784,4.784,4.7717,4.7381,4.6851,4.6177,4.5521,4.4935,4.4905,4.493,4.4935,4.4913,4.4893,4.4821,0.0,0.0,0.0,0.0,2.5081,2.5524,2.6344,2.7129,2.7991,2.8976,2.9607,3.0022,3.0161,3.0169,3.0283,3.0543,3.1145,3.1832,3.2603,3.3742,3.4655,3.5218,3.6585,3.7632,3.8252,3.9344,3.9978,4.0115,4.0693,4.1349,4.207,4.1803,4.209,4.2816,4.2501,4.2383,4.2229,3.9985,3.8681,3.8082,3.7502,3.6938,3.6372,0.0,0.0,0.0,0.0,0.0,0.0,0.0,0.0,0.0,0.0,0.0,0.0,0.0,0.0,0.0,0.0,0.0,0.0,0.0,0.0,0.0,0.0,0.0,0.0,0.0,0.0,0.0,0.0,0.0,0.0,0.0,0.0,0.0,0.0,0.0,4.1869,4.2727,4.2844,4.3078,4.3645,4.3977,4.4133,4.4133,4.4409,4.4958,4.5836,4.5877,4.6288,4.7148,4.7187,4.7441,4.8027,4.8047,4.832,4.8906,4.8906,4.8906,4.8906,4.8842,4.8836,4.8835,4.8736,4.8391,4.7901,4.7901,4.7501,4.6855,4.6193,4.5955,4.5959,4.5927,4.5903,4.5853,0.0,0.0,0.0,2.4782,2.5416,2.6142,2.6873,2.7624,2.8475,2.955,2.9689,2.9796,3.0053,3.0095,3.043,3.1232,3.1444,3.2546,3.494,3.5208,3.6023,3.775,3.861,3.9069,3.9126,4.0731,4.1637,4.1771,4.181,4.2776,4.4602,4.3837,4.4438,4.6153,4.5312,4.4923,4.4835,4.3217,4.1534,3.9954,3.9878,3.8843,3.7379,0.0,0.0,0.0,0.0,0.0,0.0,0.0,0.0,0.0,0.0,0.0,0.0,0.0,0.0,0.0,0.0,0.0,0.0,0.0,0.0,0.0,0.0,0.0,0.0,0.0,0.0,0.0,0.0,0.0,0.0,0.0,0.0,0.0,4.2433,4.2433,4.2765,4.3645,4.3742,4.3762,4.382,4.4582,4.509,4.5129,4.5891,4.675,4.7588,4.7648,4.8022,4.8865,4.8904,4.8905,4.8945,4.8945,4.8945,4.8984,4.8984,4.8984,4.8984,4.8984,4.8984,4.8984,4.8984,4.8965,4.8945,4.8945,4.8926,4.871,4.6825,4.613,4.616,4.6045,4.6021,4.6037,0.0,0.0,2.4696,2.4662,2.5306,2.6045,2.6692,2.7449,2.8346,2.9401,2.9542,2.9653,2.9932,2.9956,3.0297,3.1143,3.1794,3.2952,3.4822,3.6112,3.7861,4.0204,4.0072,4.052,4.1724,4.2775,4.332,4.3359,4.4,4.4633,4.5247,4.5035,4.5247,4.5826,4.5695,4.5653,4.5663,4.5315,4.4512,4.3348,4.1493,4.0093,3.9058,0.0,0.0,0.0,0.0,0.0,0.0,0.0,0.0,0.0,0.0,0.0,0.0,0.0,0.0,0.0,0.0,0.0,0.0,0.0,0.0,0.0,0.0,0.0,0.0,0.0,0.0,0.0,0.0,0.0,0.0,0.0,4.3338,4.3338,4.3339,4.3339,4.3671,4.4549,4.4647,4.5135,4.6402,4.6736,4.7126,4.7712,4.7972,4.8228,4.8462,4.8525,4.8645,4.8881,4.89,4.9174,4.9761,4.9761,5.0095,5.0702,5.0702,5.0703,5.0703,5.0703,5.0703,5.0703,5.0703,5.0371,4.9844,4.9844,4.9473,4.8848,4.8315,4.8116,4.8136,4.8094,4.7684,4.708,0.0,2.4545,2.4638,2.4863,2.557,2.6317,2.6943,2.7695,2.8467,2.9223,2.9338,2.9437,2.9697,2.9724,3.0214,3.1431,3.2326,3.3705,3.5757,3.7823,3.9629,4.1155,0.0,4.2227,4.32,4.4092,4.4551,4.4551,4.5048,4.5542,4.5994,4.5994,4.6275,4.6746,4.6839,4.6694,4.6438,4.6562,4.6134,4.5241,4.3819,4.2284,4.0834,4.0366,3.9429,3.8336,3.8199,3.7695,3.721,3.8064,0.0,0.0,0.0,0.0,0.0,0.0,0.0,0.0,0.0,0.0,0.0,0.0,0.0,0.0,0.0,0.0,0.0,0.0,0.0,0.0,0.0,0.0,0.0,0.0,4.4231,4.4504,4.5226,4.4719,4.4699,4.5947,4.6083,4.661,4.7978,4.8096,4.8291,4.8759,4.8804,4.8961,4.9332,4.9727,5.0103,5.0476,5.0847,5.1258,5.1729,5.1729,5.1985,5.2496,5.2496,5.2497,5.2498,5.2499,5.2499,0.0,5.248,5.2226,5.1758,5.1406,5.0957,0.0,0.0,0.0,0.0,0.0,4.8574,4.8066,2.452,2.4442,2.4588,2.5201,2.5981,2.6728,2.7392,2.8118,2.8718,2.9038,2.9082,2.9172,2.9437,2.9531,3.0252,3.1853,3.291,3.4628,3.734,3.9755,4.1166,4.1355,4.2921,4.3824,4.3919,4.4791,4.5303,4.5398,4.5409,4.5894,4.681,4.682,4.729,4.8158,4.8176,4.7725,4.6962,4.7114,4.6715,4.5998,4.6091,4.4731,4.2657,4.2565,4.1491,4.0139,4.0732,3.9994,3.8842,3.9563,0.0,0.0,0.0,0.0,0.0,0.0,0.0,0.0,0.0,0.0,0.0,0.0,0.0,0.0,0.0,0.0,0.0,0.0,0.0,0.0,0.0,0.0,0.0,0.0,4.525,4.5816,4.7474,4.636,4.5974,4.7547,4.7742,4.8057,4.8876,4.8954,4.9032,4.9228,4.9247,4.9618,5.0494,0.0,0.0,0.0,0.0,5.4006,5.3992,5.3992,5.3993,5.3993,5.3993,5.3994,5.3994,5.3999,5.4001,5.4001,5.4003,5.4004,5.3945,5.3164,5.2851,5.2598,5.0137,4.918,4.918,4.9082,4.9043,4.9023,2.4466,2.4407,2.4605,2.527,2.6048,2.6768,2.7338,2.8093,2.8687,2.891,2.8945,2.9007,2.9151,2.9754,3.0624,3.1811,3.312,3.5293,3.8618,4.0215,4.1616,4.2988,4.3419,4.3964,4.4666,4.4879,4.529,4.5954,4.6062,4.6557,4.743,4.7532,4.7682,4.7878,4.7981,4.7568,4.6778,4.6888,4.6563,4.5911,4.5834,4.5174,4.4199,4.3596,4.2643,4.1505,4.0437,3.9833,3.9596,3.9754,3.9691,3.9723,4.0584,0.0,0.0,0.0,0.0,0.0,0.0,0.0,0.0,0.0,0.0,0.0,0.0,0.0,0.0,0.0,0.0,0.0,0.0,0.0,0.0,4.663,4.6766,4.7131,4.8181,4.8044,4.8007,4.8517,4.8564,4.8915,4.9772,4.985,5.0438,5.1845,5.1943,5.2331,5.321,5.3405,5.3561,5.3739,5.3914,5.3994,5.3996,5.3996,5.4,5.4008,0.0,0.0,5.3994,5.3996,5.3997,5.3997,5.3997,5.4,5.3983,5.3826,5.3749,5.3555,5.166,5.0918,5.084,5.0195,4.9941,4.9844,2.505,2.4931,2.5087,2.5693,2.6461,2.7225,2.79,2.8346,2.8675,2.8863,2.8905,2.8922,2.8978,2.9713,3.0587,3.1517,3.3444,3.57,3.8285,3.9904,4.1303,4.2541,4.3592,4.4348,4.4796,4.4877,4.5293,4.6108,4.6587,4.7289,4.8112,4.8686,4.8955,4.8967,4.9097,4.8435,4.7258,4.7395,4.6777,4.5711,4.5711,4.5455,4.5085,4.4889,4.4214,4.3306,4.2529,4.1381,4.0241,4.0252,3.9687,3.9143,4.0016,4.0292,4.0467,0.0,0.0,0.0,0.0,0.0,0.0,0.0,0.0,0.0,0.0,0.0,0.0,0.0,0.0,4.5254,4.5809,0.0,4.6655,4.7126,4.7573,4.8155,4.9029,4.9114,4.9154,4.9278,4.9309,4.9796,5.1078,5.1195,5.174,5.3046,5.3205,5.3442,5.3891,5.4387,5.4654,5.4654,5.5064,5.5298,5.5298,5.5298,5.53,5.5306,5.5306,5.5308,5.5292,5.5296,5.5298,5.5298,5.5302,5.5305,5.5269,5.4838,5.439,5.3904,5.3046,5.2421,5.1992,5.1601,5.1172,5.0742,2.5814,2.5745,2.5923,2.6365,2.6971,2.7676,2.8491,2.86,2.8662,2.8822,2.8846,2.8846,2.8846,2.9704,3.0726,3.1848,3.3942,3.5887,0.0,3.9226,4.0617,4.1574,4.3371,4.4342,4.4361,4.4656,4.5142,4.5786,4.6682,4.7623,4.8575,4.9422,4.9911,5.0108,5.0047,4.919,4.7799,4.7728,4.6839,4.5513,4.5593,4.5593,4.5565,4.5809,4.5467,4.4841,4.4699,4.3239,4.1387,4.1236,4.0181,3.9053,3.9767,3.999,4.0262,4.1679,4.2188,0.0,0.0,0.0,0.0,0.0,0.0,0.0,0.0,0.0,4.563,4.5611,4.5579,4.5669,4.5996,4.6584,4.7146,4.7534,4.8173,4.8929,4.9814,5.0019,5.0102,5.0156,5.0235,5.0796,5.2155,5.2453,5.2919,5.3786,5.3984,5.4121,5.4281,5.5095,5.5552,5.5552,5.6235,5.6606,5.6606,5.6606,5.6606,5.6606,5.6606,5.6606,5.6606,5.6595,5.6598,5.6598,5.6607,5.6591,5.6551,5.583,5.5147,5.4503,5.4507,5.3963,5.3183,5.3027,5.2519,5.1875,0.0,2.6811,2.7199,2.7254,2.7333,2.7676,2.8491,2.86,2.86,2.8625,2.8637,2.8637,2.8637,2.9992,3.1805,3.4039,3.4821,3.58,3.7249,3.8427,3.9764,4.1283,4.2463,4.3098,4.3092,4.4051,4.4594,4.4688,4.5666,4.6922,4.8423,4.8664,4.9251,5.0057,4.9321,4.8524,4.775,4.6989,4.6213,4.5495,4.539,4.5476,4.5676,4.559,4.5498,4.5312,4.4662,4.424,4.3871,4.3163,4.2318,4.159,4.1693,4.1712,4.177,4.1945,0.0,4.3168,4.3971,4.4666,4.5207,4.5294,4.5313,4.5349,0.0,0.0,4.5475,4.5579,4.5498,4.5678,4.6465,4.6685,4.7242,4.874,4.9067,4.9431,5.0306,5.1025,5.1476,5.1486,5.176,5.2007,5.2182,5.2977,5.3825,5.4686,5.4884,5.5275,5.5976,5.6302,5.645,5.645,5.6547,5.6606,5.6606,5.6606,5.6606,5.6606,5.6606,5.6606,5.6606,5.6606,5.6608,5.6608,5.6598,5.6603,5.6584,5.6493,5.6398,5.6319,5.63,5.5774,5.4915,5.414,5.3789,5.3594,0.0,2.7985,2.8349,2.8299,2.8179,2.8219,2.8545,2.86,2.86,2.86,2.86,2.86,2.86,3.0043,3.1582,3.3067,3.38,3.46,3.5663,3.7179,3.8728,4.0297,4.1856,4.2949,4.3573,4.4031,4.456,4.5209,4.5618,4.6436,4.7602,4.772,4.8018,4.8393,4.8106,4.7597,4.6973,4.6611,4.602,4.538,4.5309,4.537,4.5457,4.539,4.539,4.5352,4.5114,4.466,0.0,0.0,4.317,4.2471,4.2506,4.2514,4.2611,4.3131,4.3506,0.0,4.4724,4.5151,4.5341,4.538,4.5409,4.5419,4.5438,4.5429,4.5543,4.6024,4.608,4.6306,4.7237,4.7784,4.835,0.0,4.9637,5.0078,5.0442,5.1196,5.1691,5.1691,5.2691,5.3369,5.3417,5.3783,5.4371,5.5238,5.5428,5.5668,5.6038,5.6225,5.6305,5.6305,5.6305,5.6305,5.6305,5.6305,5.6305,5.6305,5.6305,5.6351,5.6439,5.6439,5.6497,5.6606,5.6591,5.6593,5.6593,5.6596,5.6598,5.66,5.6605,5.6372,5.5944,5.5072,5.443,5.3943,0.0,2.8833,2.9071,2.8973,2.8803,2.8662,2.86,2.86,2.86,2.86,2.86,2.869,2.8907,3.017,3.1324,3.2125,3.294,3.3737,3.4552,3.5876,3.7424,3.9199,4.085,4.2197,4.3203,4.3729,4.4262,4.4815,4.5099,4.569,4.6533,4.6704,4.6929,4.7197,4.704,4.6752,4.633,4.6138,4.573,4.5254,4.5286,4.5307,4.5307,4.5307,4.5307,4.5317,4.5419,4.4978,0.0,0.0,4.3847,4.3139,4.3187,4.3197,4.3331,4.3953,4.4317,4.4633,4.5208,4.5339,4.5298,4.5361,4.537,4.5359,4.5359,4.5531,4.5846,4.6396,4.6691,4.7141,4.8064,4.8706,4.9196,4.9458,5.0024,5.0533,5.0782,5.1503,5.2093,5.2322,5.3642,5.4553,5.4602,5.4618,5.4883,5.5524,5.5691,5.5787,5.5833,5.5986,5.6071,5.6065,5.6065,5.6084,5.6097,5.6097,5.6097,5.6097,5.6097,5.6146,5.6232,5.6232,5.6327,5.6459,5.6459,5.6472,5.6525,5.6525,5.6553,5.6606,5.6595,5.6596,5.652,5.5882,5.5261,5.4679,0.0,0.0,2.9104,2.9086,2.8984,2.8834,2.8625,2.86,2.86,2.86,2.86,2.8889,2.9676,3.0509,3.1324,3.2125,3.294,3.3737,3.4552,3.4643,3.5745,3.8136,3.9219,4.0172,4.0981,4.2787,4.3342,4.2585,4.3649,4.4572,4.5354,4.5615,4.6285,4.7159,4.6329,4.605,4.6158,4.5437,4.5122,4.5125,4.5254,4.5307,4.5307,4.5307,4.5307,4.5307,4.5307,0.0,0.0,0.0,4.4685,4.3949,4.3968,4.3978,0.0,4.3997,4.459,4.5269,4.5307,4.5307,4.5307,4.5307,4.5307,4.5307,4.5307,4.5908,4.6462,4.65,4.7158,4.8028,4.8899,4.9091,4.9358,5.013,5.0283,5.0588,5.1448,5.2251,5.3084,5.3932,5.4811,5.5365,0.0,5.5432,5.5466,5.5504,5.563,5.5702,5.5721,5.5899,5.6001,5.6005,5.6005,5.6025,5.6097,5.6097,5.6097,5.6097,5.6097,5.6097,5.6104,5.6104,5.6104,5.6129,5.6129,5.6181,5.6316,5.6316,5.6416,5.6606,5.6606,5.6606,5.6606,5.6567,5.6541,5.6398,0.0,0.0,0.0,0.0,0.0,2.9086,2.8827,2.8687,2.86,2.86,2.86,0.0,0.0,0.0,0.0,0.0,3.2144,3.294,3.3755,3.4283,3.5204,3.6562,3.7947,3.9152,4.0083,4.1776,4.2588,4.2493,4.3405,4.3955,4.4249,4.45,4.4819,4.5136,4.5036,4.506,4.5192,4.4941,4.4902,4.4967,4.5033,4.5091,4.5102,4.4482,4.4284,4.4358,0.0,0.0,0.0,4.5307,4.5105,4.4857,4.4857,4.4857,4.4857,4.4857,4.5067,4.5307,4.5307,4.5307,4.5307,4.5307,4.5698,4.6099,4.6099,4.6748,4.7532,4.8105,4.8449,4.8926,4.9748,4.9901,4.9977,5.0264,5.0799,5.1257,5.1551,5.2785,5.376,5.4065,5.4868,0.0,0.0,0.0,0.0,5.5432,5.5477,5.5527,5.5572,5.5679,5.573,5.5721,5.5779,5.5808,5.5826,5.5826,5.5826,5.5845,5.593,5.5959,5.5967,5.605,5.6097,5.6097,5.6097,5.6122,5.6164,5.6164,5.6206,5.6286,5.6367,5.6409,5.6416,5.6555,5.6591,5.6559,0.0,0.0,0.0,0.0,0.0,0.0,0.0,0.0,0.0,0.0,0.0,0.0,0.0,0.0,0.0,0.0,0.0,3.2415,3.294,0.0,3.4534,3.5333,3.6635,3.7784,3.8711,4.0297,4.1203,4.1387,4.2259,4.2713,4.2713,4.3267,4.354,4.354,4.4009,4.4321,4.4467,4.4226,4.4403,4.4764,4.4146,4.412,4.435,4.3353,4.3099,0.0,0.0,0.0,0.0,4.5066,4.5265,4.5267,4.5121,4.5087,4.5076,4.4988,4.5053,4.5098,4.5,4.4976,4.5041,4.5333,4.5789,4.6288,4.6686,4.746,4.8276,4.8953,4.9328,4.9691,5.0206,5.0302,5.0302,5.0302,5.1028,5.1704,5.1983,5.3225,5.4218,5.4524,5.5059,5.5403,0.0,0.0,0.0,5.583,5.583,5.5976,5.6332,5.6388,5.6424,5.6467,5.6514,5.6529,5.6593,5.6593,5.6604,5.6626,5.6406,5.629,5.63,5.6057,5.5951,5.5951,5.5951,5.5982,5.6035,5.6035,5.607,5.6104,5.6186,5.6237,5.6252,5.6436,5.65,5.6503,0.0,0.0,0.0,0.0,0.0,0.0,0.0,0.0,0.0,0.0,0.0,0.0,0.0,0.0,0.0,0.0,0.0,0.0,0.0,0.0,0.0,3.4516,3.5315,3.6109,3.6868,3.8462,3.9278,3.9278,4.0277,4.0758,4.0776,4.1827,4.2308,4.2345,4.3141,4.3656,4.3867,4.3253,4.36,4.4376,4.273,4.2516,4.3087,4.2018,0.0,0.0,0.0,0.0,0.0,4.4652,4.514,4.5184,4.4795,4.4676,4.465,4.4438,4.4572,4.4714,4.4452,4.4421,4.4646,4.5406,4.5654,4.6003,4.7084,4.802,4.8725,4.9036,4.9713,5.0248,0.0,0.0,5.0259,5.0259,5.1054,5.1926,5.269,5.3588,5.4467,0.0,0.0,0.0,0.0,0.0,0.0,5.6658,0.0,5.7027,5.7867,5.7886,5.7926,5.8011,5.7992,5.8074,5.8177,5.8208,5.8231,5.8269,5.7453,5.708,5.7041,5.6203,5.5818,5.5818,5.578,5.5846,5.5956,5.5917,5.5959,5.6078,5.6084,5.6084,5.6104,5.6247,5.6284,5.6316,0.0,0.0,0.0,0.0,0.0,0.0,0.0,0.0,0.0,0.0,0.0,0.0,0.0,0.0,0.0,0.0,0.0,0.0,0.0,0.0,0.0,0.0,0.0,0.0,0.0,0.0,0.0,0.0,0.0,3.889,3.8907,3.9367,3.9604,3.9641,4.0597,4.1055,4.1149,4.1571,4.1928,4.2136,0.0,4.1696,4.1838,0.0,0.0,0.0,0.0,0.0,0.0,4.403,4.4682,4.465,4.4346,4.4392,4.4506,4.4247,4.4214,4.4257,4.419,4.4687,4.5273,4.5465,4.6502,4.7541,4.7837,4.8524,4.9152,4.9225,4.9424,4.9556,0.0,0.0,0.0,4.9929,5.1364,0.0,5.2766,5.4104,0.0,5.5365,0.0,5.5403,5.5403,5.6129,0.0,0.0,5.7562,5.7676,5.7886,5.7959,5.7979,5.7992,5.8062,5.808,5.8136,5.8184,5.8208,5.8231,5.8046,5.7973,5.7953,5.7742,5.7646,5.7607,5.6953,5.6689,5.6673,5.6018,5.5759,5.5808,5.5913,5.5962,5.5959,5.6097,5.6146,5.6164,0.0,0.0,0.0,0.0,0.0,0.0,0.0,0.0,0.0,0.0,0.0,0.0,0.0,0.0,0.0,0.0,0.0,0.0,0.0,0.0,0.0,0.0,0.0,0.0,0.0,0.0,0.0,0.0,0.0,0.0,0.0,3.7665,3.7908,3.7945,3.887,3.9326,3.9451,0.0,0.0,0.0,0.0,0.0,0.0,0.0,0.0,0.0,0.0,0.0,0.0,4.3341,4.3921,4.4043,4.3937,4.4001,4.4013,4.3783,4.3799,4.3968,4.4179,4.4658,4.5261,4.5984,4.689,4.7754,4.8287,4.8714,4.908,4.9252,4.9299,4.9299,4.9299,4.957,4.9744,0.0,0.0,0.0,5.2596,5.4199,5.5403,0.0,5.5403,0.0,5.588,5.6683,5.7523,0.0,5.844,5.8593,5.8975,5.9035,5.9062,5.9062,5.9088,5.9128,5.9153,5.9229,5.9254,5.9254,5.8942,5.8773,5.8773,5.8462,5.83,5.828,0.0,5.7569,5.7492,5.6626,5.6272,5.6244,5.5933,5.5808,5.5827,5.5959,5.602,5.6022,0.0,0.0,0.0,0.0,0.0,0.0,0.0,0.0,0.0,0.0,2.8779,0.0,0.0,0.0,0.0,0.0,0.0,0.0,0.0,0.0,0.0,0.0,0.0,0.0,0.0,0.0,0.0,0.0,0.0,0.0,0.0,0.0,0.0,0.0,0.0,0.0,0.0,0.0,0.0,0.0,0.0,0.0,0.0,0.0,0.0,0.0,0.0,0.0,0.0,4.254,4.3068,4.3507,4.3559,4.3542,4.3439,4.3214,4.3355,4.371,4.4218,4.4528,4.5077,4.6594,4.7051,4.7405,4.8492,4.8676,4.8747,4.9097,4.9177,4.9177,4.9177,4.9439,4.957,4.9287,0.0,5.2437,5.2253,5.3919,5.5198,5.53,5.5377,5.5728,5.6511,5.739,5.823,5.9052,5.921,5.9606,6.0365,6.0403,6.0403,6.0403,6.0403,6.0431,6.0485,6.0552,6.0591,6.0591,5.9887,5.9559,5.954,5.8908,5.8615,5.8615,5.85,0.0,5.8396,5.753,5.7176,5.7099,5.6338,5.5972,5.5889,5.601,5.5968,5.5879,0.0,0.0,0.0,0.0,0.0,0.0,0.0,0.0,0.0,0.0,2.9079,2.8785,0.0,0.0,0.0,0.0,0.0,0.0,0.0,0.0,0.0,0.0,0.0,0.0,0.0,0.0,0.0,0.0,0.0,0.0,0.0,0.0,0.0,0.0,0.0,0.0,0.0,0.0,0.0,0.0,0.0,0.0,0.0,0.0,0.0,0.0,0.0,0.0,0.0,0.0,4.2541,4.3302,4.3105,4.316,4.3267,4.3032,4.2995,4.3195,4.3955,4.4739,4.5562,4.6526,4.7277,4.7907,4.823,4.8286,0.0,4.8439,4.8477,4.8477,4.8477,4.8746,4.8951,4.89,5.0065,5.1182,5.1801,5.3055,5.415,0.0,5.52,5.5728,5.6511,5.739,0.0,0.0,0.0,6.0236,6.0403,6.0403,6.0403,6.0403,6.0403,6.0403,6.0417,6.0485,6.0512,6.0512,6.0438,6.0387,6.0387,6.0308,6.0287,6.0248,5.9585,0.0,5.9223,5.8415,5.8069,5.8069,5.7915,5.7415,5.6772,5.6795,5.6344,5.5758,0.0,0.0,0.0,0.0,0.0,0.0,0.0,3.0003,2.9847,2.967,2.9465,2.9166,2.881,2.8761,2.8712,0.0,0.0,0.0,0.0,0.0,0.0,0.0,0.0,0.0,0.0,0.0,0.0,0.0,0.0,0.0,0.0,0.0,0.0,0.0,0.0,0.0,0.0,0.0,0.0,0.0,0.0,0.0,0.0,0.0,0.0,0.0,0.0,0.0,0.0,0.0,4.2323,4.3087,4.2939,4.2995,4.3069,4.2939,4.2901,4.3173,4.4385,4.5098,4.5776,4.703,4.7652,4.7988,4.8148,4.8148,4.813,4.8267,4.8306,4.8306,4.8306,4.8568,4.8746,4.8587,4.9709,5.0828,5.1437,5.2721,5.3907,5.4712,5.5159,5.5899,5.7141,5.7638,5.8421,0.0,0.0,6.0403,6.0403,6.0403,6.0403,6.0403,6.0403,6.0403,6.0403,6.0431,6.0444,6.0444,6.0512,6.0552,6.0552,6.0648,6.0697,6.0678,6.0334,0.0,6.0108,5.9281,5.8915,5.8877,5.8473,5.805,5.7607,5.7176,5.6733,5.6321,0.0,0.0,0.0,0.0,0.0,0.0,0.0,3.0161,3.0061,2.9886,2.983,2.9598,2.913,2.8984,2.8875,0.0,0.0,0.0,0.0,0.0,0.0,0.0,0.0,0.0,0.0,0.0,0.0,3.3393,0.0,0.0,0.0,0.0,0.0,0.0,0.0,0.0,0.0,0.0,0.0,0.0,0.0,0.0,0.0,0.0,0.0,0.0,0.0,0.0,4.0601,4.1234,4.2103,4.2901,4.2901,4.2901,4.2901,4.2901,4.2901,4.3227,4.4639,4.5241,4.5791,4.7243,4.7733,4.7902,4.8087,4.807,4.7997,4.799,4.8157,4.8232,4.8067,4.8403,4.8604,4.8326,4.932,5.0359,5.1083,5.2362,5.3577,5.4587,5.5113,0.0,5.7734,5.7905,0.0,0.0,0.0,0.0,6.0403,6.0403,6.0403,6.0403,6.0403,6.0403,6.0403,6.0403,6.0403,6.0403,6.0458,6.0472,6.0485,6.0597,6.066,6.0673,6.0753,0.0,0.0,6.0069,5.9781,5.9723,5.9088,5.8723,5.8473,5.778,5.7311,5.6907,0.0,0.0,0.0,0.0,0.0,0.0,0.0,3.0185,3.015,3.0076,3.0072,2.994,2.9653,2.9306,2.9034,0.0,0.0,0.0,0.0,0.0,0.0,0.0,0.0,0.0,0.0,0.0,0.0,3.3393,3.3393,0.0,0.0,0.0,0.0,0.0,0.0,0.0,0.0,0.0,0.0,0.0,0.0,0.0,0.0,0.0,0.0,0.0,0.0,3.9242,4.051,4.0583,4.1633,4.2901,4.2901,4.2901,4.2901,4.2901,4.2901,4.31,4.3969,4.4767,4.5528,4.6416,4.7174,4.7759,4.7902,4.7968,4.7791,4.7082,4.7658,4.8067,4.7275,4.7791,4.8344,4.8306,4.8418,4.9063,5.0623,5.1485,5.2556,5.4159,0.0,0.0,5.7734,5.7905,0.0,0.0,0.0,0.0,6.0403,6.0403,6.0403,6.0403,6.0403,6.0403,6.0403,6.0403,6.0403,6.0403,6.0403,6.0403,6.0403,6.0485,6.0552,6.0617,6.0692,0.0,0.0,6.0704,6.0685,6.0666,6.0589,6.0089,5.9377,5.93,5.83,5.6983,0.0,0.0,0.0,0.0,0.0,0.0,3.0211,3.0211,3.0197,3.0169,3.0169,3.0098,2.9967,2.9725,2.9436,2.9056,0.0,0.0,0.0,0.0,0.0,0.0,0.0,0.0,0.0,0.0,3.3393,3.3393,3.3393,0.0,0.0,0.0,0.0,0.0,0.0,3.3393,0.0,0.0,0.0,0.0,0.0,0.0,0.0,0.0,0.0,0.0,0.0,0.0,4.0492,4.0492,4.1578,4.2901,4.2901,4.2901,4.2901,4.2901,4.2901,4.3082,4.3878,4.4331,4.4892,4.6178,4.6739,4.7014,4.7155,4.7215,4.7021,4.6336,4.6504,4.6854,4.7038,4.7332,4.7736,4.8233,0.0,0.0,5.0563,5.1213,5.22,5.4074,5.4735,0.0,0.0,0.0,0.0,0.0,0.0,0.0,6.0403,6.0403,6.0403,6.0403,6.0403,6.0403,6.0403,6.0403,6.0403,6.0403,6.0403,6.0403,6.0403,6.0472,6.0512,6.0552,6.0648,0.0,0.0,6.0788,6.08,6.08,6.08,6.0589,6.0223,5.9685,5.9088,5.8434,0.0,0.0,0.0,0.0,0.0,3.0211,3.0211,3.0211,3.0211,3.0211,3.0211,3.019,3.014,3.0053,2.9811,2.9368,2.918,0.0,0.0,0.0,0.0,0.0,0.0,0.0,0.0,0.0,3.3393,3.3393,3.3393,3.3393,0.0,0.0,3.3393,3.3393,0.0,0.0,0.0,0.0,0.0,0.0,0.0,0.0,0.0,0.0,0.0,0.0,0.0,0.0,0.0,0.0,0.0,4.2592,4.2829,0.0,0.0,0.0,4.2901,4.3028,4.3588,4.3914,4.4367,4.5508,4.5979,4.618,4.6261,4.6319,4.6161,4.5495,4.579,4.6286,4.6653,4.7112,4.7626,0.0,0.0,4.8893,5.0563,5.1082,5.199,5.3901,0.0,5.572,0.0,5.8285,0.0,0.0,0.0,0.0,6.0403,6.0403,6.0403,6.0403,6.0403,6.0403,6.0403,6.0403,6.0403,6.0403,6.0403,6.0403,6.0403,6.0444,6.0485,6.0512,6.0604,0.0,0.0,6.0765,6.0788,6.08,6.08,6.08,6.0723,6.0108,5.9723,5.9415,0.0,0.0,0.0,0.0,0.0,0.0,3.0211,3.0211,3.0211,3.0211,3.0211,3.0211,3.0204,3.0204,3.0101,2.9905,2.9474,0.0,0.0,0.0,0.0,0.0,0.0,0.0,0.0,0.0,3.3393,3.3393,3.3393,3.3393,3.3393,3.3393,3.3393,3.3393,0.0,0.0,0.0,0.0,0.0,0.0,0.0,0.0,0.0,0.0,0.0,0.0,0.0,0.0,0.0,0.0,0.0,0.0,0.0,4.2901,4.2901,0.0,4.2901,4.2901,4.2919,4.348,4.4095,4.4114,4.4711,4.5309,4.5309,4.5406,4.5267,4.4486,4.5751,4.6743,4.5974,4.7185,4.8306,4.8306,4.8306,0.0,5.0563,5.1082,5.1899,0.0,0.0,5.5973,5.7179,5.9183,0.0,0.0,0.0,0.0,6.0403,6.0403,6.0403,6.0403,6.0403,6.0403,6.0403,6.0403,6.0403,6.0403,6.0403,6.0403,6.0403,6.0403,6.0431,0.0,0.0,0.0,0.0,6.0697,6.0734,6.08,6.08,6.08,6.08,6.0781,6.0242,5.9492,0.0,0.0,0.0,0.0,0.0,0.0,0.0,3.0211,3.0211,3.0211,3.0211,3.0211,3.0211,3.0211,3.0171,3.0113,2.9792,0.0,0.0,0.0,0.0,0.0,0.0,0.0,0.0,0.0,3.3452,3.3393,3.3452,3.3437,3.3393,3.3393,3.3393,3.3393,3.3393,3.3393,0.0,0.0,0.0,0.0,0.0,0.0,0.0,0.0,0.0,0.0,0.0,0.0,0.0,0.0,0.0,0.0,0.0,0.0,0.0,4.2901,4.2901,4.2901,4.2901,4.31,4.3426,4.3951,4.4277,4.4476,4.4476,4.4515,4.4355,4.3688,4.4436,4.5369,4.5773,4.6764,4.7663,4.8214,4.8306,0.0,0.0,0.0,0.0,5.3865,5.5901,5.7287,0.0,0.0,0.0,0.0,0.0,0.0,6.0403,6.0403,6.0403,6.0403,6.0403,6.0403,6.0403,6.0403,6.0403,6.0403,6.0403,6.0403,6.0403,6.0403,6.0403,0.0,0.0,0.0,0.0,6.0673,6.0734,6.08,6.08,6.08,6.08,6.08,6.0627,6.0396,0.0,0.0,0.0,0.0,0.0,0.0,0.0,3.0211,3.0211,3.0211,3.0211,3.0211,3.0211,3.0211,3.0211,3.0211,3.0057,0.0,0.0,0.0,0.0,0.0,0.0,0.0,3.1039,3.266,3.3477,3.3481,3.3524,3.3524,3.3481,3.3452,3.3437,3.3437,3.3408,3.3393,0.0,0.0,0.0,0.0,0.0,0.0,3.3491,0.0,0.0,0.0,0.0,0.0,0.0,0.0,0.0,0.0,0.0,0.0,0.0,0.0,4.2901,4.2901,4.2901,4.2938,4.3102,4.3591,4.3718,4.3718,4.3718,4.3681,4.3646,4.3652,4.429,4.5168,4.6177,4.7003,4.7718,4.8233,4.8306,4.8893,0.0,0.0,0.0,5.4222,0.0,0.0,0.0,0.0,0.0,0.0,0.0,0.0,6.0403,6.0403,6.0403,6.0403,6.0403,6.0403,6.0403,6.0403,6.0403,6.0403,6.0403,6.0403,6.0403,6.0403,6.0417,0.0,0.0,0.0,0.0,6.0655,6.0697,6.0757,6.08,6.08,6.08,6.08,6.08,6.08,0.0,0.0,0.0,0.0,0.0,0.0,0.0,3.0211,3.0211,3.0211,3.0211,3.0211,3.0211,3.0211,3.0211,3.0211,0.0,0.0,0.0,0.0,0.0,0.0,0.0,0.0,3.1192,3.2734,3.3563,3.3605,3.3605,3.3605,3.3605,3.3534,3.3509,3.3491,3.3437,3.3411,3.3411,0.0,0.0,0.0,3.3437,3.3437,0.0,0.0,0.0,0.0,0.0,0.0,0.0,0.0,0.0,0.0,0.0,0.0,0.0,0.0,0.0,0.0,0.0,4.2994,4.3086,4.3086,4.3086,4.3086,4.3086,4.2994,0.0,4.4199,4.5057,4.5935,4.691,4.7755,4.8306,4.8306,4.8306,4.8893,0.0,5.0914,0.0,0.0,5.6298,0.0,5.8426,0.0,0.0,0.0,0.0,0.0,6.0403,6.0403,6.0403,6.0403,6.0403,6.0403,6.0403,6.0403,6.0403,6.0403,6.0403,6.0403,6.0403,6.0403,6.0431,0.0,0.0,0.0,0.0,6.0604,6.0635,6.0717,6.0757,6.08,6.08,6.08,6.08,6.08,0.0,0.0,0.0,0.0,0.0,0.0,0.0,0.0,0.0,0.0,3.0211,3.0211,3.0211,3.0211,3.0211,0.0,0.0,0.0,0.0,0.0,0.0,0.0,0.0,0.0,3.2092,3.3314,3.3829,3.3605,3.3643,3.3643,3.3605,3.3591,3.3577,3.3577,3.3509,3.3481,3.3481,3.3481,0.0,0.0,3.3491,3.3495,0.0,0.0,0.0,0.0,3.657,3.8345,0.0,0.0,0.0,0.0,0.0,0.0,0.0,0.0,4.2901,4.2919,4.303,0.0,4.2938,4.2938,4.2938,4.2938,0.0,4.2994,4.3304,4.4199,4.5113,4.6029,4.6929,4.7755,4.8306,4.8306,4.8306,4.8893,5.0563,5.2075,0.0,5.474,5.605,5.728,5.8394,0.0,0.0,0.0,0.0,6.0403,6.0403,6.0403,6.0403,6.0403,6.0403,6.0403,6.0403,6.0403,6.0403,6.0403,6.0403,6.0403,6.0403,6.0403,6.0403,0.0,0.0,0.0,6.0539,6.0623,6.0692,6.0717,6.0757,6.08,6.08,6.08,6.08,6.08,0.0,0.0,0.0,0.0,0.0,0.0,0.0,0.0,0.0,0.0,0.0,3.0211,3.0211,3.0211,0.0,0.0,0.0,0.0,0.0,0.0,0.0,0.0,0.0,3.2372,3.261,3.3586,3.3972,3.3684,3.3726,3.3726,3.3684,3.3657,3.3633,3.3605,3.352,3.3524,3.3549,3.3549,3.3563,3.3591,3.352,0.0,0.0,0.0,0.0,0.0,3.696,3.8667,0.0,4.0617,4.1706,4.3086,0.0,0.0,0.0,0.0,4.2938,4.3012,4.3086,4.3086,4.305,4.305,4.305,4.3031,4.2994,4.3321,4.3905,4.4764,4.5698,4.6615,4.7498,4.8012,4.8306,4.8306,4.8636,0.0,0.0,0.0,5.3849,5.4295,5.5734,5.6958,0.0,0.0,0.0,0.0,0.0,6.0207,6.0389,6.0403,6.0403,6.0403,6.0403,6.0403,6.0403,6.0403,6.0403,6.0403,6.0403,6.0403,6.0403,6.0403,6.0417,0.0,0.0,0.0,6.0552,6.0667,6.0697,6.0717,6.0757,6.08,6.08,6.08,6.08,6.08,0.0,0.0,0.0,0.0,0.0,0.0,0.0,0.0,0.0,0.0,0.0,0.0,0.0,0.0,0.0,0.0,0.0,0.0,0.0,0.0,0.0,0.0,3.2491,3.3057,3.311,3.3789,3.403,3.3807,3.3807,3.3807,3.3807,3.3739,3.3671,3.3601,3.3549,3.3563,3.3601,3.3605,3.3619,3.3619,3.3647,0.0,0.0,0.0,0.0,0.0,0.0,0.0,0.0,4.085,4.1869,4.3086,4.2975,0.0,0.0,0.0,0.0,0.0,4.3141,4.3178,4.3196,4.3196,4.3178,4.3196,4.3268,4.3832,4.4616,4.5622,4.6448,4.7275,4.814,4.8306,4.8306,4.8306,0.0,0.0,5.1775,5.2945,5.366,5.379,5.5417,0.0,0.0,0.0,0.0,0.0,0.0,5.9988,6.0375,6.0403,6.0403,6.0403,6.0403,6.0403,6.0403,6.0403,6.0403,6.0403,6.0403,6.0403,6.0403,6.0403,6.0431,6.0485,0.0,0.0,6.0591,6.0692,6.0697,6.0717,6.0757,6.08,6.08,6.08,6.08,6.08,0.0,0.0,0.0,0.0,0.0,0.0,0.0,0.0,0.0,0.0,0.0,0.0,0.0,0.0,0.0,0.0,0.0,0.0,0.0,0.0,0.0,3.3557,3.358,3.3715,3.3993,3.4285,3.4225,3.3807,3.3807,3.3807,3.3807,3.3793,3.3753,3.3684,3.3671,3.3671,3.3671,3.3615,3.3629,3.3725,3.428,0.0,0.0,0.0,0.0,0.0,0.0,0.0,0.0,4.1487,4.2323,4.3086,4.3086,0.0,0.0,0.0,0.0,0.0,4.3305,4.3287,4.3196,4.3123,4.3123,4.3287,4.3959,4.4326,4.4986,4.6486,4.6927,4.7314,4.814,4.8306,4.8306,4.8306,0.0,5.093,0.0,0.0,5.3529,5.4212,0.0,0.0,0.0,0.0,0.0,0.0,0.0,5.9988,6.0375,6.0403,6.0403,6.0403,6.0403,6.0403,6.0403,6.0403,6.0403,6.0403,6.0403,6.0403,6.0403,6.0403,6.0403,6.0417,0.0,6.0565,6.0525,6.0717,6.0746,6.0717,6.0757,6.08,6.08,6.08,6.08,6.08,0.0,0.0,0.0,0.0,0.0,0.0,0.0,0.0,0.0,0.0,0.0,0.0,0.0,0.0,0.0,0.0,0.0,0.0,0.0,0.0,3.4016,3.4475,3.4395,3.4356,3.4353,3.4348,3.4148,3.3807,3.4384,3.4592,3.4454,3.4408,3.4618,3.4979,3.454,3.4595,3.4997,3.5048,3.503,3.5019,0.0,0.0,0.0,0.0,0.0,0.0,0.0,0.0,0.0,0.0,4.2486,4.3012,4.3123,0.0,0.0,0.0,0.0,0.0,4.3269,4.3305,4.3378,4.3669,4.374,4.3849,4.4214,4.5073,4.6008,4.6815,4.7386,4.7846,4.8233,4.8306,4.86,4.9499,0.0,5.172,5.2546,5.2968,5.3332,0.0,0.0,0.0,0.0,0.0,0.0,0.0,0.0,0.0,6.0049,6.0285,6.0403,6.0403,6.0403,6.0403,6.0403,6.0403,6.0403,6.0403,6.0403,6.0403,6.0403,6.0403,6.0403,6.0403,0.0,6.0578,6.0565,6.0741,6.0788,6.0765,6.0788,6.08,6.08,6.08,6.08,6.08,0.0,0.0,0.0,0.0,0.0,0.0,0.0,0.0,0.0,0.0,0.0,0.0,0.0,0.0,0.0,0.0,0.0,0.0,0.0,3.4067,3.4467,3.4879,3.4841,3.4704,3.4508,3.4291,3.4166,3.4082,3.4911,3.5322,3.5298,3.5255,3.5571,3.6124,3.5498,3.5556,3.6113,3.6194,3.6164,3.6072,0.0,0.0,0.0,0.0,0.0,0.0,0.0,0.0,0.0,0.0,0.0,0.0,0.0,0.0,0.0,4.3178,4.3233,4.3196,4.3269,4.3468,4.3779,4.4253,4.4342,4.4414,4.4796,4.5893,4.692,4.7237,4.7846,4.8306,4.8306,4.8471,0.0,5.082,5.1591,5.227,5.3096,5.3185,5.3185,5.3185,0.0,0.0,0.0,0.0,0.0,0.0,0.0,0.0,5.9774,6.0173,6.0403,6.0403,6.0403,6.0403,6.0403,6.0403,6.0403,6.0403,6.0403,6.0403,6.0403,6.0403,6.0403,6.0403,6.0539,6.0604,6.0617,6.0734,6.08,6.08,6.08,6.08,6.08,6.08,6.08,6.08,0.0,0.0,0.0,0.0,0.0,0.0,0.0,0.0,0.0,0.0,0.0,0.0,0.0,0.0,0.0,0.0,0.0,0.0,3.3952,3.4686,3.5049,3.4917,3.4663,3.4518,3.4508,3.4291,3.4431,3.4912,3.4981,3.5436,3.6211,3.6193,3.6229,3.6285,3.6229,3.6168,3.6113,3.6039,3.5982,3.5981,3.6662,0.0,0.0,0.0,0.0,0.0,0.0,0.0,0.0,0.0,0.0,0.0,0.0,0.0,4.2975,4.3287,4.3305,4.3232,4.3445,4.3996,4.451,4.4583,4.4473,4.4782,4.6277,4.681,4.7219,4.8047,4.825,4.8306,4.8306,4.8948,5.0033,5.1646,5.1958,5.227,5.3096,0.0,5.3185,0.0,0.0,0.0,0.0,0.0,0.0,0.0,0.0,0.0,5.9774,6.0173,6.0403,6.0403,6.0403,6.0403,6.0403,6.0403,6.0403,6.0403,6.0403,6.0403,6.0403,6.0403,6.0403,6.0403,6.0539,6.0604,6.0617,6.0734,6.08,6.08,6.08,6.08,6.08,6.08,6.08,6.08,0.0,0.0,0.0,0.0,0.0,0.0,0.0,0.0,0.0,0.0,0.0,0.0,0.0,0.0,0.0,0.0,0.0,0.0,3.4713,3.4909,3.4982,3.4889,3.4643,3.4686,3.5048,3.4327,3.4391,3.5238,3.6131,3.7065,3.8025,3.7283,3.7171,3.7582,3.7089,3.7098,3.7476,3.7489,3.7473,3.7515,3.8302,3.8613,0.0,0.0,0.0,0.0,0.0,0.0,0.0,0.0,4.305,4.2938,4.3105,4.3105,4.3068,4.3233,4.3233,4.3233,4.3286,4.3943,4.4711,4.5131,4.5624,4.6154,4.6679,4.7286,4.7841,4.8173,4.8267,4.8471,4.9003,0.0,5.13,5.1885,5.2417,5.2858,5.317,5.3185,0.0,0.0,0.0,0.0,0.0,0.0,0.0,0.0,0.0,0.0,5.9432,6.0034,6.0403,6.0403,6.0403,6.0403,6.0403,6.0403,6.0403,6.0403,6.0403,6.0403,6.0403,6.0403,6.0403,6.0403,6.0499,6.0565,6.0604,6.0704,6.0746,6.08,6.08,6.08,6.08,6.08,6.08,6.08,0.0,0.0,0.0,0.0,0.0,0.0,0.0,0.0,0.0,0.0,0.0,0.0,0.0,0.0,0.0,0.0,0.0,0.0,3.5069,3.4982,3.4831,3.4701,3.4738,3.499,3.5386,3.4874,3.5059,3.6054,3.7525,3.8611,3.9272,3.8499,3.8366,3.8777,3.7958,3.802,3.8704,3.8753,3.888,3.9102,3.9666,3.9869,0.0,0.0,0.0,0.0,0.0,0.0,0.0,0.0,4.2995,4.292,4.3068,4.3068,4.3049,4.3142,4.316,4.3215,4.3506,4.4273,4.515,4.5805,4.6703,4.7364,4.7209,4.7706,4.8207,4.8226,4.8486,4.904,5.0161,0.0,0.0,0.0,5.2839,5.3185,5.3185,5.3185,0.0,0.0,0.0,0.0,0.0,0.0,0.0,0.0,0.0,0.0,0.0,5.9842,6.027,6.0389,6.0403,6.0403,6.0403,6.0403,6.0403,6.0403,6.0403,6.0403,6.0403,6.0403,6.0403,6.0403,6.0499,6.0565,6.0604,6.0704,6.0765,6.08,6.08,6.08,6.08,6.08,6.08,6.08,0.0,0.0,0.0,0.0,0.0,0.0,0.0,0.0,3.2699,3.2718,3.2718,0.0,0.0,0.0,0.0,0.0,3.5201,3.5107,3.4898,3.4908,3.4701,3.4221,3.4977,3.5404,3.5423,3.6016,3.6707,3.7492,3.9108,3.9834,3.9701,3.9834,3.9834,3.9682,3.8878,3.8919,3.9588,3.954,3.9892,4.0492,4.051,4.0599,4.0778,0.0,0.0,0.0,0.0,0.0,0.0,0.0,4.2901,4.2901,4.2901,4.2901,4.2938,4.3049,4.3104,4.3305,4.4162,4.5076,4.5955,4.6625,4.7565,4.8248,4.8052,4.811,4.8226,4.8323,4.9022,5.0106,5.1701,5.1995,0.0,5.3057,5.3185,5.3185,5.3185,0.0,0.0,0.0,0.0,0.0,0.0,0.0,0.0,0.0,0.0,0.0,0.0,5.9588,5.9988,6.0389,6.0403,6.0403,6.0403,6.0403,6.0403,6.0403,6.0403,6.0403,6.0403,6.0403,6.0403,6.0403,6.0539,6.0604,6.0617,6.0734,6.08,6.08,6.08,6.08,6.08,6.08,6.08,6.08,0.0,0.0,0.0,0.0,0.0,0.0,0.0,0.0,3.2928,3.3528,3.412,0.0,0.0,0.0,0.0,0.0,0.0,3.4954,3.4889,3.4714,3.4756,3.5027,3.5408,3.6013,3.685,3.7614,3.7826,3.7492,3.9108,3.9866,3.9834,4.0323,4.0512,4.046,4.0086,4.0018,4.0236,4.0201,4.0328,4.0546,4.1126,4.1361,4.1488,0.0,0.0,0.0,0.0,0.0,0.0,0.0,0.0,0.0,4.2901,4.2957,4.303,4.2975,4.303,4.3286,4.4105,4.4944,4.5764,4.6605,4.7448,4.8072,4.8012,4.8608,4.9351,4.9939,5.071,5.1426,5.1903,5.2454,0.0,5.317,5.3185,5.3185,5.3185,0.0,0.0,0.0,0.0,0.0,0.0,0.0,0.0,0.0,0.0,0.0,0.0,5.9551,6.0285,6.0389,6.0403,6.0403,6.0403,6.0403,6.0403,6.0403,6.0403,6.0403,6.0403,6.0403,6.0403,6.0403,6.0499,6.0552,6.0617,6.0734,6.08,6.08,6.08,6.08,6.08,6.08,6.08,6.08,0.0,0.0,0.0,0.0,0.0,0.0,0.0,0.0,3.3883,3.4407,3.4904,3.5209,0.0,0.0,0.0,0.0,3.5046,3.4936,3.4753,3.4902,3.5109,3.5398,3.6037,3.6909,3.7951,3.845,3.8469,3.7988,3.9588,4.0345,4.0264,4.102,4.13,4.1212,4.078,4.0763,4.1053,4.0999,4.1144,4.1506,4.1995,4.2194,4.223,0.0,0.0,0.0,0.0,0.0,0.0,0.0,0.0,0.0,4.2901,4.2975,4.2994,4.2919,4.3174,4.3666,4.4482,4.532,4.6157,4.6959,4.7585,4.8176,4.8873,4.9305,4.9863,5.1041,5.1665,5.2087,5.2417,5.2876,0.0,5.3185,5.3185,5.3185,5.3185,0.0,0.0,0.0,0.0,0.0,0.0,0.0,0.0,0.0,0.0,0.0,0.0,5.8405,5.9075,5.9396,5.9396,5.9396,5.9396,5.9396,5.9396,5.9396,5.9396,5.9568,5.9892,6.0236,6.0403,6.0403,6.0499,6.0578,6.0655,6.0765,6.08,6.08,6.08,6.08,6.08,6.08,6.08,6.08,0.0,0.0,3.5209,3.5209,0.0,0.0,0.0,0.0,3.5209,3.5209,3.5209,3.5209,0.0,0.0,0.0,0.0,3.5177,3.5106,3.4755,3.5417,3.5741,3.5602,3.6901,3.7936,3.8689,3.8707,3.8744,3.8817,4.0343,4.0978,4.0826,4.1807,4.2175,4.1978,4.1233,4.1324,4.1978,4.1869,4.223,4.2901,4.2901,4.2901,4.2901,4.2901,0.0,0.0,0.0,0.0,0.0,0.0,0.0,0.0,4.2901,4.2901,4.29,4.2992,4.3516,4.4277,4.5164,4.6041,4.6844,4.7539,4.7881,4.8521,5.0195,5.0069,5.0092,5.1754,5.2105,5.2325,5.3078,5.3185,5.3185,5.3185,5.3185,5.3185,5.3185,0.0,0.0,0.0,0.0,0.0,0.0,0.0,0.0,0.0,0.0,0.0,0.0,5.6679,5.7095,5.7873,5.7905,5.7905,5.7905,5.7905,5.7905,5.7905,5.7905,5.8288,5.9019,5.9892,6.0327,6.0417,6.0539,6.0642,6.0717,6.0777,6.08,6.08,6.08,6.08,6.08,6.08,6.08,6.08,0.0,0.0,3.5209,3.5209,0.0,0.0,0.0,0.0,0.0,3.5209,0.0,0.0,0.0,0.0,0.0,0.0,3.5865,3.5894,3.6434,3.661,3.682,3.7039,3.7945,3.8524,3.8707,3.8707,3.9019,3.9643,4.0533,4.0924,4.0909,4.2267,4.2887,4.2813,4.2558,4.2521,4.2684,4.2647,4.2737,4.2901,4.2901,4.2901,4.2901,4.2901,4.2901,0.0,0.0,0.0,0.0,0.0,0.0,0.0,4.2901,4.2901,4.3028,4.3661,4.3951,4.4403,4.5852,4.6398,4.6724,4.7518,4.8209,4.8998,5.0107,5.076,5.1469,5.2687,5.2949,5.3004,5.3167,5.3185,5.3185,5.3185,5.3185,5.3185,0.0,0.0,0.0,0.0,0.0,0.0,0.0,0.0,0.0,0.0,0.0,0.0,5.5742,5.6651,5.74,5.7873,5.7905,5.7905,5.7905,5.7905,5.7905,0.0,5.7905,5.7982,5.8192,5.9014,5.9786,6.0485,6.0565,6.0642,6.0717,6.0777,6.08,6.08,6.08,6.08,6.08,6.08,6.08,6.08,0.0,0.0,0.0,0.0,0.0,0.0,0.0,0.0,0.0,0.0,0.0,0.0,0.0,3.6006,0.0,0.0,3.6606,3.6658,3.6979,3.7242,3.7591,3.8058,3.8487,3.8707,3.8707,3.9009,3.9378,3.98,4.0891,4.1425,4.1443,4.2559,4.3067,4.2994,4.2938,4.2901,4.2901,4.2901,4.2901,4.2901,4.2901,4.2901,4.2901,4.2901,4.2901,0.0,4.2901,0.0,0.0,0.0,0.0,0.0,0.0,0.0,4.3625,4.444,4.4947,4.5436,4.6269,4.6794,4.7192,4.7609,4.8357,4.9237,5.0101,5.0969,5.1882,5.2812,5.3103,5.3185,5.3185,5.3185,5.3185,5.3185,5.3185,5.3185,0.0,0.0,0.0,0.0,0.0,0.0,0.0,0.0,0.0,0.0,0.0,5.437,5.4898,5.5515,5.6133,5.6689,5.6702,5.6702,5.6702,5.6702,5.6702,5.6702,5.6702,5.6893,5.7313,5.8135,5.8989,5.9846,5.992,6.0227,6.0667,6.0765,6.08,6.08,6.08,6.08,6.08,6.08,6.08,6.08,0.0,0.0,0.0,0.0,0.0,0.0,0.0,0.0,0.0,0.0,0.0,0.0,0.0,3.7147,3.7557,0.0,0.0,0.0,3.7371,3.7737,3.8186,3.867,3.8836,3.8909,3.8909,3.9601,4.001,4.0138,4.1389,4.2085,4.223,4.2832,4.303,4.2901,4.2901,4.2901,4.2901,4.2901,4.2992,4.3118,4.3118,4.3191,4.3318,0.0,0.0,0.0,0.0,4.3318,4.3318,4.3318,0.0,0.0,0.0,0.0,4.4458,4.5273,4.5979,4.654,4.6667,4.7192,4.7717,4.7717,4.8487,4.9443,5.0115,5.1057,5.1963,5.2656,5.2977,5.3164,5.3164,5.3185,5.3185,5.3185,5.3185,5.3185,0.0,0.0,0.0,0.0,0.0,0.0,0.0,0.0,0.0,0.0,0.0,5.3521,5.4264,5.4315,5.4626,5.5377,5.5403,5.5403,5.5403,5.5403,5.5403,5.5403,5.5403,5.5747,5.6415,5.7141,5.8001,5.8899,5.9179,5.969,6.0406,6.0664,6.08,6.08,6.08,6.08,6.08,6.08,6.08,6.08,0.0,0.0,0.0,0.0,0.0,0.0,0.0,0.0,0.0,0.0,3.7464,3.7531,3.7486,3.7462,3.7686,3.8323,3.8256,3.8346,3.8792,0.0,0.0,3.8707,3.9368,3.9735,3.9735,4.0508,4.1244,4.1957,4.199,4.2358,4.3032,4.3087,4.303,4.2901,4.2901,4.2901,4.2901,4.2901,4.3299,4.3932,4.3932,4.4349,0.0,0.0,0.0,0.0,0.0,0.0,4.4983,4.4983,4.4983,0.0,0.0,0.0,4.5291,4.6106,4.6413,4.6649,4.7355,4.7606,4.7717,4.7717,4.8843,4.9989,5.0115,5.1347,5.2526,0.0,5.2934,5.302,5.302,5.3124,5.3185,5.3185,5.3185,0.0,0.0,0.0,0.0,0.0,0.0,0.0,0.0,0.0,0.0,0.0,5.3185,5.3521,5.4264,5.4315,5.4626,5.5377,5.5403,5.5403,5.5403,5.5403,5.5403,5.5403,5.5403,5.546,5.5556,5.5689,5.6587,5.8096,5.8878,5.9307,5.9543,6.0366,6.0753,6.08,6.08,6.08,6.08,6.08,6.08,6.08,0.0,0.0,0.0,0.0,0.0,0.0,0.0,0.0,0.0,0.0,0.0,3.8374,3.8213,3.8552,3.8883,3.9097,3.8896,3.8779,3.8859,3.9188,3.9368,3.9368,4.0139,4.0579,4.0579,4.1321,4.1855,4.2133,4.2573,4.2649,4.2396,4.336,4.3504,4.2919,4.3371,4.357,4.3588,4.4041,4.444,4.4765,4.4765,0.0,0.0,0.0,0.0,0.0,0.0,0.0,0.0,4.5291,4.5291,4.5381,4.5834,0.0,0.0,0.0,4.7174,4.7265,4.7609,4.7717,4.7717,4.7717,4.8912,5.0112,5.0112,5.1366,5.2559,5.2654,5.2806,5.2934,5.3082,5.3164,5.3185,5.3185,5.3185,0.0,0.0,0.0,0.0,0.0,0.0,0.0,0.0,0.0,0.0,0.0,5.3185,5.3521,5.4264,5.4315,5.4626,5.5377,5.5403,5.5403,5.5403,5.5403,5.5403,5.5403,5.5403,5.5403,5.5403,5.5403,5.6052,5.7212,5.7621,5.8368,5.9332,5.9777,6.0311,6.08,6.08,6.08,6.08,6.08,6.08,6.08,0.0,0.0,0.0,0.0,0.0,0.0,0.0,0.0,0.0,0.0,0.0,3.9057,3.8839,0.0,0.0,0.0,3.9522,3.9382,3.931,3.9882,4.0194,4.0194,4.0983,4.1389,4.1389,4.2145,4.2479,4.2391,4.303,4.3014,4.2413,4.3723,4.403,4.3534,4.4132,4.4403,4.444,4.5037,4.5417,4.5599,4.5599,0.0,0.0,0.0,0.0,0.0,0.0,0.0,0.0,0.0,4.5906,4.6015,4.6631,4.6812,0.0,0.0,0.0,4.7717,4.7717,4.7717,4.7717,4.7717,4.8912,5.0112,5.0112,5.1339,5.2526,0.0,5.2739,5.289,5.3143,5.3185,5.3185,5.3185,5.3185,0.0,0.0,0.0,0.0,0.0,0.0,0.0,0.0,0.0,0.0,0.0,5.3185,5.3481,5.4105,5.4228,5.4594,5.5233,5.5345,5.5403,5.5403,5.5403,5.5403,5.5403,5.5403,5.5403,5.5403,5.5403,5.5728,5.6301,5.6556,5.7424,5.8699,5.9189,5.9807,6.0492,6.0704,6.08,6.08,6.08,6.08,6.08,0.0,0.0,0.0,0.0,0.0,0.0,0.0,0.0,0.0,0.0,0.0,3.9463,3.9451,3.9489,3.9714,4.0221,4.0248,4.0441,4.0944,4.1003,4.104,4.104,4.1809,0.0,4.2249,4.302,4.3424,4.3424,4.3268,4.3579,4.4253,4.4156,4.4495,4.5182,4.5218,4.5236,4.5236,4.5273,4.5743,4.645,4.645,4.6902,0.0,0.0,0.0,0.0,0.0,0.0,0.0,0.0,0.0,4.7591,4.7606,4.7645,4.7663,0.0,0.0,0.0,4.7717,4.7717,4.7717,4.7717,4.8912,5.0112,5.0112,0.0,5.2549,5.2739,5.2783,5.289,5.3143,5.3185,5.3185,5.3185,5.3185,0.0,0.0,0.0,0.0,0.0,0.0,0.0,0.0,0.0,0.0,0.0,5.3185,5.3357,5.372,5.4088,5.4463,5.4806,5.52,5.5403,5.5403,5.5403,5.5403,5.5403,5.5403,5.5403,5.5403,5.5403,5.5422,5.5517,5.6262,5.6735,5.705,5.8661,5.9406,5.9646,6.0473,6.08,6.08,6.08,6.08,6.08,0.0,0.0,0.0,0.0,0.0,0.0,0.0,0.0,0.0,0.0,0.0,0.0,0.0,4.0756,4.0721,4.0851,4.0725,4.0696,4.0874,4.1473,4.18,4.18,4.2619,4.3058,4.3007,4.3333,4.3684,4.4072,4.409,4.4163,4.4361,4.532,4.5586,4.5327,4.5834,4.6069,4.6106,4.6631,4.7011,4.7283,4.7283,4.7446,4.7717,0.0,0.0,0.0,0.0,0.0,0.0,0.0,0.0,4.7717,4.7717,4.7717,4.7717,4.7717,4.7717,4.7717,4.7717,4.7717,4.7717,4.7717,4.8912,5.0112,5.0112,5.1339,5.2526,5.2649,5.2739,5.2868,5.3039,5.3143,5.3185,5.3185,5.3185,0.0,0.0,0.0,0.0,0.0,0.0,0.0,0.0,0.0,0.0,0.0,0.0,5.3357,5.3682,5.4088,5.4446,5.4791,5.5187,5.5403,5.5403,5.5403,5.5403,5.5403,5.5403,5.5403,5.5403,5.5403,5.5403,5.5422,5.5708,5.6161,5.6836,5.8035,5.8882,5.953,6.0442,6.08,6.08,6.08,6.08,6.08,0.0,0.0,0.0,0.0,0.0,4.0201,4.0201,4.0576,4.0863,4.0863,0.0,0.0,0.0,0.0,4.1225,4.1454,4.1548,4.1611,4.1611,4.2191,4.2573,4.2608,4.3118,4.3539,4.3832,4.3557,4.387,4.4857,4.462,4.4709,4.5122,4.6136,4.6438,4.6142,4.6667,4.6902,4.6939,4.7461,4.7717,4.7717,4.7717,4.7717,4.7717,0.0,0.0,0.0,0.0,0.0,0.0,0.0,0.0,0.0,4.7717,4.7717,4.7717,4.7717,4.7717,4.7717,4.7717,4.7717,4.7717,4.7717,4.8713,4.9764,5.0057,5.1122,5.22,5.2531,5.2676,5.2783,5.2977,5.3063,5.3164,5.3185,5.3185,0.0,0.0,0.0,0.0,0.0,0.0,0.0,0.0,0.0,0.0,0.0,0.0,0.0,5.3524,5.4016,5.453,5.4995,5.526,5.5403,5.5403,5.5403,5.5403,5.5403,5.5403,5.5403,5.5403,5.5403,5.5396,5.539,5.539,5.5746,5.6364,5.7275,5.8211,5.9127,6.0019,6.0531,6.08,6.08,6.08,6.08,0.0,0.0,4.1665,4.1595,4.1586,4.159,4.159,4.1393,4.1227,4.1227,0.0,0.0,0.0,0.0,0.0,4.1994,4.2777,4.3233,4.3251,4.3269,4.3324,4.3467,4.3342,4.3743,4.4709,4.3779,4.4108,4.5827,4.4854,4.5176,4.6739,4.6599,4.6957,4.7717,4.7717,4.7717,4.7717,4.7717,4.7717,4.7717,4.7717,4.7717,4.7717,0.0,0.0,0.0,4.7717,4.7717,0.0,4.7717,0.0,0.0,4.7717,4.7717,4.7717,4.7717,4.7717,0.0,0.0,0.0,0.0,4.7717,4.8315,4.913,4.9908,5.0728,5.1547,5.2422,5.259,5.2698,5.2955,5.2999,5.3042,5.3185,5.3185,0.0,0.0,0.0,0.0,0.0,0.0,0.0,0.0,0.0,0.0,0.0,5.3185,5.3185,5.3185,5.3889,5.4626,5.5364,5.539,5.5403,5.5403,5.5403,5.5403,5.5403,5.5403,5.5403,5.5403,5.5403,5.539,5.5408,5.5408,5.5444,5.5562,5.6436,5.739,5.8365,5.9184,6.0031,6.08,6.08,6.08,6.08,0.0,4.1456,4.1341,4.1311,4.1162,4.102,4.102,4.1451,4.1767,0.0,0.0,0.0,0.0,0.0,4.2631,4.3447,4.3719,4.41,4.4681,4.4813,4.4888,4.4926,4.4927,4.5055,4.5274,4.5055,4.5437,4.6436,4.6159,4.6557,0.0,0.0,4.75,4.7717,4.7717,4.7717,4.7717,4.7717,4.7717,4.7717,4.7717,4.7717,4.7717,0.0,0.0,0.0,0.0,4.7717,4.7717,0.0,4.7717,4.7717,0.0,0.0,4.7717,4.7717,4.7717,0.0,4.7717,0.0,0.0,0.0,0.0,0.0,4.9952,5.0754,5.1597,5.2368,5.2627,5.2761,5.2828,5.2999,5.3164,5.3185,0.0,0.0,0.0,0.0,0.0,0.0,0.0,0.0,0.0,0.0,0.0,0.0,5.3185,5.3185,5.3185,5.3889,5.4495,5.4947,5.526,5.5403,5.5403,5.5403,5.5403,5.5403,5.5403,5.5403,5.5403,5.5403,5.539,5.5408,5.5408,5.5468,5.565,5.6514,5.742,5.8308,5.9162,6.0031,6.08,6.08,6.08,6.08,4.1283,4.1098,4.1081,4.1361,4.1282,4.1287,4.1614,4.2068,4.2505,0.0,0.0,0.0,0.0,0.0,0.0,4.4548,4.4603,4.4802,4.5273,4.5368,4.5446,4.5485,4.5467,4.565,4.6016,4.5668,4.603,0.0,0.0,0.0,0.0,0.0,0.0,4.7717,4.7717,4.7717,4.7717,4.7717,4.7717,4.7717,4.7717,4.7717,4.7717,4.7717,4.7717,0.0,0.0,0.0,4.8185,4.8185,4.7968,0.0,0.0,0.0,0.0,0.0,0.0,0.0,0.0,0.0,0.0,0.0,0.0,0.0,4.988,5.0504,5.1201,0.0,5.2595,5.269,5.2783,5.2934,5.306,5.3185,0.0,0.0,0.0,0.0,0.0,0.0,0.0,0.0,0.0,5.3185,5.3185,5.3185,5.3185,5.3251,5.34,5.3814,5.4277,5.4776,5.5038,5.5214,5.539,5.5403,5.5403,5.5403,5.5403,5.5403,5.5403,5.5403,5.5415,5.5444,5.5444,5.5516,5.5668,5.6198,5.6909,5.7793,5.8654,5.9511,6.03,6.0666,6.08,6.08,0.0,4.1033,4.127,4.1868,4.2031,4.2338,4.3064,4.3173,4.3407,0.0,4.4222,0.0,0.0,0.0,0.0,0.0,4.5436,4.5472,4.5562,4.5562,4.562,4.5738,4.564,4.5987,4.6875,4.6025,0.0,0.0,0.0,0.0,0.0,0.0,0.0,0.0,4.7717,4.7717,4.7717,4.7717,4.7753,4.7844,4.7753,4.7753,4.7823,0.0,4.7898,4.8061,4.8764,4.9039,4.9039,4.9039,4.8568,0.0,0.0,0.0,0.0,0.0,4.7823,0.0,0.0,0.0,0.0,0.0,4.7819,0.0,4.9684,5.013,5.0646,5.2096,5.2472,5.2618,5.2802,5.2828,5.2912,5.3164,0.0,0.0,0.0,0.0,0.0,0.0,0.0,0.0,5.3185,5.3185,5.3185,5.3185,5.3185,5.3336,5.3642,5.372,5.4069,5.4731,5.4806,5.5038,5.539,5.5403,5.5403,5.5403,5.5403,5.5403,5.5403,5.5403,5.544,5.5504,5.5504,5.5573,5.5703,5.5703,5.6214,5.7099,5.7953,5.88,5.9608,6.0473,6.08,6.08,4.2541,4.2992,4.3481,4.3607,4.4168,4.4657,4.4802,4.482,4.4892,4.5037,4.5073,0.0,0.0,0.0,0.0,0.0,4.6269,4.654,4.7192,4.7228,4.7246,4.7267,4.7246,4.7319,4.7505,4.734,4.7391,0.0,0.0,0.0,0.0,0.0,0.0,0.0,4.7717,4.7717,4.7717,4.7717,4.8058,4.8601,4.795,4.8098,4.8656,4.8656,4.9075,4.9637,4.98,4.9854,4.9854,4.9854,4.9745,4.9641,0.0,0.0,0.0,4.8876,0.0,0.0,0.0,0.0,0.0,0.0,0.0,0.0,4.9151,4.9964,5.0754,0.0,5.239,5.2912,5.2955,5.306,5.3143,5.3185,0.0,0.0,0.0,0.0,0.0,0.0,0.0,0.0,5.3185,5.3185,5.3185,5.3185,5.3185,5.3227,5.3274,5.3851,5.4245,5.4397,5.4966,5.5319,5.5403,5.5403,5.5403,5.5403,5.5403,5.5403,5.5403,5.5403,5.544,5.5504,5.5504,5.5573,5.5703,5.5703,5.6214,5.7099,5.7953,5.88,5.9608,6.0473,6.08,6.08,4.292,4.3208,4.3625,4.4023,4.4421,4.4838,4.5236,4.5291,4.5436,4.5852,4.625,0.0,0.0,0.0,0.0,0.0,0.0,0.0,0.0,0.0,4.7717,4.7717,4.7717,4.7717,4.7717,4.7717,4.7717,0.0,0.0,0.0,0.0,0.0,0.0,0.0,4.7717,4.7717,4.7735,4.8113,4.8529,4.8855,4.8456,4.8786,4.9492,4.9492,4.9745,5.0166,5.0565,5.0709,5.0709,5.0709,5.0438,0.0,5.0112,5.0112,5.0021,0.0,4.9492,4.9401,0.0,0.0,0.0,4.908,0.0,0.0,0.0,5.0811,5.1383,5.2061,5.2576,5.2934,5.2999,0.0,5.3124,5.3185,5.3185,0.0,0.0,0.0,0.0,0.0,0.0,0.0,5.3185,5.3185,5.3185,5.3185,5.3185,5.3185,5.3185,5.3719,5.4088,5.4279,5.4829,5.52,5.539,5.5403,5.5403,5.5403,5.5403,5.5403,5.5403,5.5403,5.5415,5.5456,5.5492,5.5562,5.564,5.5692,5.6214,5.7099,5.7953,5.855,5.9069,6.0319,6.08,6.08,4.3407,4.3499,4.3788,4.444,4.4693,4.5001,4.5653,4.5761,4.5997,4.6649,4.7301,4.7717,4.7717,4.7717,4.7717,0.0,0.0,0.0,0.0,0.0,4.7717,4.7717,4.7717,4.7717,4.7717,4.7717,4.7717,4.7717,0.0,0.0,0.0,0.0,0.0,0.0,0.0,4.7787,4.7989,4.8619,4.9072,4.9365,4.9365,4.9745,5.0347,5.0347,5.0438,5.0655,5.1285,5.152,5.152,5.152,5.1086,5.0565,5.0565,5.0565,0.0,0.0,0.0,0.0,0.0,0.0,0.0,0.0,0.0,5.0746,0.0,0.0,0.0,0.0,0.0,0.0,0.0,0.0,0.0,0.0,0.0,0.0,0.0,0.0,0.0,0.0,0.0,0.0,5.3185,5.3185,5.3185,5.3185,5.3185,5.3185,5.3185,5.3602,5.3943,5.4298,5.4704,5.5066,5.539,5.5403,5.5403,5.5403,5.5403,5.5403,5.5403,5.5403,5.539,5.5408,5.5468,5.5539,5.5615,5.5855,5.6368,5.7099,5.7953,5.8396,5.8723,6.0242,6.08,6.08,4.5309,4.5599,4.6124,4.6214,4.683,4.7319,4.7428,4.7446,4.7464,4.7554,4.7624,4.7717,4.7717,4.7717,4.7717,4.7717,0.0,0.0,4.7717,0.0,0.0,4.7717,4.7717,4.7717,4.7717,4.7717,4.7717,4.7717,0.0,0.0,0.0,0.0,0.0,0.0,4.7717,4.8094,4.8764,4.8855,4.9727,5.1031,5.1031,5.1067,0.0,5.1158,5.1611,5.2226,5.2317,5.2353,5.2353,0.0,5.2299,5.2226,0.0,5.2226,5.2082,5.1357,0.0,0.0,0.0,0.0,0.0,0.0,5.0498,0.0,0.0,0.0,5.1993,5.2084,0.0,0.0,0.0,0.0,0.0,0.0,0.0,0.0,5.2234,0.0,0.0,0.0,0.0,0.0,0.0,5.3185,5.3185,5.3185,5.3185,5.3185,5.3185,5.387,5.4245,5.4315,5.4966,5.5345,5.5403,5.5403,5.5403,5.5403,5.5403,5.5403,5.5403,5.5403,5.539,5.5408,5.5468,5.5539,5.5665,5.6508,5.6907,5.7099,5.7953,5.8742,5.9473,6.0435,6.08,6.08,4.683,4.6975,4.721,4.721,4.7482,4.7717,4.7717,4.7717,4.7717,4.7717,4.7717,4.7717,4.7717,4.7717,4.7717,4.7717,4.7717,4.7717,4.7717,0.0,0.0,4.7717,4.7717,4.7717,4.7717,4.7717,4.7717,4.7717,4.7717,0.0,0.0,0.0,0.0,0.0,4.8384,4.884,4.9619,5.009,5.0669,5.1339,5.181,5.1991,0.0,5.1991,5.2208,5.2498,5.2498,5.2498,5.2498,0.0,5.2498,0.0,0.0,0.0,0.0,0.0,0.0,0.0,0.0,0.0,0.0,0.0,0.0,0.0,5.2176,0.0,5.2711,0.0,0.0,0.0,0.0,0.0,0.0,0.0,5.2986,0.0,0.0,0.0,0.0,0.0,0.0,0.0,0.0,0.0,0.0,0.0,5.3185,5.3185,5.3185,5.3889,5.4315,5.4315,5.5014,5.5403,5.5403,5.5403,5.5403,5.5403,5.5403,5.5403,5.5403,5.5403,5.5396,5.5403,5.5476,5.5803,5.6318,5.6805,5.758,5.8492,5.8858,5.9204,5.9608,6.0473,6.08,6.08,4.7717,4.7717,4.7717,4.7717,4.7717,4.7717,4.7717,4.7717,4.7717,4.7717,4.7877,4.8022,4.8022,4.8242,4.8369,4.8369,4.8369,4.8369,4.8369,4.8369,4.8369,4.8369,4.8152,4.8022,4.8022,4.7805,4.7717,4.7717,4.7717,0.0,0.0,0.0,0.0,0.0,0.0,4.9673,5.0474,5.1049,5.1411,5.1665,5.2263,5.2625,5.2824,5.2824,5.2969,5.315,5.315,5.315,5.315,5.315,5.3005,0.0,5.2824,0.0,0.0,0.0,0.0,0.0,5.2526,0.0,0.0,0.0,0.0,0.0,0.0,0.0,0.0,0.0,0.0,0.0,0.0,0.0,0.0,0.0,0.0,5.3112,0.0,0.0,0.0,0.0,0.0,0.0,0.0,0.0,0.0,5.3185,5.3185,5.3185,5.3185,5.3889,5.4315,5.4315,5.5014,5.5403,5.5403,5.5403,5.5403,5.5403,5.5403,5.5403,5.5403,5.5403,5.5517,5.5728,5.5796,5.6336,5.7184,5.752,5.8385,5.9511,5.9762,5.9858,5.9935,6.0569,6.08,6.08,4.7717,4.7717,4.7717,4.7717,4.7717,4.7717,4.7717,4.7717,4.7717,4.7717,4.8366,4.8855,4.8855,4.9564,5.0021,5.0021,5.0021,5.0021,5.0021,5.0021,5.0021,0.0,0.0,4.8855,4.8855,4.8094,4.7717,4.7717,4.7717,0.0,0.0,0.0,0.0,0.0,5.0075,5.051,5.1249,5.1285,5.1737,5.2462,5.248,5.2969,5.3657,0.0,5.4146,5.4834,5.4834,0.0,0.0,5.4834,5.4309,0.0,0.0,0.0,0.0,0.0,0.0,0.0,0.0,0.0,0.0,5.2915,0.0,0.0,0.0,0.0,5.3185,0.0,0.0,0.0,0.0,0.0,0.0,0.0,0.0,0.0,0.0,0.0,0.0,0.0,0.0,0.0,0.0,0.0,5.3185,5.3185,5.3185,5.3185,5.3185,5.3889,5.4315,5.4315,5.5014,5.5403,5.5403,5.5403,5.5403,5.5403,5.5403,5.5403,5.5403,5.5403,5.5823,5.6581,5.6626,5.7187,5.8111,5.8971,5.9377,5.9588,6.0435,6.0762,6.0762,6.0781,6.08,6.08,4.7717,4.7717,4.7717,4.7717,4.7717,4.7717,4.7717,4.8149,4.8475,4.8475,4.9184,4.9691,4.9691,4.9927,5.0112,5.0112,5.0112,5.0112,5.0112,5.0112,4.992,4.9523,4.9622,4.95,0.0,0.0,4.9293,0.0,0.0,0.0,0.0,0.0,0.0,0.0,0.0,5.1339,5.2082,5.2082,5.2552,0.0,0.0,5.4544,5.516,0.0,5.4671,5.4907,5.4907,5.4907,0.0,5.4907,5.4725,5.449,5.449,5.4309,5.3983,5.3458,5.3295,0.0,0.0,0.0,5.2577,5.2806,0.0,0.0,0.0,0.0,0.0,0.0,0.0,0.0,0.0,0.0,0.0,0.0,0.0,0.0,0.0,0.0,0.0,0.0,0.0,0.0,0.0,0.0,0.0,5.3185,5.3185,5.3185,5.3185,5.3661,5.4034,5.4298,5.475,5.5127,5.539,5.5403,5.5403,5.5403,5.5403,5.5689,5.6186,5.6186,5.6664,5.746,5.7526,5.8068,5.8929,5.9259,5.978,6.0396,6.0685,6.08,6.08,6.08,6.08,6.08,4.7717,4.7717,4.7717,4.7717,4.7932,4.8113,4.8113,4.8822,4.9329,4.9329,4.9843,5.029,5.0506,5.0583,5.0723,5.0941,5.0941,5.1067,5.1357,5.1104,5.0913,5.0803,5.062,5.0353,0.0,0.0,0.0,0.0,0.0,5.0257,0.0,0.0,0.0,0.0,0.0,5.2009,5.2516,5.2806,5.3222,0.0,0.0,5.5577,0.0,0.0,5.5721,5.5721,0.0,5.5721,5.5721,5.5721,5.554,5.5287,5.5287,5.5106,5.4798,5.4291,5.4128,5.3947,5.316,5.2938,0.0,5.283,5.2806,0.0,5.3082,0.0,0.0,0.0,0.0,0.0,0.0,0.0,0.0,0.0,0.0,0.0,0.0,5.3185,0.0,0.0,0.0,0.0,0.0,0.0,5.3185,5.3185,5.3185,5.3185,0.0,0.0,5.3833,5.4088,5.4541,5.4914,5.5187,5.5332,5.5403,5.5403,5.5689,5.6091,5.6619,5.6912,5.7523,5.8326,5.8366,5.8891,5.9735,5.9798,6.0198,6.0777,6.08,6.08,6.08,6.08,6.08,6.08,4.7826,4.7826,4.7826,4.7826,4.8438,4.8945,4.8945,4.9637,5.0184,5.022,5.0419,5.0761,5.1379,5.161,5.1918,5.2472,5.2519,5.2862,5.3622,5.2953,0.0,0.0,5.217,5.1338,5.1279,0.0,0.0,0.0,0.0,0.0,0.0,0.0,0.0,0.0,5.2534,0.0,5.2607,5.3422,5.3784,5.3947,5.545,5.6047,5.6138,5.6899,5.7188,5.7188,5.7188,5.7188,5.7188,5.7188,5.6681,5.6047,5.6047,5.5577,5.5015,5.4979,5.4961,5.4786,5.4052,5.3806,5.3595,5.299,5.2838,0.0,0.0,0.0,5.3164,0.0,0.0,0.0,0.0,0.0,0.0,0.0,0.0,0.0,0.0,0.0,0.0,0.0,0.0,0.0,0.0,5.3185,5.3185,5.3185,5.3185,5.3185,0.0,0.0,5.3682,5.3701,5.4392,5.4776,5.4791,5.52,5.5422,5.5479,5.6224,5.6625,5.674,5.7581,5.8402,5.9153,5.9153,5.9666,6.0512,6.0578,6.0642,6.0717,6.0757,6.08,6.08,6.08,6.08,6.08,4.9474,4.9474,4.9474,4.9474,4.9637,4.9782,4.9782,5.047,5.1194,5.181,5.2436,5.293,5.3197,5.3276,5.3175,5.2882,5.2855,5.2971,5.3183,0.0,0.0,5.2525,5.2549,5.2101,5.1081,5.1702,5.1757,5.1208,0.0,0.0,5.219,0.0,0.0,0.0,0.0,5.3385,5.344,5.4255,5.4907,5.5486,5.6482,5.688,5.6899,0.0,5.7188,5.7188,5.7188,5.7188,5.7188,5.7188,5.7062,5.688,5.688,5.6754,5.6482,5.5884,5.5721,5.5558,5.4828,5.4623,5.4405,5.3717,5.3609,5.3576,0.0,0.0,0.0,0.0,0.0,0.0,0.0,0.0,0.0,0.0,0.0,0.0,0.0,0.0,0.0,5.3185,0.0,0.0,5.3185,5.3185,5.3185,5.3185,5.3185,0.0,0.0,0.0,0.0,5.3701,5.4157,5.4544,5.4791,5.52,5.5708,5.6282,5.6492,5.7256,5.8479,5.8689,5.9262,6.0064,6.0064,6.022,6.0512,6.0578,6.0642,6.0717,6.0757,6.08,6.08,6.08,6.08,6.08,4.9766,5.0279,5.0764,5.0764,5.1299,5.1514,5.0813,5.1407,5.224,5.3007,5.3275,5.3508,5.3859,5.3439,5.306,5.3011,5.3011,0.0,5.3484,0.0,0.0,5.3398,5.3158,5.2772,5.2278,5.2892,0.0,5.261,0.0,0.0,5.3023,0.0,0.0,0.0,0.0,5.4218,5.4291,5.5051,5.5812,5.6554,5.7007,5.7188,0.0,5.7188,5.7188,5.7188,5.7188,5.7188,5.7188,5.7188,5.7188,5.7188,5.7188,5.7188,5.7098,5.6645,5.6518,5.6355,5.5595,5.5426,5.5293,5.4477,5.44,5.4337,5.3539,5.3507,5.3521,0.0,5.3121,5.3185,0.0,0.0,0.0,0.0,0.0,0.0,0.0,0.0,0.0,0.0,5.3185,0.0,5.3185,5.3185,5.3185,5.3185,5.3185,0.0,0.0,0.0,0.0,5.3482,5.3833,5.4122,5.4309,5.4855,5.5559,5.6392,5.6916,5.7848,5.9095,5.9491,5.9931,6.0403,6.0403,6.0417,6.0458,6.0565,6.0629,6.068,6.0765,6.08,6.08,6.08,6.08,6.08,4.9834,5.0902,5.1846,5.1777,5.282,5.3229,5.1925,5.2366,5.3077,5.3833,5.347,5.3366,5.3903,5.3032,5.2611,5.316,5.3102,5.341,5.4208,5.3515,5.3607,5.4859,5.3717,5.3256,5.3689,5.377,5.3789,0.0,0.0,0.0,0.0,0.0,0.0,0.0,0.0,0.0,0.0,5.5884,5.6554,5.7188,5.7188,5.7188,5.7188,5.7188,5.7188,5.7188,5.7188,5.7188,5.7188,5.7188,5.7188,5.7188,5.7188,5.7188,5.7188,5.7188,5.7188,5.7043,5.6337,5.6236,5.6122,5.5281,5.5207,5.5135,5.4181,5.4196,5.4089,5.3178,5.3163,5.3253,0.0,0.0,0.0,0.0,0.0,0.0,0.0,0.0,0.0,0.0,0.0,0.0,5.3185,5.3185,5.3185,5.3185,0.0,0.0,0.0,0.0,0.0,5.3185,5.3524,5.3701,5.3701,0.0,5.5348,5.6277,5.742,5.8418,5.93,6.0045,6.0403,6.0403,6.0403,6.0403,6.0403,6.0539,6.0604,6.0629,6.0753,6.08,6.08,6.08,6.08,6.08,5.2688,5.2971,5.3085,5.2803,5.2561,5.2535,5.2852,5.2927,5.325,5.4024,5.4044,5.4069,5.4279,5.4102,5.408,5.4309,5.3749,0.0,0.0,0.0,0.0,5.3775,5.3525,5.3151,5.258,5.3076,5.3258,0.0,0.0,0.0,0.0,0.0,0.0,0.0,0.0,0.0,5.6808,5.6935,0.0,5.7188,5.7188,5.7188,5.7188,5.7188,5.7188,5.7188,5.7188,5.7188,5.7188,5.7188,5.7188,5.7188,5.7188,5.7188,5.7188,5.7188,5.7188,5.717,5.7025,5.7014,5.6865,5.614,5.6079,5.5973,5.5153,5.5085,5.4956,5.4125,5.3983,5.3847,5.3274,0.0,0.0,0.0,0.0,0.0,0.0,0.0,0.0,0.0,0.0,5.3185,0.0,5.3185,0.0,0.0,0.0,0.0,0.0,0.0,0.0,0.0,5.3524,0.0,0.0,0.0,5.5942,5.7096,5.7977,5.9018,6.0179,6.0332,6.0403,6.0403,6.0403,6.0403,6.0403,6.0485,6.0572,6.0685,6.0777,6.08,6.08,6.08,6.08,6.08,5.2427,5.2886,5.3194,5.3016,5.3151,5.3532,5.429,5.4086,5.4077,5.4795,5.4878,5.5033,5.5477,5.5239,5.5111,5.5176,5.4854,5.4803,5.5158,5.4854,5.4788,5.5108,5.4449,5.4042,5.3963,5.3857,5.3957,5.4244,0.0,0.0,0.0,0.0,0.0,5.5504,0.0,5.6554,0.0,0.0,0.0,5.7188,5.7188,5.7188,5.7188,5.7188,5.7188,5.7188,5.7188,5.7188,5.7188,5.7188,5.7188,5.7188,5.7188,5.7188,5.7188,5.7188,5.7188,5.7188,5.7188,5.7239,5.7223,5.6915,5.6922,5.6817,5.5996,5.5925,5.5798,5.4993,5.4543,5.4096,5.3332,5.3185,0.0,0.0,0.0,0.0,0.0,0.0,0.0,0.0,0.0,0.0,0.0,0.0,0.0,0.0,0.0,0.0,0.0,0.0,0.0,0.0,0.0,0.0,0.0,0.0,0.0,5.7356,5.8131,5.9055,6.0099,6.0299,6.0403,6.0403,6.0403,6.0403,6.0403,6.0512,6.0617,6.0717,6.0757,6.08,6.08,6.08,6.08,6.08,5.2018,5.2658,5.3232,5.3323,5.395,5.4684,5.5424,5.5128,5.5009,5.5478,5.5544,5.575,5.6351,5.5979,5.5784,5.5936,5.5801,5.5749,5.5936,5.5801,5.5909,5.6386,5.54,5.5077,5.5544,5.4821,5.4776,0.0,0.0,0.0,0.0,0.0,0.0,0.0,0.0,0.0,0.0,0.0,5.6848,5.746,5.746,5.755,5.7713,5.7713,5.7713,5.7713,5.7713,5.7713,5.7713,5.7713,5.7478,5.7188,5.7188,5.7188,5.7188,5.7188,5.7188,5.7188,5.7188,5.7282,5.7363,5.7388,5.7504,5.7419,5.6781,5.6747,5.6639,5.5816,5.5119,5.4418,5.361,5.3463,0.0,0.0,0.0,0.0,0.0,0.0,0.0,0.0,0.0,0.0,5.3185,0.0,0.0,0.0,0.0,0.0,5.3185,0.0,0.0,0.0,0.0,5.3592,5.4399,0.0,5.583,5.7399,5.8252,5.9046,5.9807,6.0222,6.0403,6.0403,6.0403,6.0403,6.0403,6.0525,6.0629,6.0692,6.0746,6.0788,6.08,6.08,6.08,6.08,5.3686,5.3842,5.4017,5.4381,5.4517,5.4822,5.5584,5.5633,5.5615,5.5668,5.5668,5.5702,5.577,5.5735,5.5987,5.6647,5.6105,5.5987,5.6664,5.6089,5.5716,5.577,5.5667,5.5598,5.5668,5.4957,5.4871,0.0,0.0,5.5755,0.0,0.0,0.0,0.0,0.0,0.0,0.0,5.7138,5.7572,5.8293,5.8293,5.8728,5.9379,5.9379,5.9379,5.9379,5.9379,5.9379,5.9379,5.9379,5.8402,5.7188,5.7188,5.7188,5.7188,5.7188,5.7188,5.7188,5.7188,5.7206,5.7257,5.7381,5.7504,5.7583,5.7492,5.7587,5.7463,5.6658,5.5943,5.5225,5.4436,5.4289,5.4051,0.0,0.0,0.0,0.0,0.0,5.3185,5.3185,0.0,0.0,0.0,5.3185,0.0,0.0,5.3185,0.0,0.0,0.0,0.0,5.3185,0.0,5.3592,5.4399,5.514,5.615,5.7418,5.8578,5.9375,5.9807,6.0222,6.0403,6.0403,6.0403,6.0403,6.0403,6.0485,6.0552,6.0617,6.0673,6.0753,6.08,6.08,6.08,6.08,5.453,5.4752,5.4871,5.5036,5.519,0.0,0.0,5.6376,5.6528,5.6968,5.6647,5.6528,5.6968,5.7019,5.7137,5.7425,5.7188,5.7154,5.7442,5.7171,5.7019,5.7019,5.6613,5.6376,5.6376,5.5649,5.557,0.0,0.0,0.0,0.0,0.0,0.0,0.0,0.0,5.7703,5.8052,5.808,5.8511,5.9126,5.9126,5.9307,5.9615,5.9615,5.9615,5.9615,5.9615,5.9615,5.9615,5.9615,5.918,5.8565,5.8076,5.7913,5.7822,5.7333,5.7188,5.7188,5.7188,5.7264,5.7338,5.7504,5.7577,5.7649,5.7792,5.7815,5.7724,5.7482,5.6832,5.6069,5.5262,5.473,5.4289,5.3977,0.0,0.0,0.0,0.0,0.0,0.0,0.0,5.3185,0.0,0.0,0.0,0.0,0.0,0.0,0.0,0.0,0.0,5.3185,0.0,5.4308,5.5097,5.5923,5.6801,5.7774,5.85,5.9046,5.945,5.9858,6.0159,6.0403,6.0444,6.0458,6.0472,6.0578,6.0642,6.068,6.0722,6.0777,6.08,6.08,6.08,6.08,5.5175,0.0,5.5574,0.0,5.5915,5.6275,5.7002,5.712,5.7306,5.7814,5.7442,5.7306,5.7831,5.7881,5.7881,5.7881,5.7881,5.7881,5.7881,5.7881,5.7881,5.7881,5.7391,0.0,5.712,5.641,5.6232,5.6678,5.6638,0.0,0.0,0.0,0.0,0.0,5.7653,5.7928,5.8313,5.8563,5.8933,5.939,5.9781,5.9979,6.0025,6.0223,6.0321,6.0321,6.0321,6.0321,6.0321,6.0321,6.0321,6.0122,5.909,5.8746,5.8601,5.7786,5.755,5.7496,5.7261,5.7282,5.7363,5.7504,5.7577,5.7649,5.7839,5.7862,5.7904,5.7973,5.7556,5.6914,5.6106,5.5482,5.5023,5.4785,0.0,0.0,0.0,0.0,0.0,0.0,5.3185,5.3185,5.3185,5.3185,0.0,0.0,0.0,0.0,0.0,0.0,0.0,0.0,0.0,0.0,5.5941,5.6528,5.7207,5.7997,5.8521,5.8852,5.9027,5.9554,6.0019,6.0403,6.0472,6.0499,6.0512,6.061,6.0673,6.0697,6.0746,6.0788,6.08,6.08,6.08,6.08,5.5681,5.5681,5.5953,5.6664,5.6799,5.7036,5.7763,5.7881,5.7881,5.7881,5.7881,5.7881,5.7881,5.7881,5.7881,5.7881,5.7881,5.7881,5.7881,5.7881,5.7881,0.0,0.0,5.7881,5.7881,5.7154,5.6782,5.6782,0.0,0.0,5.66,0.0,5.7592,5.7592,5.7592,5.7623,5.7653,5.8313,5.8668,5.8936,6.0244,6.0852,6.1057,6.173,6.196,6.196,6.196,6.196,6.196,6.196,6.196,6.167,6.0104,5.9597,5.9434,5.8619,5.8383,5.8202,5.7424,5.7188,5.7239,5.7381,5.7486,5.7601,5.7601,5.7792,5.7997,5.7997,5.7997,5.774,5.6932,5.6785,5.651,5.5702,0.0,0.0,0.0,0.0,0.0,5.3185,5.3185,5.3185,5.3185,5.3185,0.0,0.0,0.0,0.0,0.0,0.0,0.0,5.4363,5.4399,0.0,5.6785,5.6804,5.7207,5.802,5.8811,5.8988,5.8628,5.945,6.0019,6.0403,6.0472,6.0499,6.0512,6.0578,6.0642,6.0697,6.0697,6.0734,6.08,6.08,6.08,6.08,5.7103,5.7205,5.7273,5.7509,5.7543,5.7628,5.7848,5.7881,5.7881,5.7881,5.7881,5.7881,5.7881,5.7881,5.7881,0.0,5.7881,5.7881,0.0,5.7881,5.7881,5.7881,5.7881,5.7881,5.7881,5.7662,5.7543,5.7543,0.0,0.0,0.0,5.7192,5.7312,5.7826,5.8286,5.8486,5.8534,5.926,5.9575,5.9647,6.0083,6.0286,6.0393,6.1063,6.1315,6.1372,6.1822,6.1996,6.1996,6.1996,6.1996,6.1906,6.1381,6.0864,6.0267,5.9452,5.8836,5.8347,5.8094,5.7681,5.7381,5.7486,5.7577,5.7649,5.7815,5.795,5.7997,5.7997,5.7997,5.7923,5.7666,5.7171,5.673,5.6455,5.5739,0.0,0.0,0.0,0.0,0.0,5.3537,5.3185,5.3185,5.3185,0.0,0.0,0.0,0.0,0.0,0.0,0.0,0.0,5.5757,0.0,5.6804,5.7336,5.7884,5.8394,5.8669,5.9008,5.945,5.9972,6.0285,6.0403,6.0472,6.0525,6.0578,6.0642,6.0717,6.0777,6.0777,6.0788,6.08,6.08,6.08,6.08,5.7797,5.7881,5.7881,5.7881,5.7881,5.7881,5.7881,5.7881,5.7881,5.7881,5.7881,5.7881,5.7881,5.7881,0.0,5.7881,5.7881,5.7881,5.7881,5.7881,5.7881,5.7881,5.7881,5.7881,5.7881,5.7881,0.0,5.7881,5.7881,5.7881,5.7881,5.7425,5.7459,5.7918,5.8334,5.8511,5.8581,5.9263,5.9447,5.9265,5.9791,5.9838,5.9659,6.0362,6.0777,6.1045,6.1458,6.1794,6.1996,6.1996,6.1996,6.1996,6.1996,6.1652,6.11,6.0303,5.9705,5.9253,5.8927,5.8308,5.781,5.7941,5.7796,5.7673,5.795,5.7973,5.795,5.7997,5.7997,5.7997,5.7997,5.7593,5.7262,5.7262,5.6583,5.6051,5.6051,0.0,0.0,0.0,0.0,0.0,0.0,5.4106,5.4106,0.0,0.0,0.0,0.0,0.0,0.0,5.6033,5.6547,5.695,5.7262,5.7758,5.8138,5.8391,5.8542,5.9103,6.0034,6.0129,6.027,6.0403,6.0472,6.0539,6.0604,6.066,6.0734,6.08,6.08,6.08,6.08,6.08,6.08,6.08,5.7881,5.7881,5.7881,0.0,5.7881,5.7881,5.7881,5.7881,5.7881,5.7881,5.7881,5.7881,5.7881,5.7881,5.7881,5.7881,0.0,0.0,5.7881,5.7881,5.7881,5.7881,5.7881,5.7881,5.7881,5.7881,5.7881,5.7881,5.7881,5.7881,5.7881,5.7881,5.7881,5.7881,5.7881,5.7881,5.7954,5.8581,5.8493,5.801,5.9331,5.9429,5.8926,5.9709,6.0393,6.0939,6.1045,6.1458,6.1996,6.1996,6.1996,6.1996,6.1996,6.1996,6.1833,6.1091,6.0819,6.0647,5.9905,5.9108,5.85,5.8573,5.8087,5.7673,5.7927,5.7904,5.7857,5.7973,5.7997,5.7997,5.7997,5.7997,5.7997,5.7997,5.7373,5.6895,5.6895,0.0,0.0,0.0,0.0,0.0,5.5614,5.5614,5.5614,0.0,0.0,0.0,0.0,0.0,5.6106,5.6877,5.6895,5.7244,5.7997,5.7997,5.8042,5.8092,5.85,5.9288,6.0389,6.0019,6.0034,6.0403,6.0472,6.0539,6.0604,6.068,6.0741,6.08,6.08,6.08,6.08,6.08,6.08,6.08,0.0,0.0,5.7881,5.7881,5.7881,5.7881,5.7881,5.7881,5.7881,5.7881,5.7881,5.7881,5.7881,5.7881,5.7881,5.7881,5.7881,5.7881,5.7881,5.7881,5.7881,5.7881,5.7881,5.7881,5.7881,5.7881,5.7881,5.7881,5.7881,5.7881,5.7881,5.7881,5.7881,5.7881,5.7881,5.7881,5.7918,5.8082,5.8046,5.7918,5.8244,5.828,5.8263,5.9513,6.0093,6.0393,6.1419,6.1868,6.1996,6.1996,6.1996,6.1996,6.1996,6.1996,6.1942,6.1761,6.1272,6.0774,6.0575,5.9941,5.9206,5.8718,5.816,5.7768,5.7815,5.7904,5.7973,5.7997,5.7997,5.7997,5.7997,5.7997,5.7997,5.7997,5.7831,5.7721,5.7721,5.7024,0.0,0.0,5.5959,5.5614,5.5614,5.5614,5.5614,0.0,0.0,0.0,5.6804,5.7207,5.7519,5.7703,5.7721,5.7813,5.7997,5.7997,5.8301,5.8929,5.9324,5.9842,6.0389,6.0299,6.0313,6.0403,6.0417,6.0485,6.0604,6.0617,6.0704,6.08,6.08,6.08,6.08,6.08,6.08,6.08,5.7881,5.7881,5.7881,5.7881,5.7881,5.7881,5.7881,5.7881,5.7881,5.7881,5.7881,5.7881,5.7881,5.7881,5.7881,5.7881,5.7881,5.7881,5.7881,5.7881,5.7881,5.7881,5.7881,5.7881,5.7881,5.7881,5.7881,5.7881,5.7881,5.7881,5.7881,5.7881,5.7881,5.7881,5.7881,5.7881,5.7881,5.7881,5.8082,5.8369,5.8369,5.8563,5.8926,5.9709,6.0188,6.0529,6.1268,6.172,6.1996,6.1996,6.1996,6.1996,6.1996,6.1996,6.1996,6.1996,6.167,6.1344,6.1344,6.0774,5.9985,5.9317,5.8651,5.8197,5.8335,5.8113,5.7927,5.7997,5.7997,5.7997,5.7997,5.7997,5.7997,5.7997,5.7997,5.7997,5.7997,5.7611,5.7354,5.7354,5.695,5.6693,5.6693,5.6693,5.6693,5.6693,5.7097,0.0,5.7354,5.7758,5.7997,5.7997,5.7997,5.7997,5.7997,5.7997,5.8323,5.893,5.9324,5.9741,6.0129,6.0313,6.0403,6.0403,6.0403,6.0458,6.0552,6.0591,6.0667,6.0765,6.0788,6.08,6.08,6.08,6.08,6.08,5.7881,5.7881,5.7881,5.7881,5.7881,5.7881,5.7881,5.7881,5.7881,5.7881,5.7881,5.7881,5.7881,5.7881,5.7881,5.7881,5.7881,5.7881,5.7881,5.7881,5.7881,5.7881,5.7881,5.7881,5.7881,5.7881,5.7881,5.7881,5.7881,5.7881,5.7881,5.7881,5.7881,5.7881,5.7881,5.7881,5.7881,5.7881,5.8244,5.8737,5.8737,5.9163,5.9838,5.9966,6.0424,6.0998,6.1104,6.1533,6.1996,6.1996,6.1996,6.1996,6.1996,6.1996,6.1996,6.1996,6.1996,6.1996,6.1996,6.1399,6.0674,6.009,5.9361,5.8801,5.8939,5.8463,5.7962,5.7992,5.7997,5.7997,5.7997,5.7997,5.7997,5.7997,5.7997,5.7997,5.7997,0.0,5.7997,5.7997,5.7997,5.7997,5.7997,5.7997,5.7997,5.7997,5.7997,5.7997,5.7997,5.7997,5.7997,5.7997,5.7997,5.7997,5.7997,5.7997,5.819,5.8607,5.8949,5.9342,5.9807,6.0144,6.0328,6.0403,6.0403,6.0431,6.0512,6.0578,6.0642,6.0717,6.0757,6.08,6.08,6.08,6.08,6.08,5.7881,5.7881,5.7881,5.7881,5.7881,5.7881,5.7881,5.7881,5.7881,5.7881,5.7881,5.7881,5.7881,5.7881,5.7881,5.7881,5.7881,5.7881,5.7881,5.7881,5.7881,5.7881,5.7881,5.7881,5.7881,5.7881,5.7881,5.7881,5.7881,5.7881,5.7881,5.7881,5.7881,5.7881,5.7881,5.7881,5.7881,5.7881,5.7954,5.8046,5.8046,5.8458,5.9129,5.9774,6.0424,6.1075,6.1636,6.1923,6.1996,6.1996,6.1996,6.1996,6.1996,6.1996,6.1996,6.1996,6.1996,6.1996,6.1996,6.1399,6.0792,6.0674,6.0119,5.9485,5.8944,5.8811,5.8657,5.812,5.7997,5.7997,5.7997,5.7997,5.7997,5.7997,5.7997,5.7997,5.7997,0.0,5.7997,5.7997,5.7997,5.7997,5.7997,5.7997,5.7997,5.7997,5.7997,5.7997,5.7997,5.7997,5.7997,5.7997,5.7997,5.7997,5.7997,5.7997,5.819,5.8607,5.8669,5.9084,5.9791,5.9874,6.0084,6.0403,6.0403,6.0431,6.0512,6.0578,6.0642,6.0717,6.0757,6.08,6.08,6.08,6.08,6.08,5.7881,5.7881,5.7881,5.7881,5.7881,5.7881,5.7881,5.7881,5.7881,5.7881,5.7881,5.7881,5.7881,5.7881,5.7881,5.7881,5.7881,5.7881,5.7881,5.7881,5.7881,5.7881,5.7881,5.7881,5.7881,5.7881,5.7881,5.7881,5.7881,5.7881,5.7881,5.7881,5.7881,5.7881,5.7881,5.7881,5.7881,5.7881,5.8118,5.8423,5.8423,5.9062,6.0076,6.0406,6.0956,6.159,6.1895,6.1996,6.1996,6.1996,6.1996,6.1996,6.1996,6.1996,6.1996,6.1996,6.1996,6.1996,6.1996,6.1725,6.1462,6.1525,6.0953,6.029,6.014,5.9821,5.9347,5.8681,5.8611,5.851,5.807,5.7997,5.7997,5.7997,5.7997,0.0,5.7997,5.7997,5.7997,5.7997,5.7997,5.7997,5.7997,5.7997,5.7997,5.7997,5.7997,5.7997,5.7997,5.7997,5.7997,5.7997,5.7997,5.7997,5.7997,5.7997,5.8092,5.8279,5.85,5.8911,5.9485,5.9708,6.0019,6.0403,6.0403,6.0417,6.0444,6.0512,6.0591,6.0655,6.071,6.0777,6.08,6.08,6.08,6.08,5.7881,5.7881,5.7881,5.7881,5.7881,5.7881,5.7881,5.7881,5.7881,5.7881,5.7881,5.7881,5.7881,5.7881,5.7881,5.7881,5.7881,5.7881,5.7881,5.7881,5.7881,5.7881,5.7881,5.7881,5.7881,5.7881,5.7881,5.7881,5.7881,5.7881,5.7881,5.7881,5.7881,5.7881,5.7881,5.7881,5.7881,5.7881,5.8209,5.8685,5.8685,5.9511,6.0759,6.0759,6.1268,6.1996,6.1996,6.1996,6.1996,6.1996,6.1996,6.1996,6.1996,6.1996,6.1996,6.1996,6.1996,6.1996,6.1996,6.2005,6.206,6.2177,6.1696,6.1187,6.1196,6.0719,6.0095,5.9432,5.9218,5.8977,5.84,5.8125,5.7997,5.7997,0.0,5.7997,0.0,5.7997,5.7997,5.7997,5.7997,5.7997,5.7997,5.7997,5.7997,5.7997,5.7997,5.7997,5.7997,5.7997,5.7997,5.7997,5.7997,5.7997,5.7997,5.7997,5.7997,5.7997,5.8304,5.873,5.9196,5.952,5.9922,6.0403,6.0403,6.0403,6.0403,6.0472,6.0539,6.0604,6.066,6.0734,6.08,6.08,6.08,6.08,5.7881,5.7881,5.7881,5.7881,5.7881,5.7881,5.7881,5.7881,5.7881,5.7881,5.7881,5.7881,5.7881,5.7881,5.7881,5.7881,5.7881,5.7881,5.7881,5.7881,5.7881,5.7881,5.7881,5.7881,5.7881,5.7881,5.7881,5.7881,5.7881,5.7881,5.7881,5.7881,5.7881,5.7881,5.7881,5.7881,5.7881,5.7881,5.7918,5.7991,5.7991,5.8841,6.0062,6.0062,6.0867,6.1996,6.1996,6.1996,6.1996,6.1996,6.1996,6.1996,6.1996,6.1996,6.1996,6.1996,6.1996,6.1996,6.1996,6.2087,6.2177,6.2203,6.2229,6.2097,6.1375,6.1157,6.0934,6.0255,5.953,5.9047,5.9111,5.851,5.7997,5.7997,0.0,0.0,5.7997,5.7997,5.7997,5.7997,5.7997,5.7997,5.7997,5.7997,5.7997,5.7997,5.7997,5.7997,5.7997,5.7997,5.7997,5.7997,5.7997,5.7997,5.7997,5.7997,5.7997,5.7997,5.8042,5.8455,5.9215,5.9215,5.9675,6.0403,6.0403,6.0403,6.0403,6.0472,6.0539,6.0604,6.066,6.0734,6.08,6.08,6.08,6.08,5.7881,5.7881,5.7881,5.7881,5.7881,5.7881,5.7881,5.7881,5.7881,5.7881,5.7881,5.7881,5.7881,5.7881,5.7881,5.7881,5.7881,5.7881,5.7881,5.7881,5.7881,5.7881,5.7881,5.7881,5.7881,5.7881,5.7881,5.7881,5.7881,5.7881,5.7881,5.7881,5.7881,5.7881,5.7881,5.7881,5.7881,5.7881,5.7881,5.7881,5.7881,5.8475,5.9363,5.9838,6.0577,6.143,6.185,6.1996,6.1996,6.1996,6.1996,6.1996,6.1996,6.1996,6.1996,6.1996,6.1996,6.1996,6.1996,6.2114,6.223,6.231,6.2362,6.2324,6.2117,6.2069,6.1832,6.1096,6.0775,6.0475,6.0028,5.93,5.8749,5.8749,0.0,5.7997,5.7997,5.7997,5.7997,5.7997,5.7997,5.7997,5.7997,5.7997,5.7997,5.7997,5.7997,5.7997,5.7997,5.7997,5.7997,5.7997,5.7997,5.7997,5.7997,5.7997,5.7997,5.7997,5.7997,5.8537,5.9577,5.9852,6.0577,6.1597,6.1849,6.1956,6.1956,6.1984,6.2049,6.2157,6.2183,6.2241,6.2358,6.2358,6.2358,6.2358,5.7881,5.7881,5.7881,5.7881,5.7881,5.7881,5.7881,5.7881,5.7881,5.7881,5.7881,5.7881,5.7881,5.7881,5.7881,5.7881,5.7881,5.7881,5.7881,5.7881,5.7881,5.7881,5.7881,5.7881,5.7881,5.7881,5.7881,5.7881,5.7881,5.7881,5.7881,5.7881,5.7881,5.7881,5.7881,5.7881,5.7881,5.7881,5.7881,5.7881,5.7881,5.8298,5.8994,5.9709,6.0424,6.1104,6.1766,6.1996,6.1996,6.1996,6.1996,6.1996,6.1996,6.1996,6.1996,6.1996,6.1996,6.2023,6.206,6.215,6.2283,6.2389,6.2467,6.2545,6.2603,6.2603,6.2439,6.189,6.1654,6.138,6.0878,6.0126,5.957,5.957,5.9116,5.8749,5.8749,5.8547,5.8382,5.8382,5.8143,5.7997,5.7997,5.7997,5.7997,5.7997,5.7997,5.7997,5.7997,5.7997,5.8125,5.8364,5.8382,5.851,5.8749,5.851,5.851,5.8749,5.8749,5.9259,6.0202,6.0656,6.1392,6.2311,6.2723,6.2911,6.2911,6.2911,6.2978,6.3115,6.3115,6.3175,6.3288,6.3288,6.3288,6.3288,5.7881,5.7881,5.7881,5.7881,5.7881,5.7881,5.7881,5.7881,5.7881,5.7881,5.7881,5.7881,5.7881,5.7881,5.7881,5.7881,5.7881,5.7881,5.7881,5.7881,5.7881,5.7881,5.7881,5.7881,5.7881,5.7881,5.7881,5.7881,5.7881,5.7881,5.7881,5.7881,5.7881,5.7881,5.7881,5.7881,5.7881,5.7881,5.7881,5.7881,5.7881,5.8298,5.896,5.9709,6.0406,6.1075,6.1766,6.1996,6.1996,6.1996,6.1996,6.1996,6.1996,6.1996,6.1996,6.1996,6.1996,6.2033,6.215,6.231,6.2389,6.2389,6.2603,6.2773,6.2629,6.2603,6.2603,6.2603,6.1981,6.1439,6.1569,6.0951,6.0419,6.0419,6.0401,6.0401,6.0401,5.9698,5.9203,5.9203,5.851,5.7997,5.7997,5.7997,5.7997,5.7997,5.7997,5.7997,5.7997,5.7997,5.8382,5.9166,5.9203,5.9588,6.0401,5.9606,5.9606,6.0401,6.0401,6.0623,6.1017,6.1497,6.192,6.233,6.2742,6.2915,6.293,6.293,6.2997,6.3135,6.3135,6.3194,6.332,6.332,6.332,6.332,5.7881,5.7881,5.7881,5.7881,5.7881,5.7881,5.7881,5.7881,5.7881,5.7881,5.7881,5.7881,5.7881,5.7881,5.7881,5.7881,5.7881,5.7881,5.7881,5.7881,5.7881,5.7881,5.7881,5.7881,5.7881,5.7881,5.7881,5.7881,5.7881,5.7881,5.7881,5.7881,5.7881,5.7881,5.7881,5.7881,5.7881,5.7881,5.7881,5.7881,5.7881,5.801,5.8334,5.9546,6.0125,6.0454,6.1608,6.1996,6.1996,6.1996,6.1996,6.1996,6.1996,6.1996,6.1996,6.1996,6.1996,6.2033,6.215,6.231,6.2415,6.25,6.2654,6.2798,6.2755,6.273,6.273,6.273,6.2547,6.2407,6.2413,6.1777,6.1245,6.1245,6.0768,6.0401,6.0401,6.0199,6.0052,6.0052,5.9336,5.8859,5.8859,5.8327,5.7997,5.7997,5.7997,5.8253,5.8822,5.8859,5.9226,6.0034,6.0052,6.0438,6.1227,6.0438,6.0162,6.0401,6.0401,6.0748,6.1429,6.1911,6.2637,6.3596,6.4036,6.4394,6.4649,6.4649,6.4738,6.4846,6.4846,6.496,6.5128,6.5128,6.5128,6.5128,5.7881,5.7881,5.7881,5.7881,5.7881,5.7881,5.7881,5.7881,5.7881,5.7881,5.7881,5.7881,5.7881,5.7881,5.7881,5.7881,5.7881,5.7881,5.7881,5.7881,5.7881,5.7881,5.7881,5.7881,5.7881,5.7881,5.7881,5.7881,5.7881,5.7881,5.7881,5.7881,5.7881,5.7881,5.7881,5.7881,5.7881,5.7881,5.7881,5.7881,5.7881,5.7881,5.8046,5.9447,5.9998,6.0174,6.1505,6.1996,6.1996,6.1996,6.1996,6.1996,6.1996,6.1996,6.1996,6.1996,6.1996,6.2033,6.223,6.2336,6.2441,6.2629,6.273,6.278,6.278,6.278,6.278,6.278,6.278,6.278,6.278,6.2401,6.2071,6.2071,6.1667,6.1355,6.1355,6.108,6.0878,6.0878,6.0162,5.9661,5.9661,5.9226,5.8951,5.8951,5.8951,5.9171,5.9643,5.9661,6.0052,6.086,6.0878,6.1263,6.2071,6.1594,6.1355,6.1355,6.1355,6.1612,6.2096,6.2563,6.3162,6.389,6.4539,6.4932,6.5169,6.5329,6.5484,6.5594,6.5594,6.5709,6.5897,6.5897,6.5897,6.5897,5.7881,5.7881,5.7881,5.7881,5.7881,5.7881,5.7881,5.7881,5.7881,5.7881,5.7881,5.7881,5.7881,5.7881,5.7881,5.7881,5.7881,5.7881,5.7881,5.7881,5.7881,5.7881,5.7881,5.7881,5.7881,5.7881,5.7881,5.7881,5.7881,5.7881,5.7881,5.7881,5.7881,5.7881,5.7881,5.7881,5.7881,5.7881,5.7881,5.7881,5.7881,5.7881,5.8046,5.9447,5.9998,6.0174,6.1505,6.1996,6.1996,6.1996,6.1996,6.1996,6.1996,6.1996,6.1996,6.1996,6.1996,6.206,6.231,6.2389,6.2467,6.273,6.278,6.278,6.278,6.278,6.278,6.278,6.278,6.278,6.278,6.278,6.278,6.278,6.278,6.278,6.278,6.2181,6.1704,6.1704,6.1006,6.0511,6.0511,6.0438,6.0401,6.0401,6.0401,6.0438,6.0511,6.0511,6.0878,6.1686,6.1704,6.2053,6.278,6.278,6.278,6.278,6.278,6.278,6.2805,6.3233,6.3468,6.3557,6.435,6.4704,6.4794,6.5185,6.5435,6.558,6.5594,6.5742,6.5897,6.5897,6.5897,6.5897,5.7881,5.7881,5.7881,5.7881,5.7881,5.7881,5.7881,5.7881,5.7881,5.7881,5.7881,5.7881,5.7881,5.7881,5.7881,5.7881,5.7881,5.7881,5.7881,5.7881,5.7881,5.7881,5.7881,5.7881,5.7881,5.7881,5.7881,5.7881,5.7881,5.7881,5.7881,5.7881,5.7881,5.7881,5.7881,5.7881,5.7881,5.7881,5.7881,5.7881,5.7881,5.7881,5.8046,5.9447,5.9998,6.0174,6.1505,6.1996,6.1996,6.1996,6.1996,6.1996,6.1996,6.1996,6.1996,6.1996,6.1996,6.206,6.231,6.2389,6.2467,6.273,6.278,6.278,6.278,6.278,6.278,6.278,6.278,6.278,6.278,6.278,6.278,6.278,6.278,6.278,6.278,6.2658,6.2548,6.2548,6.1832,6.1337,6.1337,6.0768,6.0401,6.0401,6.0401,6.0676,6.13,6.1337,6.1704,6.2511,6.2548,6.264,6.278,6.278,6.278,6.278,6.278,6.278,6.2805,6.2904,6.3158,6.3513,6.3693,6.4012,6.4426,6.4826,6.5131,6.5322,6.5627,6.582,6.5897,6.5897,6.5897,6.5897,5.7881,5.7881,5.7881,5.7881,5.7881,5.7881,5.7881,5.7881,5.7881,5.7881,5.7881,5.7881,5.7881,5.7881,5.7881,5.7881,5.7881,5.7881,5.7881,5.7881,5.7881,5.7881,5.7881,5.7881,5.7881,5.7881,5.7881,5.7881,5.7881,5.7881,5.7881,5.7881,5.7881,5.7881,5.7881,5.7881,5.7881,5.7881,5.7881,5.7881,5.7881,5.7881,5.8027,5.9079,5.9691,6.0125,6.1151,6.172,6.1996,6.1996,6.1996,6.1996,6.1996,6.1996,6.1996,6.1996,6.2033,6.2141,6.2336,6.2441,6.2526,6.2748,6.278,6.278,6.278,6.278,6.278,6.278,6.278,6.278,6.278,6.278,6.278,6.278,6.278,6.278,6.278,6.278,6.278,6.278,6.2438,6.2181,6.2181,6.1796,6.1557,6.1557,6.1557,6.1741,6.2144,6.2181,6.2383,6.2805,6.278,6.278,6.278,6.278,6.278,6.278,6.278,6.278,6.278,6.278,6.2935,6.3181,6.34,6.3649,6.395,6.4426,6.4807,6.5124,6.5416,6.5668,6.5897,6.5897,6.5897,6.5897,5.7881,5.7881,5.7881,5.7881,5.7881,5.7881,5.7881,5.7881,5.7881,5.7881,5.7881,5.7881,5.7881,5.7881,5.7881,5.7881,5.7881,5.7881,5.7881,5.7881,5.7881,5.7881,5.7881,5.7881,5.7881,5.7881,5.7881,5.7881,5.7881,5.7881,5.7881,5.7881,5.7881,5.7881,5.7881,5.7881,5.7881,5.7881,5.7881,5.7881,5.7881,5.7881,5.7991,5.8633,5.9263,5.9934,6.0711,6.143,6.1996,6.1996,6.1996,6.1996,6.1996,6.1996,6.1996,6.1996,6.2087,6.223,6.2362,6.2519,6.2629,6.2755,6.278,6.278,6.278,6.278,6.278,6.278,6.278,6.278,6.278,6.278,6.278,6.278,6.278,6.278,6.278,6.278,6.278,6.278,6.278,6.278,6.278,6.278,6.278,6.278,6.278,6.278,6.278,6.278,6.278,6.278,6.278,6.278,6.278,6.278,6.278,6.278,6.278,6.278,6.278,6.278,6.278,6.2805,6.321,6.3377,6.3445,6.3992,6.4464,6.4856,6.5128,6.5441,6.5814,6.5865,6.5897,6.5897,5.7881,5.7881,5.7881,5.7881,5.7881,5.7881,5.7881,5.7881,5.7881,5.7881,5.7881,5.7881,5.7881,5.7881,5.7881,5.7881,5.7881,5.7881,5.7881,5.7881,5.7881,5.7881,5.7881,5.7881,5.7881,5.7881,5.7881,5.7881,5.7881,5.7881,5.7881,5.7881,5.7881,5.7881,5.7881,5.7881,5.7881,5.7881,5.7881,5.7881,5.7881,5.7881,5.7991,5.8633,5.896,5.923,6.0529,6.143,6.1996,6.1996,6.1996,6.1996,6.1996,6.1996,6.1996,6.1996,6.2087,6.223,6.2362,6.2519,6.2629,6.2755,6.278,6.278,6.278,6.278,6.278,6.278,6.278,6.278,6.278,6.278,6.278,6.278,6.278,6.278,6.278,6.278,6.278,6.278,6.278,6.278,6.278,6.278,6.278,6.278,6.278,6.278,6.278,6.278,6.278,6.278,6.278,6.278,6.278,6.278,6.278,6.278,6.278,6.278,6.278,6.278,6.278,6.2805,6.288,6.2959,6.3128,6.3649,6.3971,6.4213,6.4995,6.5333,6.5407,6.5768,6.5897,6.5897,5.7881,5.7881,5.7881,5.7881,5.7881,5.7881,5.7881,5.7881,5.7881,5.7881,5.7881,5.7881,5.7881,5.7881,5.7881,5.7881,5.8271,5.8507,5.8507,5.8896,5.9133,5.9133,5.9133,5.9133,5.9133,5.8727,5.8507,5.8507,5.8101,5.7881,5.7881,5.7881,5.7881,5.7881,5.7881,5.7881,5.7881,5.7881,5.7881,5.7881,5.7881,5.7881,5.7918,5.8244,5.8823,5.9691,6.1075,6.1766,6.1996,6.1996,6.206,6.2096,6.2096,6.2168,6.2222,6.2123,6.2257,6.2423,6.2415,6.2552,6.273,6.2798,6.278,6.278,6.278,6.278,6.278,6.278,6.278,6.278,6.278,6.278,6.278,6.278,6.278,6.278,6.278,6.278,6.278,6.278,6.278,6.278,6.278,6.278,6.278,6.278,6.278,6.278,6.278,6.278,6.278,6.278,6.278,6.278,6.278,6.278,6.278,6.278,6.278,6.278,6.278,6.278,6.278,6.278,6.278,6.283,6.2929,6.3299,6.3624,6.3948,6.4483,6.4945,6.5348,6.5755,6.5897,6.5897]}]]